[[{"header":{"parameterUnit":"m.s-1","parameterCategory":1,"la1":30.6,"la2":28.766,"lo1":-90.7593,"lo2":-88.6598,"dy":0.0162,"dx":0.0183,"nx":116,"ny":114,"refTime":"2023-03-24T12:00:00:Z","depth":0,"parameterNumber":2,"parameterNumberName":"U-component_of_WINDS"},"data":[0.0,0.0,0.0,0.0,0.0,0.0,0.0,0.0,0.0,0.0,0.0,0.0,0.0,0.0,0.0,0.0,0.0,0.0,0.0,0.0,0.0,0.0,0.0,0.0,0.0,0.0,0.0,0.0,0.0,0.0,0.0,0.0,0.0,0.0,0.0,0.0,0.0,0.0,0.0,0.0,0.0,0.0,0.0,0.0,0.0,0.0,0.0,0.0,0.0,0.0,0.0,0.0,0.0,0.0,0.0,0.0,0.0,0.0,0.0,0.0,0.0,0.0,0.0,0.0,0.0,0.0,0.0,0.0,0.0,0.0,0.0,0.0,0.0,0.0,0.0,0.0,0.0,0.0,0.0,0.0,0.0,0.0,0.0,0.0,0.0,0.0,0.0,0.0,0.0,0.0,0.0,0.0,0.0,0.0,0.0,0.0,0.0,0.0,0.0,0.0,0.0,0.0,0.0,0.0,0.0,0.0,0.0,0.0,0.0,0.0,0.0,0.0,0.0,0.0,0.0,0.0,0.0,0.0,0.0,0.0,0.0,0.0,0.0,0.0,0.0,0.0,0.0,0.0,0.0,0.0,0.0,0.0,0.0,0.0,0.0,0.0,0.0,0.0,0.0,0.0,0.0,0.0,0.0,0.0,0.0,0.0,0.0,0.0,0.0,0.0,0.0,0.0,0.0,0.0,0.0,0.0,0.0,0.0,0.0,0.0,0.0,0.0,0.0,0.0,0.0,0.0,0.0,0.0,0.0,0.0,0.0,0.0,0.0,0.0,0.0,0.0,0.0,0.0,0.0,0.0,0.0,0.0,0.0,0.0,0.0,0.0,0.0,0.0,0.0,0.0,0.0,0.0,0.0,0.0,0.0,0.0,0.0,0.0,0.0,0.0,0.0,0.0,0.0,0.0,0.0,0.0,0.0,0.0,0.0,0.0,0.0,0.0,0.0,0.0,0.0,0.0,0.0,0.0,0.0,0.0,0.0,0.0,0.0,0.0,0.0,0.0,0.0,0.0,0.0,0.0,0.0,0.0,0.0,0.0,0.0,0.0,0.0,0.0,0.0,0.0,0.0,0.0,0.0,0.0,0.0,0.0,0.0,0.0,0.0,0.0,0.0,0.0,0.0,0.0,0.0,0.0,0.0,0.0,0.0,0.0,0.0,0.0,0.0,0.0,0.0,0.0,0.0,0.0,0.0,0.0,0.0,0.0,0.0,0.0,0.0,0.0,0.0,0.0,0.0,0.0,0.0,0.0,0.0,0.0,0.0,0.0,0.0,0.0,0.0,0.0,0.0,0.0,0.0,0.0,0.0,0.0,0.0,0.0,0.0,0.0,0.0,0.0,0.0,0.0,0.0,0.0,0.0,0.0,0.0,0.0,0.0,0.0,0.0,0.0,0.0,0.0,0.0,0.0,0.0,0.0,0.0,0.0,0.0,0.0,0.0,0.0,0.0,0.0,0.0,0.0,0.0,0.0,0.0,0.0,0.0,0.0,0.0,0.0,0.0,0.0,0.0,0.0,0.0,0.0,0.0,0.0,0.0,0.0,0.0,0.0,0.0,0.0,0.0,0.0,0.0,0.0,0.0,0.0,0.0,0.0,0.0,0.0,0.0,0.0,0.0,0.0,0.0,0.0,0.0,0.0,0.0,0.0,0.0,0.0,0.0,0.0,0.0,0.0,0.0,0.0,0.0,0.0,0.0,0.0,0.0,0.0,0.0,0.0,0.0,0.0,0.0,0.0,0.0,0.0,0.0,0.0,0.0,0.0,0.0,0.0,0.0,0.0,0.0,0.0,0.0,0.0,0.0,0.0,0.0,0.0,0.0,0.0,0.0,0.0,0.0,0.0,0.0,0.0,0.0,0.0,0.0,0.0,0.0,0.0,0.0,0.0,0.0,0.0,0.0,0.0,0.0,0.0,0.0,0.0,0.0,0.0,0.0,0.0,0.0,0.0,0.0,0.0,0.0,0.0,0.0,0.0,0.0,0.0,0.0,0.0,0.0,0.0,0.0,0.0,0.0,0.0,0.0,0.0,0.0,0.0,0.0,0.0,0.0,0.0,0.0,0.0,0.0,0.0,0.0,0.0,0.0,0.0,0.0,0.0,0.0,0.0,0.0,0.0,0.0,0.0,0.0,0.0,0.0,0.0,0.0,0.0,0.0,0.0,0.0,0.0,0.0,0.0,0.0,0.0,0.0,0.0,0.0,0.0,0.0,0.0,0.0,0.0,0.0,0.0,0.0,0.0,0.0,0.0,0.0,0.0,0.0,0.0,0.0,0.0,0.0,0.0,0.0,0.0,0.0,0.0,0.0,0.0,0.0,0.0,0.0,0.0,0.0,0.0,0.0,0.0,0.0,0.0,0.0,0.0,0.0,0.0,0.0,0.0,0.0,0.0,0.0,0.0,0.0,0.0,0.0,0.0,0.0,0.0,0.0,0.0,0.0,0.0,0.0,0.0,0.0,0.0,0.0,0.0,0.0,0.0,0.0,0.0,0.0,0.0,0.0,0.0,0.0,0.0,0.0,0.0,0.0,0.0,0.0,0.0,0.0,0.0,0.0,0.0,0.0,0.0,0.0,0.0,0.0,0.0,0.0,0.0,0.0,0.0,0.0,0.0,0.0,0.0,0.0,0.0,0.0,0.0,0.0,0.0,0.0,0.0,0.0,0.0,0.0,0.0,0.0,0.0,0.0,0.0,0.0,0.0,0.0,0.0,0.0,0.0,0.0,0.0,0.0,0.0,0.0,0.0,0.0,0.0,0.0,0.0,0.0,0.0,0.0,0.0,0.0,0.0,0.0,0.0,0.0,0.0,0.0,0.0,0.0,0.0,0.0,0.0,0.0,0.0,0.0,0.0,0.0,0.0,0.0,0.0,0.0,0.0,0.0,0.0,0.0,0.0,0.0,0.0,0.0,0.0,0.0,0.0,0.0,0.0,0.0,0.0,0.0,0.0,0.0,0.0,0.0,0.0,0.0,0.0,0.0,0.0,0.0,0.0,0.0,0.0,0.0,0.0,0.0,0.0,0.0,0.0,0.0,0.0,0.0,0.0,0.0,0.0,0.0,0.0,0.0,0.0,0.0,0.0,0.0,0.0,0.0,0.0,0.0,0.0,0.0,0.0,0.0,0.0,0.0,0.0,0.0,0.0,0.0,0.0,0.0,0.0,0.0,0.0,0.0,0.0,0.0,0.0,0.0,0.0,0.0,0.0,0.0,0.0,0.0,0.0,0.0,0.0,0.0,0.0,0.0,0.0,0.0,0.0,0.0,0.0,0.0,0.0,0.0,0.0,0.0,0.0,0.0,0.0,0.0,0.0,0.0,0.0,0.0,0.0,0.0,0.0,0.0,0.0,0.0,0.0,0.0,0.0,0.0,0.0,0.0,0.0,0.0,0.0,0.0,0.0,0.0,0.0,0.0,0.0,0.0,0.0,0.0,0.0,0.0,0.0,0.0,0.0,0.0,0.0,0.0,0.0,0.0,0.0,0.0,0.0,0.0,0.0,0.0,0.0,0.0,0.0,0.0,0.0,0.0,0.0,0.0,0.0,0.0,0.0,0.0,0.0,0.0,0.0,0.0,0.0,0.0,0.0,0.0,0.0,0.0,0.0,0.0,0.0,0.0,0.0,0.0,0.0,0.0,0.0,0.0,0.0,0.0,0.0,0.0,0.0,0.0,0.0,0.0,0.0,0.0,0.0,0.0,0.0,0.0,0.0,0.0,0.0,0.0,0.0,0.0,0.0,0.0,0.0,0.0,0.0,0.0,0.0,0.0,0.0,0.0,0.0,0.0,0.0,0.0,0.0,0.0,0.0,0.0,0.0,0.0,0.0,0.0,0.0,0.0,0.0,0.0,0.0,0.0,0.0,0.0,0.0,0.0,0.0,0.0,0.0,0.0,0.0,0.0,0.0,0.0,0.0,0.0,0.0,0.0,0.0,0.0,0.0,0.0,0.0,0.0,0.0,0.0,0.0,0.0,0.0,0.0,0.0,0.0,0.0,0.0,0.0,0.0,0.0,0.0,0.0,0.0,0.0,0.0,0.0,0.0,0.0,0.0,0.0,0.0,0.0,0.0,0.0,0.0,0.0,0.0,0.0,0.0,0.0,0.0,0.0,0.0,0.0,0.0,0.0,0.0,0.0,0.0,0.0,0.0,0.0,0.0,0.0,0.0,0.0,0.0,0.0,0.0,0.0,0.0,0.0,0.0,0.0,0.0,0.0,0.0,0.0,0.0,0.0,0.0,0.0,0.0,0.0,0.0,0.0,0.0,0.0,0.0,0.0,0.0,0.0,0.0,0.0,0.0,0.0,0.0,0.0,0.0,0.0,0.0,0.0,0.0,0.0,0.0,0.0,0.0,0.0,0.0,0.0,0.0,0.0,0.0,0.0,0.0,0.0,0.0,0.0,0.0,0.0,0.0,0.0,0.0,0.0,0.0,0.0,0.0,0.0,0.0,0.0,0.0,0.0,0.0,0.0,0.0,0.0,0.0,0.0,0.0,0.0,0.0,0.0,0.0,0.0,0.0,0.0,0.0,0.0,0.0,0.0,0.0,0.0,0.0,0.0,0.0,0.0,0.0,0.0,0.0,0.0,0.0,0.0,0.0,0.0,0.0,0.0,0.0,0.0,0.0,0.0,0.0,0.0,0.0,0.0,0.0,0.0,0.0,0.0,0.0,0.0,0.0,0.0,0.0,0.0,0.0,0.0,0.0,0.0,0.0,0.0,0.0,0.0,0.0,0.0,0.0,0.0,0.0,0.0,0.0,0.0,0.0,0.0,0.0,0.0,0.0,0.0,0.0,0.0,0.0,0.0,0.0,0.0,0.0,0.0,0.0,0.0,0.0,0.0,0.0,0.0,0.0,0.0,0.0,0.0,0.0,0.0,0.0,0.0,0.0,0.0,0.0,0.0,0.0,0.0,0.0,0.0,0.0,0.0,0.0,0.0,0.0,0.0,0.0,0.0,0.0,0.0,0.0,0.0,0.0,0.0,0.0,0.0,0.0,0.0,0.0,0.0,0.0,0.0,0.0,0.0,0.0,0.0,0.0,0.0,0.0,0.0,0.0,0.0,0.0,0.0,0.0,0.0,0.0,0.0,0.0,0.0,0.0,0.0,0.0,0.0,0.0,0.0,0.0,0.0,0.0,0.0,0.0,0.0,0.0,0.0,0.0,0.0,0.0,0.0,0.0,0.0,0.0,0.0,0.0,0.0,0.0,0.0,0.0,0.0,0.0,0.0,0.0,0.0,0.0,0.0,0.0,0.0,0.0,0.0,0.0,0.0,0.0,0.0,0.0,0.0,0.0,0.0,0.0,0.0,0.0,0.0,0.0,0.0,0.0,0.0,0.0,0.0,0.0,0.0,0.0,0.0,0.0,0.0,0.0,0.0,0.0,0.0,0.0,0.0,0.0,0.0,0.0,0.0,0.0,0.0,0.0,0.0,0.0,0.0,0.0,0.0,0.0,0.0,0.0,0.0,0.0,0.0,0.0,0.0,0.0,0.0,0.0,0.0,0.0,0.0,0.0,0.0,0.0,0.0,0.0,0.0,0.0,0.0,0.0,0.0,0.0,0.0,0.0,0.0,0.0,0.0,0.0,0.0,0.0,0.0,0.0,0.0,0.0,0.0,0.0,0.0,0.0,0.0,0.0,0.0,0.0,0.0,0.0,0.0,0.0,0.0,0.0,0.0,0.0,0.0,0.0,0.0,0.0,0.0,0.0,0.0,0.0,0.0,0.0,0.0,0.0,0.0,0.0,0.0,0.0,0.0,0.0,0.0,0.0,0.0,0.0,0.0,0.0,0.0,0.0,0.0,0.0,0.0,0.0,0.0,0.0,0.0,0.0,0.0,0.0,0.0,0.0,0.0,0.0,0.0,0.0,0.0,0.0,0.0,0.0,0.0,0.0,0.0,0.0,0.0,0.0,0.0,0.0,0.0,0.0,0.0,0.0,0.0,0.0,0.0,0.0,0.0,0.0,0.0,0.0,0.0,0.0,0.0,0.0,0.0,0.0,0.0,0.0,0.0,0.0,0.0,0.0,0.0,0.0,0.0,0.0,0.0,0.0,0.0,0.0,0.0,0.0,0.0,0.0,0.0,0.0,0.0,0.0,0.0,-8.1347,0.0,0.0,0.0,0.0,0.0,0.0,0.0,0.0,0.0,0.0,0.0,0.0,0.0,0.0,0.0,0.0,0.0,0.0,0.0,0.0,0.0,0.0,0.0,0.0,0.0,0.0,0.0,0.0,0.0,0.0,0.0,0.0,0.0,0.0,0.0,0.0,0.0,0.0,0.0,-8.278,-8.1697,-8.1393,-8.2238,-8.3761,-8.5946,0.0,0.0,0.0,0.0,0.0,0.0,0.0,0.0,0.0,0.0,0.0,0.0,0.0,0.0,0.0,0.0,0.0,0.0,0.0,0.0,0.0,0.0,0.0,0.0,0.0,0.0,0.0,0.0,0.0,0.0,0.0,0.0,0.0,0.0,0.0,0.0,0.0,0.0,0.0,0.0,0.0,0.0,0.0,0.0,0.0,0.0,0.0,0.0,0.0,0.0,0.0,0.0,0.0,0.0,0.0,0.0,0.0,0.0,0.0,0.0,0.0,0.0,0.0,0.0,0.0,0.0,0.0,0.0,0.0,0.0,0.0,-8.1444,0.0,0.0,0.0,0.0,0.0,0.0,0.0,0.0,0.0,0.0,0.0,0.0,0.0,0.0,0.0,0.0,0.0,0.0,0.0,0.0,0.0,0.0,0.0,0.0,-8.1528,-8.0648,-8.1359,-8.2069,0.0,0.0,0.0,0.0,0.0,0.0,0.0,-8.1528,-8.2069,-8.3659,-8.1291,-7.9498,-7.8314,-7.7671,-7.8957,-8.19,-8.5046,0.0,0.0,0.0,0.0,0.0,0.0,0.0,0.0,0.0,0.0,0.0,0.0,0.0,0.0,0.0,0.0,0.0,0.0,0.0,0.0,0.0,0.0,0.0,0.0,0.0,0.0,0.0,0.0,0.0,0.0,0.0,0.0,0.0,0.0,0.0,0.0,0.0,0.0,0.0,0.0,0.0,0.0,0.0,0.0,0.0,0.0,0.0,0.0,0.0,0.0,0.0,0.0,0.0,0.0,0.0,0.0,0.0,0.0,0.0,0.0,0.0,0.0,0.0,-8.2753,-8.3744,-8.5371,-8.4283,-8.4079,-8.451,-8.3193,-8.2347,-8.2006,-8.2559,0.0,0.0,0.0,0.0,0.0,0.0,0.0,0.0,0.0,0.0,0.0,0.0,0.0,0.0,0.0,0.0,0.0,0.0,0.0,0.0,0.0,-8.3422,-8.3625,-8.2238,-8.3389,-8.393,0.0,0.0,0.0,0.0,0.0,0.0,-8.0513,-8.1021,-8.0818,-7.9837,-7.6927,-7.5405,-7.5202,-7.51,-7.4965,-7.4965,-7.8653,-8.0919,-8.2035,0.0,0.0,0.0,0.0,0.0,0.0,0.0,0.0,0.0,0.0,0.0,0.0,0.0,0.0,0.0,0.0,0.0,0.0,0.0,0.0,0.0,0.0,0.0,0.0,0.0,0.0,0.0,0.0,0.0,0.0,0.0,0.0,0.0,0.0,0.0,0.0,0.0,0.0,0.0,0.0,0.0,-7.8589,-7.8589,0.0,0.0,0.0,0.0,0.0,0.0,0.0,0.0,0.0,0.0,0.0,0.0,0.0,-8.1856,-8.3948,-8.3985,-8.4058,-8.4278,-8.4929,-8.5052,-8.4675,-8.5617,-8.6507,-8.7266,-8.6814,0.0,-8.3312,-8.2642,0.0,0.0,0.0,0.0,0.0,0.0,0.0,0.0,0.0,0.0,0.0,0.0,0.0,0.0,0.0,0.0,0.0,0.0,0.0,0.0,0.0,-8.1257,-8.0818,-8.0581,-8.075,-8.0919,-8.1021,-8.1426,0.0,0.0,0.0,-8.0445,-8.0209,-7.9295,-7.7874,-7.5946,-7.4627,-7.3578,-7.2766,-7.2766,-7.236,-7.1718,-7.3341,-7.6082,-7.9431,-7.9431,0.0,0.0,0.0,0.0,0.0,0.0,0.0,0.0,0.0,0.0,0.0,0.0,0.0,0.0,0.0,0.0,0.0,0.0,0.0,0.0,0.0,0.0,0.0,0.0,0.0,0.0,0.0,0.0,0.0,0.0,0.0,0.0,0.0,0.0,0.0,0.0,0.0,0.0,0.0,-7.9874,-8.0645,-7.8809,-8.0828,-8.2186,0.0,0.0,0.0,0.0,0.0,0.0,0.0,0.0,0.0,-8.2333,-8.281,-8.3324,-8.3911,-8.4801,-8.5682,-8.6571,-8.7818,-8.8877,-8.9793,-8.9901,-9.0388,-9.1069,-9.0024,-8.8632,-8.6978,-8.4709,-8.2902,-8.1639,0.0,0.0,0.0,0.0,-8.4349,-8.4901,0.0,0.0,0.0,0.0,0.0,0.0,0.0,0.0,0.0,0.0,0.0,0.0,-8.0175,-7.8686,-7.7841,-7.8213,-7.8077,-7.8213,-7.8788,-7.9329,0.0,0.0,-7.9498,-7.9092,-7.9634,-7.7266,-7.4999,-7.2935,-7.2563,-7.1819,-7.0737,-7.0737,-7.0331,-6.962,-6.9823,-7.2293,-7.6284,-7.6487,-7.7841,-7.9837,0.0,0.0,0.0,0.0,0.0,0.0,0.0,0.0,0.0,0.0,0.0,0.0,0.0,0.0,0.0,0.0,0.0,0.0,0.0,0.0,0.0,0.0,0.0,0.0,0.0,0.0,0.0,0.0,0.0,0.0,0.0,0.0,0.0,0.0,0.0,0.0,0.0,-8.0314,-8.1525,-7.8919,-8.0901,-8.2076,0.0,0.0,0.0,0.0,0.0,0.0,-8.0901,-8.1379,-8.215,-8.3361,-8.4168,-8.4672,-8.4935,-8.6264,-8.7608,-8.9062,-9.0624,-9.2215,-9.3668,-9.3663,-9.3676,-9.3678,-9.2387,-9.1248,-8.9979,-8.6594,-8.3708,-8.1477,-8.2324,-8.2401,-8.2285,-8.4209,-8.5286,-8.5786,0.0,0.0,0.0,0.0,0.0,0.0,0.0,0.0,0.0,0.0,0.0,-7.713,-7.713,-7.7029,-7.6657,-7.5946,-7.7164,-7.801,-7.8044,-7.8077,-7.8416,-7.9194,-7.845,-7.8044,-7.8077,-7.5168,-7.2935,-7.1413,-7.0026,-6.9282,-6.9214,-6.9214,-6.8774,-6.803,-6.8808,-7.0094,-7.1684,-7.2394,-7.395,-7.6217,-7.9025,0.0,0.0,0.0,0.0,0.0,0.0,0.0,0.0,0.0,0.0,0.0,0.0,0.0,0.0,0.0,0.0,0.0,0.0,0.0,0.0,0.0,0.0,0.0,0.0,0.0,0.0,0.0,0.0,0.0,0.0,0.0,0.0,0.0,0.0,0.0,0.0,0.0,0.0,-7.8699,-7.9396,0.0,0.0,0.0,0.0,-7.8699,-8.0021,-8.0865,-8.1012,-8.0314,-8.0975,-8.3361,-8.4168,-8.6033,-8.897,-8.9851,-9.0671,-9.1566,-9.3162,-9.3614,-9.3102,-9.5248,-9.5379,-9.3883,-9.3659,-9.2633,-9.0864,-8.744,-8.594,-8.5632,-8.4132,-8.4016,-8.4709,-8.4863,-8.4939,-8.4978,0.0,0.0,0.0,0.0,0.0,0.0,0.0,0.0,0.0,-7.8754,-7.7232,-7.6318,-7.6826,-7.5168,-7.4289,-7.4931,-7.4187,-7.4086,-7.5033,-7.554,-7.6386,-7.7638,-7.7874,-7.686,-7.4458,-7.1954,-7.0161,-6.9113,-6.8132,-6.8132,-6.9113,-6.9113,-6.8673,-6.7895,-6.8199,-6.8368,-6.8504,-6.9755,-7.1278,-7.3003,-7.4559,-7.6944,0.0,0.0,0.0,0.0,0.0,0.0,0.0,0.0,0.0,0.0,0.0,0.0,0.0,0.0,0.0,0.0,0.0,0.0,0.0,0.0,0.0,0.0,0.0,0.0,0.0,0.0,0.0,0.0,0.0,0.0,0.0,0.0,0.0,0.0,0.0,0.0,0.0,-8.0938,-8.2076,0.0,-8.1342,-7.991,-7.9323,-8.0094,-7.9727,-8.0351,-8.2443,-8.3251,-8.4535,-8.6444,-8.7766,-8.9005,-9.0125,-9.1952,-9.3024,-9.3322,-9.5426,-9.6035,-9.5314,-9.6604,-9.5966,-9.3915,-9.3755,-9.2749,-9.1056,-8.9286,-8.7594,-8.6055,-8.544,-8.5093,-8.5016,-8.6094,-8.6863,-8.7363,0.0,0.0,0.0,0.0,0.0,0.0,0.0,0.0,-7.713,-7.6893,-7.5303,-7.4424,-7.4965,-7.3003,-7.2056,-7.3037,-7.1785,-7.1447,-7.2665,-7.3443,-7.4559,-7.6048,-7.6115,-7.4458,-7.0973,-6.9451,-6.8199,-6.7151,-6.6677,-6.7083,-6.8335,-6.8064,-6.7793,-6.7523,-6.7523,-6.7252,-6.688,-6.8166,-6.9282,-7.0297,-7.1785,-7.423,-7.7054,0.0,0.0,0.0,0.0,0.0,0.0,0.0,0.0,0.0,0.0,0.0,0.0,0.0,0.0,0.0,0.0,0.0,0.0,0.0,0.0,0.0,0.0,0.0,0.0,0.0,0.0,0.0,0.0,0.0,0.0,0.0,0.0,0.0,0.0,0.0,-8.2003,-8.2553,-8.3324,-8.3471,-8.2663,-8.0901,-8.0131,-8.0938,-8.0755,-8.1672,-8.4095,-8.5747,-8.7105,-8.8169,-9.0543,-9.1528,-9.0977,-9.3621,-9.4846,-9.4594,-9.6175,-9.6637,-9.614,-9.6609,-9.5599,-9.3457,-9.364,-9.2749,-9.1171,-9.0594,-8.9363,-8.7748,-8.7209,-8.6632,-8.6363,-8.7748,-8.8594,-8.9056,0.0,0.0,0.0,0.0,0.0,0.0,0.0,-7.6623,-7.5405,-7.4661,-7.2699,-7.1379,-7.1345,-7.0669,-7.0229,-7.0229,-7.0195,-7.05,-7.1278,-7.1954,-7.3003,-7.4492,-7.3071,-7.0872,-6.7929,-6.7827,-6.7083,-6.5662,-6.5662,-6.6068,-6.6779,-6.6068,-6.6102,-6.6812,-6.6812,-6.6812,-6.6812,-6.7557,-6.7861,-6.8098,-7.1109,-7.2766,-7.4,0.0,0.0,0.0,0.0,0.0,0.0,0.0,0.0,0.0,0.0,0.0,0.0,0.0,0.0,0.0,0.0,0.0,0.0,0.0,0.0,0.0,0.0,0.0,0.0,0.0,0.0,0.0,0.0,0.0,0.0,0.0,0.0,0.0,-7.947,-8.0461,-8.1636,-8.3214,-8.2774,-8.2003,-8.1269,-8.1856,-8.2003,-8.1269,-8.3361,-8.5049,-8.5857,-8.7399,-8.8243,-8.8351,-9.2117,-9.3397,-9.1832,-9.4916,-9.6088,-9.538,-9.5413,-9.5413,-9.5334,-9.5305,-9.4287,-9.2618,-9.3333,-9.271,-9.121,-9.121,-9.121,-9.1056,-8.9402,-8.8786,-8.8863,-8.9671,-8.994,-8.9787,0.0,0.0,0.0,0.0,0.0,0.0,0.0,-7.5168,-7.4627,-7.3883,-7.3274,-7.2699,-7.2157,-7.1447,-7.1007,-7.1007,-7.0026,-6.9958,-7.1244,-7.0973,-7.1447,-7.2935,-7.0026,-6.7963,-6.7117,-6.6068,-6.529,-6.4884,-6.5425,-6.6068,-6.6812,-6.6609,-6.6609,-6.6812,-6.6812,-6.6508,-6.6034,-6.6779,-6.6779,-6.6576,-6.9586,-7.1244,-7.2293,0.0,0.0,0.0,0.0,0.0,0.0,0.0,0.0,0.0,0.0,0.0,0.0,0.0,0.0,0.0,0.0,0.0,0.0,0.0,0.0,0.0,0.0,0.0,0.0,0.0,0.0,0.0,0.0,0.0,0.0,0.0,0.0,-7.7457,-7.7928,-8.0241,-8.226,-8.3287,-8.4242,-8.4939,-8.5343,-8.5013,-8.5196,-8.6151,-8.6297,-8.6958,-8.8353,-8.883,-8.9843,-9.1622,-9.2811,-9.3729,-9.4366,-9.5304,-9.5399,-9.4631,-9.5743,-9.5339,-9.3621,-9.4681,-9.3873,-9.1756,-9.2488,-9.221,-9.121,-9.121,-9.121,-9.1171,-9.071,-9.0517,-9.0556,-9.0748,-9.0441,-8.971,0.0,0.0,0.0,0.0,0.0,0.0,0.0,-7.4356,-7.3747,-7.2732,-7.2834,-7.2529,-7.1176,-7.0906,-7.0703,-7.0432,-6.9891,-6.9925,-7.077,-7.1007,-7.1075,-7.1007,-6.8605,-6.6981,-6.6339,-6.5493,-6.5053,-6.5053,-6.5493,-6.6068,-6.6812,-6.6474,-6.6508,-6.6812,-6.6812,-6.6576,-6.6203,-6.6643,-6.6745,-6.6779,-6.8876,-7.0161,-7.1164,-7.4076,-7.6128,-7.7537,-7.8281,-7.9037,-7.9514,-7.8541,0.0,0.0,0.0,0.0,0.0,0.0,0.0,0.0,0.0,0.0,0.0,0.0,0.0,0.0,0.0,0.0,0.0,0.0,0.0,0.0,0.0,0.0,0.0,0.0,-7.9103,-7.947,-7.9805,-8.0938,-8.2517,-8.4646,-8.5747,-8.6738,-8.7912,-8.7582,-8.7692,-8.8647,-8.828,-8.8573,-8.9858,-9.0592,-9.1751,-9.3466,-9.4496,-9.5166,-9.5404,-9.5793,-9.5405,-9.4299,-9.5161,-9.5012,-9.3927,-9.4377,-9.3775,-9.2348,-9.2467,-9.2018,-9.121,-9.121,-9.121,0.0,0.0,0.0,0.0,0.0,-9.021,-8.8786,0.0,0.0,0.0,0.0,0.0,0.0,0.0,-7.3916,-7.2969,-7.1515,-7.2022,-7.165,-6.935,-6.9688,-6.9857,-6.9282,-6.9755,-7.0094,-7.0195,-7.1345,-7.1109,-6.9045,-6.803,-6.6948,-6.573,-6.5696,-6.5696,-6.5696,-6.5764,-6.617,-6.6812,-6.6136,-6.617,-6.6812,-6.6812,-6.6812,-6.6812,-6.6914,-6.732,-6.7996,-6.8977,-6.9722,-7.0534,-7.2597,-7.4221,-7.554,-7.6183,-7.6792,-7.7266,-7.6623,0.0,0.0,0.0,0.0,0.0,0.0,0.0,0.0,0.0,0.0,0.0,0.0,0.0,0.0,0.0,0.0,0.0,0.0,0.0,0.0,0.0,0.0,0.0,0.0,-8.0388,-8.2663,-8.3544,-8.259,-8.3177,-8.6848,-8.7362,-8.8023,-8.9564,-8.9711,-8.9674,-8.9674,-8.9711,-9.0041,-9.0849,0.0,0.0,0.0,0.0,-9.6947,-9.5702,-9.6203,-9.583,-9.4559,-9.4403,-9.4669,-9.5258,-9.443,-9.3841,-9.3518,-9.2826,-9.2018,-9.121,-9.121,-9.1133,-9.1056,-9.1171,-9.121,-9.1171,-9.0979,-8.9479,-8.7632,0.0,0.0,0.0,0.0,0.0,0.0,0.0,-7.3578,-7.2969,-7.1515,-7.2462,-7.2225,-6.9417,-6.9214,-6.9485,-6.9925,-6.9553,-6.9553,-7.0161,-6.9891,-6.9248,-6.8166,-6.6271,-6.5392,-6.5662,-6.5696,-6.5696,-6.5696,-6.6305,-6.6677,-6.6812,-6.6677,-6.6677,-6.6812,-6.6812,-6.6812,-6.6846,-6.7455,-6.776,-6.8064,-7.0094,-7.0973,-7.121,-7.2225,-7.3138,-7.3849,-7.3443,-7.3341,-7.3443,-7.3308,-7.3172,-7.3242,-7.4621,-7.4545,0.0,0.0,0.0,0.0,0.0,0.0,0.0,0.0,0.0,0.0,0.0,0.0,0.0,0.0,0.0,0.0,0.0,0.0,0.0,-8.1085,-8.2333,-8.3691,-8.5123,-8.6187,-8.7325,-8.8793,-8.9528,-9.0298,-9.1326,-9.1363,-9.1326,-9.1326,-9.14,-9.1767,-9.2574,-9.2941,-9.4039,-9.6079,-9.6026,-9.6397,-9.7312,-9.6249,-9.5844,-9.6142,0.0,0.0,-9.5215,-9.4937,-9.4042,-9.271,-9.2556,-9.2018,-9.121,-9.121,-9.0787,-9.021,-9.0941,-9.121,-9.1056,-8.9671,-8.8863,-8.8248,0.0,0.0,0.0,0.0,0.0,0.0,0.0,-7.324,-7.324,-7.2496,-7.368,-7.3883,-7.2056,-7.1853,-7.1853,-7.1819,-7.1176,-7.0737,-7.0737,-7.006,-6.8944,-6.7421,-6.6305,-6.5865,-6.6237,-6.6237,-6.6237,-6.6237,-6.6643,-6.6812,-6.6812,-6.6812,-6.6812,-6.6846,-6.7184,-6.7354,-6.7421,-6.8166,-6.8944,-6.9755,-7.1244,-7.2293,-7.2969,-7.2935,-7.3172,-7.3443,-7.3071,-7.2462,-7.1853,-7.1853,-7.1109,-7.0351,-7.1634,-7.2013,-7.2862,0.0,0.0,0.0,0.0,0.0,0.0,0.0,0.0,0.0,0.0,0.0,0.0,0.0,0.0,-7.8809,0.0,0.0,-8.1746,-8.2113,-8.3544,-8.5306,-8.7325,-8.8647,-8.9711,-9.0519,-9.1363,-9.2024,-9.2464,-9.2464,-9.2609,-9.2954,-9.2681,-9.3197,-9.4767,-9.4485,-9.5183,-9.7126,-9.651,-9.6658,-9.7797,-9.6641,-9.6233,-9.6597,-9.6092,-9.583,-9.5784,-9.4791,-9.3903,-9.3056,-9.221,-9.1595,-9.121,-9.121,-9.0941,-9.0594,-9.1018,-9.0441,-8.9248,-8.8863,-8.8132,-8.7325,0.0,0.0,0.0,0.0,0.0,0.0,0.0,0.0,-7.3443,-7.3308,-7.4695,-7.527,-7.4086,-7.4221,-7.4221,-7.3747,-7.2902,-7.2157,-7.1548,-7.0669,-6.918,-6.6914,-6.7117,-6.7117,-6.6812,-6.6948,-6.7015,-6.7015,-6.7015,-6.7117,-6.7252,-6.7252,-6.7252,-6.7286,-6.7861,-6.8199,-6.8402,-6.918,-7.0398,-7.1819,-7.2699,-7.3849,-7.4999,-7.4525,-7.4086,-7.3713,-7.3713,-7.2665,-7.1278,-7.0973,-6.9553,-6.8039,-6.8897,-6.9438,-7.0753,-7.5658,-7.6765,0.0,0.0,0.0,0.0,0.0,0.0,0.0,0.0,0.0,-7.72,-7.69,-7.8516,-8.0131,-8.0424,-8.2076,-8.3251,-8.2737,-8.4572,-8.6775,-8.8867,-9.0298,-9.14,-9.217,-9.3051,-9.3455,-9.3125,-9.3382,-9.3674,-9.3954,-9.3744,-9.441,-9.626,-9.5994,-9.6326,-9.756,-9.699,-9.7064,-9.7797,-9.7011,-9.6835,-9.7299,-9.6717,-9.6555,-9.6805,-9.483,-9.3864,-9.3595,-9.1941,-9.121,-9.121,-9.121,-9.1095,-9.0941,-9.0787,-8.9363,-8.7517,-8.8363,-8.7709,-8.644,0.0,0.0,0.0,0.0,0.0,0.0,0.0,0.0,0.0,-7.2597,-7.439,-7.4661,-7.1988,-7.2834,-7.3849,-7.4424,-7.3206,-7.236,-7.2293,-7.0973,-6.918,-6.6914,-6.8132,-6.8199,-6.6846,-6.7455,-6.7793,-6.7793,-6.7793,-6.8132,-6.8842,-6.8842,-6.8842,-6.8842,-6.8944,-6.9316,-6.9992,-7.0737,-7.1921,-7.3375,-7.4762,-7.5845,-7.6724,-7.7266,-7.6251,-7.4492,-7.4492,-7.3138,-7.1109,-6.9789,-6.8707,-6.8065,-6.9054,-6.8398,-6.8631,-7.5903,-7.6481,-7.5871,-8.0947,-7.9947,-7.7053,-7.5579,-7.5175,-7.5139,0.0,0.0,-7.7708,-7.9103,-8.0167,-8.1305,-8.2737,-8.3251,-8.3618,-8.4242,-8.5747,-8.7215,-8.8206,-9.0922,-9.3125,-9.3932,-9.474,-9.4666,-9.3235,-9.441,-9.4667,-9.3309,-9.4447,-9.5365,-9.5625,-9.621,-9.6614,-9.6801,-9.6762,-9.7064,-9.7797,-9.7011,-9.7696,-9.9771,-9.7506,-9.7161,-9.8442,-9.5962,-9.4441,-9.3595,-9.1941,-9.121,-9.121,-9.121,-9.0748,-8.9979,-8.9248,-8.8325,-8.7517,-8.8363,-8.8094,-8.7171,0.0,0.0,0.0,0.0,0.0,0.0,0.0,0.0,0.0,0.0,-7.527,-7.6251,-7.5879,-7.6014,-7.6217,-7.6555,-7.439,-7.2868,-7.2428,-7.1007,-6.935,-6.7523,-6.8504,-6.8808,-6.8166,-6.8436,-6.8605,-6.8605,-6.8605,-6.8774,-6.9113,-6.9553,-6.9519,-6.9147,-7.0432,-7.1176,-7.1548,-7.2732,-7.4356,-7.6183,-7.7266,-7.7874,-7.828,-7.8991,-7.7333,-7.4796,-7.6115,-7.4864,0.0,-7.1853,-7.0297,-6.8692,-6.9092,-6.9526,-7.0895,-7.5893,-7.6768,-7.6587,-7.8766,-7.8369,0.0,0.0,-7.668,-7.646,-7.6937,-7.8295,-7.9543,-7.9727,-8.0791,-8.2186,-8.3801,-8.3728,-8.4132,0.0,-8.6885,-8.7802,-9.0041,-9.1106,-9.1767,-9.2097,-9.2868,-9.3455,-9.3749,-9.3969,-9.4191,-9.4427,-9.5553,-9.6399,-9.6799,-9.7652,-9.7897,-9.7419,-9.7383,-9.7765,-9.8541,-9.8204,-9.8461,-9.9422,-9.8337,-9.7431,-9.664,-9.5003,-9.3518,-9.221,-9.1518,-9.121,-9.1171,-9.0671,-9.0248,-8.9825,-8.9017,-8.8171,-8.7363,-8.7248,-8.6978,-8.6594,0.0,0.0,0.0,0.0,0.0,0.0,0.0,0.0,0.0,0.0,0.0,-7.7468,-7.8957,-7.845,-7.8145,-7.8551,-7.6048,-7.4018,-7.3071,-7.1616,-7.0026,-6.8301,-6.8977,-6.9316,-6.9113,-6.9316,-6.9485,-6.9722,-6.9722,-6.9925,-7.0331,-7.0838,-7.0804,-7.0398,-7.2191,-7.3138,-7.3409,-7.4897,-7.6724,-7.8653,-7.9194,-7.9397,-7.9431,-7.9532,-7.7908,-7.5743,-7.7164,-7.5743,-7.3206,-7.3409,-7.1954,-7.0036,-7.0352,-7.1301,-7.2952,-7.6214,-7.7404,-7.7671,-7.7671,0.0,0.0,-7.8369,-7.8295,-7.8332,-7.9617,-8.0828,-8.1709,-8.1782,-8.237,-8.3287,-8.4682,-8.4278,-8.4646,-8.7435,-8.7582,-8.839,-9.1436,-9.1326,-9.0922,-9.0922,-9.0665,-9.1143,-9.2794,-9.3051,-9.3564,-9.4673,-9.5958,-9.7026,-9.7789,-9.8648,-9.8741,-9.7933,-9.7897,-9.8282,-9.9058,-9.9013,-9.9065,-9.922,-9.8508,-9.7242,-9.544,-9.4004,-9.2595,-9.121,-9.121,-9.121,-9.1171,-9.0517,-9.0133,-8.9825,-8.9017,-8.8171,-8.7286,-8.644,-8.6094,-8.6094,0.0,0.0,0.0,0.0,0.0,0.0,0.0,0.0,0.0,0.0,0.0,0.0,0.0,0.0,-7.8551,-8.0006,-7.8077,-7.6149,-7.4661,-7.3138,-7.1345,-6.9147,-6.9755,-6.9823,-6.9113,-6.9789,-7.05,-7.1244,-7.1244,-7.1988,-7.3341,-7.3375,-7.3375,-7.3375,-7.4187,-7.4931,-7.5709,-7.7232,-7.8754,-8.0141,-8.0175,-8.0175,-8.0006,-7.8585,-7.7976,-7.7807,-7.7164,-7.4999,-7.2529,-7.324,-7.2969,-7.2485,-7.3498,-7.34,-7.3577,-7.7127,-7.835,-7.8552,0.0,0.0,-7.7494,-7.8369,-7.9176,-8.0351,-8.2737,-8.3287,-8.3985,-8.6297,-8.56,-8.4792,-8.56,-8.5123,-8.5123,-8.6775,-8.7655,-8.9014,-9.1473,-9.1767,-9.1767,-9.1767,-8.905,-8.7802,0.0,-9.1693,-9.3125,-9.3162,-9.5327,-9.7052,-9.7825,-9.8631,-9.8741,-9.7933,-9.7897,-9.8239,-9.9016,-9.9007,-9.9365,-10.0,-9.7664,-9.6461,-9.6192,-9.3672,-9.2056,-9.121,-9.121,-9.121,-9.121,-9.1171,-9.0671,-8.9825,-8.9017,-8.8171,-8.7286,-8.644,-8.6094,-8.6094,0.0,0.0,0.0,0.0,0.0,0.0,0.0,0.0,0.0,0.0,0.0,0.0,0.0,0.0,0.0,0.0,-7.7908,-7.669,-7.6149,-7.4255,-7.2563,-7.1345,-7.1515,-7.1548,-7.1278,-7.1988,-7.2259,-7.2022,-7.2022,-7.2022,-7.2056,-7.3037,-7.3477,-7.3578,-7.5337,-7.6555,-7.7266,-7.8314,-7.9566,-8.0885,-8.0412,-8.0209,-8.0073,-7.9126,-7.8111,-7.7367,0.0,-7.7096,-7.5439,-7.5676,-7.5048,-7.4265,-7.4575,-7.5494,0.0,-7.9337,0.0,0.0,0.0,0.0,-7.9543,-8.1966,-8.2774,-8.3618,-8.604,-8.6591,-8.6518,-8.6261,-8.5343,-8.4352,-8.3544,-8.2737,-8.3434,-8.7178,-8.7582,-8.883,-9.2868,-9.2501,-9.1216,-8.9601,-8.8463,0.0,0.0,0.0,0.0,-9.3639,-9.5658,-9.7273,-9.8631,-9.9952,-10.0283,-9.9512,-9.8961,-9.9058,-9.9867,-9.8744,-9.8027,-9.7693,-9.468,-9.3179,-9.3013,-9.1559,-9.1011,-9.121,-9.121,-9.121,-9.1095,-9.0017,-8.9363,-8.894,-8.7517,-8.6786,-8.6517,-8.6209,-8.6094,-8.6094,0.0,0.0,0.0,0.0,0.0,0.0,0.0,0.0,0.0,0.0,0.0,0.0,0.0,0.0,0.0,0.0,0.0,-7.757,-7.7299,-7.5405,-7.4187,-7.4018,-7.3477,-7.3443,-7.3984,-7.4187,-7.4187,-7.4018,-7.3477,-7.3071,-7.2902,-7.3308,-7.3477,-7.3578,-7.5574,-7.6724,-7.7266,-7.8551,-7.9803,-8.0885,-8.0682,-8.0581,-8.0479,-7.9498,-7.8686,0.0,-7.828,-7.7874,-7.7333,-7.7604,-7.6807,-7.5883,-7.6563,-7.7746,0.0,0.0,0.0,0.0,0.0,-8.1452,-8.2553,-8.5233,-8.6334,-8.7215,-8.905,-8.9271,-8.8536,-8.6628,-8.5343,-8.4022,-8.2113,-8.0865,-8.1452,-8.5416,-8.5637,-8.7105,-9.2244,-9.1326,-8.9821,-8.9124,-8.8023,-8.6848,0.0,0.0,0.0,-9.3088,-9.5474,-9.7419,-9.9035,-10.0613,-10.098,-9.9916,-9.9365,-9.9166,-9.9398,-9.8054,-9.6522,-9.4787,-9.2878,-9.1469,-9.0584,-9.0491,-9.0762,-9.1171,-9.0864,-9.0748,-9.0633,-8.9248,-8.8517,-8.8132,-8.7017,-8.6363,-8.6094,-8.6094,-8.6094,-8.6094,0.0,0.0,0.0,0.0,0.0,0.0,0.0,0.0,0.0,0.0,0.0,0.0,0.0,0.0,0.0,0.0,0.0,0.0,-7.8179,-7.669,-7.6183,-7.7029,-7.5642,-7.554,-7.6995,-7.6284,-7.6284,-7.7029,-7.5574,-7.5168,-7.5777,-7.4424,-7.3781,-7.3883,-7.5337,-7.6014,-7.6251,-7.8382,-7.9701,-8.0412,-8.1021,-8.1291,-8.1122,-7.9701,-7.96,-7.9938,-7.7807,-7.7502,-7.8145,0.0,0.0,0.0,0.0,0.0,0.0,0.0,0.0,-8.0131,-8.1158,-8.3691,-8.6407,-8.8059,-8.9638,-9.0959,-9.1657,-9.1143,-8.9858,-8.7399,-8.5563,-8.3691,0.0,0.0,-7.947,-8.1929,-8.2443,-8.4499,-9.0078,-8.8904,-8.8316,0.0,0.0,0.0,0.0,0.0,0.0,-9.1767,0.0,-9.7346,-9.9145,-10.0686,-10.0796,-9.9218,-9.9145,-9.8687,-9.7803,-9.6944,-9.4892,-9.1752,-9.2266,-9.1311,-8.9173,-9.0546,-9.121,-9.1171,-9.0287,-8.9902,-8.9825,-8.8979,-8.8132,-8.7401,-8.7363,-8.6824,-8.6094,-8.6094,-8.6094,-8.6094,0.0,0.0,0.0,0.0,0.0,0.0,0.0,0.0,0.0,0.0,0.0,0.0,0.0,0.0,0.0,0.0,0.0,0.0,-8.0378,-7.8551,-7.7976,-7.9295,-7.8483,-7.8145,-7.8551,-7.8889,-7.8889,-7.8551,-7.8179,-7.7773,-7.7401,-7.7604,-7.7976,-7.8517,-7.9464,-8.0479,-8.1494,-8.1562,-8.2002,-8.2577,-8.1663,-8.1291,-8.119,-8.0276,-8.004,-8.0141,-7.9566,-7.9126,0.0,0.0,0.0,0.0,0.0,0.0,-7.8552,0.0,0.0,-8.2406,-8.6224,-8.8316,-8.9784,-9.1436,-9.2611,-9.3088,-9.2024,-9.0702,-8.8867,-8.582,-8.3471,-8.1379,0.0,0.0,0.0,-8.3508,-8.6004,0.0,-9.3639,-9.4263,0.0,-9.3418,0.0,-9.0849,-8.9784,-9.0041,0.0,0.0,-9.4777,-9.6649,-10.0686,-10.1274,-10.098,-9.9989,-9.9402,-9.8711,-9.7874,-9.5884,-9.3562,-9.0907,-9.1516,-9.0837,-8.9173,-9.0546,-9.121,-9.1171,-9.0287,-8.9902,-8.9787,-8.8325,-8.7594,-8.7325,-8.6709,-8.6286,-8.6094,-8.6094,-8.6094,-8.6094,0.0,0.0,0.0,0.0,0.0,0.0,0.0,0.0,0.0,0.0,0.0,0.0,0.0,0.0,0.0,0.0,0.0,0.0,0.0,-7.9634,-7.96,-8.1088,-8.0479,-8.0209,-8.0547,-8.031,-8.0175,-8.0073,-7.9431,-7.9058,-7.8957,-7.872,-7.8822,-7.9261,-8.0006,-8.0784,-8.1562,-8.146,-8.1866,0.0,0.0,-8.1968,-8.2205,-8.1799,-8.1629,-8.1562,-8.0919,0.0,0.0,0.0,0.0,-8.0808,-8.1996,-8.1526,-8.1122,-8.4095,0.0,-8.5563,-8.9014,-9.1326,-9.2978,-9.3932,-9.4777,-9.474,-9.2354,-9.0555,-8.8316,-8.4352,-8.2186,0.0,-7.8883,0.0,0.0,0.0,0.0,0.0,-9.3712,-9.485,-9.518,0.0,-9.463,0.0,-9.2831,-9.3161,-9.4446,0.0,-9.6318,-9.7346,-10.0796,-10.1274,-10.098,-9.9805,-9.9365,-9.8227,-9.6318,-9.496,-9.305,-9.056,-9.1221,-9.0811,-8.9597,-9.0704,-9.121,-9.1133,0.0,-8.9363,-8.9248,-8.7517,-8.6824,-8.6786,-8.6286,-8.6094,-8.6094,-8.6094,-8.6094,-8.6094,0.0,0.0,0.0,0.0,0.0,0.0,0.0,0.0,0.0,0.0,0.0,0.0,0.0,0.0,0.0,0.0,0.0,0.0,0.0,0.0,0.0,0.0,-8.1968,-8.1866,-8.2543,-8.119,-8.0818,-8.1426,-8.0276,-8.0006,-8.0615,-7.9431,-7.8855,-7.8889,-7.9532,-7.9904,-8.004,-8.0547,-8.1224,-8.1934,-8.2475,-8.3084,-8.3625,0.0,-8.349,0.0,0.0,0.0,0.0,0.0,-8.3549,-8.3221,-8.4311,-8.4827,-8.538,-8.7031,-8.8206,-8.9344,-9.0959,-9.3675,-9.5988,-9.5988,-9.6282,-9.5694,-9.2391,-9.0152,-8.7472,-8.281,0.0,-8.0094,-7.8699,-7.7341,-7.8075,-8.3067,0.0,-8.6481,-9.2978,-9.3896,-9.4703,-9.6906,-9.6465,-9.5988,-9.5988,-9.5988,-9.6906,-9.9108,-9.8594,-9.8851,-10.0393,-10.109,-10.0796,-9.9145,-9.8888,-9.7346,-9.4336,-9.4299,-9.3043,-9.0534,-9.1198,-9.1017,-9.0138,-9.0876,-9.1133,-9.0941,-8.9363,0.0,-8.8402,-8.6786,-8.6094,-8.6094,-8.6094,-8.6094,-8.6094,-8.6094,-8.6094,-8.6094,0.0,0.0,0.0,0.0,0.0,0.0,0.0,0.0,0.0,0.0,-7.6589,-7.7367,0.0,0.0,0.0,0.0,0.0,0.0,0.0,0.0,0.0,0.0,-8.3524,-8.3186,-8.3321,0.0,0.0,0.0,0.0,-8.2813,-8.2949,-8.3287,-8.349,-8.349,-8.3625,-8.4031,-8.4573,-8.4065,-8.4302,-8.4945,-8.4437,-8.4336,-8.437,-8.3727,0.0,0.0,0.0,0.0,0.0,0.0,-8.4835,-8.4309,-8.672,-8.7515,-8.7876,-8.9491,-9.1546,-9.3602,-9.5217,-9.7052,-9.8484,-9.8484,-9.7089,-9.485,-9.1546,-8.8023,0.0,0.0,-7.8993,-7.7861,-7.7567,-7.7892,-7.9984,-8.549,0.0,0.0,0.0,0.0,-9.8484,0.0,0.0,0.0,0.0,0.0,0.0,0.0,0.0,-10.0283,-10.12,-10.1384,-10.0796,-9.9145,-9.7823,-9.6208,-9.4299,-9.4299,-9.3043,-9.0534,-9.1198,-9.1017,-9.0138,-9.0876,-9.0825,-9.0094,-8.9094,0.0,-8.7555,-8.6517,-8.6094,-8.6094,-8.6094,-8.6094,-8.6094,-8.6094,-8.6094,-8.6094,0.0,0.0,0.0,0.0,0.0,0.0,0.0,-7.3781,-7.4728,-7.6623,-7.6893,-7.7029,-7.7401,-7.7435,-7.7874,0.0,0.0,0.0,0.0,0.0,0.0,0.0,0.0,0.0,0.0,0.0,0.0,0.0,0.0,0.0,0.0,0.0,0.0,0.0,0.0,-8.6027,-8.6332,-8.5554,-8.5452,-8.5723,-8.4945,-8.464,0.0,0.0,0.0,0.0,0.0,0.0,0.0,0.0,-8.8129,-8.8435,-9.0191,-9.1033,-9.1767,-9.3786,-9.5217,-9.6685,-9.9145,-10.0393,-10.0907,-10.0503,-9.7897,-9.452,-9.0849,0.0,0.0,0.0,-7.8809,-7.8222,-7.9066,0.0,0.0,0.0,0.0,0.0,0.0,0.0,0.0,0.0,0.0,0.0,0.0,0.0,0.0,0.0,0.0,-10.109,-10.1494,-10.0686,-9.9916,-9.9145,-9.7126,-9.5663,-9.4878,-9.408,-9.2584,-9.0483,-9.1168,-9.0789,-8.9511,-9.0685,-9.071,-8.9902,-8.9479,0.0,-8.7363,-8.694,-8.6517,-8.6094,-8.6094,-8.6094,-8.6094,-8.6094,-8.6094,-8.6094,0.0,0.0,0.0,0.0,0.0,0.0,0.0,-7.3883,-7.5067,-7.7435,-7.7671,-7.7435,-7.6961,-7.6893,-7.7502,0.0,0.0,0.0,0.0,0.0,0.0,0.0,0.0,0.0,0.0,0.0,0.0,0.0,0.0,0.0,0.0,0.0,0.0,0.0,0.0,0.0,0.0,-8.6196,-8.5926,0.0,0.0,0.0,0.0,0.0,0.0,0.0,0.0,0.0,0.0,0.0,-9.1123,-9.2244,-9.3088,-9.4153,-9.5364,-9.6906,-9.8117,-9.9475,-10.2008,-10.2999,-10.2999,-10.2008,-9.8447,-9.4226,-9.0298,-8.5673,0.0,0.0,-7.9286,-7.925,-8.0498,0.0,-8.0645,0.0,0.0,0.0,0.0,0.0,0.0,0.0,0.0,0.0,0.0,0.0,0.0,0.0,0.0,0.0,-10.1274,-9.9879,-9.9035,-9.8851,-9.6685,-9.5478,-9.5413,-9.367,-9.2084,-9.0657,-9.1057,-9.0512,-8.9206,-9.0569,-9.071,-8.9902,-8.971,0.0,0.0,-8.7286,-8.6824,-8.6363,-8.617,-8.6094,-8.6094,-8.6094,-8.6094,-8.6094,0.0,0.0,0.0,0.0,0.0,0.0,0.0,-7.5236,-7.669,-7.6961,-7.8686,-7.9126,-7.713,-7.6893,-7.7502,0.0,0.0,0.0,0.0,0.0,0.0,0.0,0.0,0.0,0.0,0.0,0.0,0.0,0.0,0.0,0.0,0.0,0.0,0.0,0.0,0.0,0.0,0.0,0.0,0.0,0.0,0.0,0.0,0.0,0.0,0.0,0.0,0.0,0.0,0.0,0.0,-9.3125,-9.3932,-9.5731,-9.7309,-9.6098,0.0,0.0,-10.2595,-10.3806,-10.4504,-10.2999,-9.8484,-9.3529,-9.0188,0.0,0.0,-8.0131,-7.9727,-7.9727,-7.9874,-7.925,-7.9984,0.0,0.0,-8.5967,0.0,0.0,0.0,0.0,0.0,0.0,0.0,0.0,0.0,0.0,0.0,0.0,-10.0393,-9.9585,-9.8778,-9.8007,-9.6392,-9.5478,-9.5413,-9.308,-9.1783,-9.1461,-9.0755,-9.0247,-9.0024,-9.0838,-9.071,-8.9863,-8.9133,0.0,0.0,-8.6863,-8.6632,-8.7209,-8.6401,-8.6094,-8.6094,-8.6094,-8.6094,-8.6094,0.0,0.0,0.0,0.0,0.0,0.0,-7.3375,-7.4661,-7.6014,-7.7367,-7.872,-7.9363,-7.8923,-7.8483,-7.8111,-7.7807,0.0,0.0,0.0,0.0,0.0,0.0,0.0,0.0,0.0,0.0,-8.3287,-8.3727,-8.3896,0.0,0.0,0.0,0.0,0.0,0.0,0.0,0.0,0.0,0.0,0.0,0.0,0.0,0.0,0.0,0.0,0.0,0.0,0.0,0.0,0.0,0.0,0.0,-9.0996,-9.2281,0.0,0.0,-9.8631,-10.1788,-10.4284,-10.5715,-10.6302,-10.5201,-9.9218,-9.2978,-9.0665,0.0,0.0,-8.0534,-8.0534,-8.0681,-8.1158,-8.0571,-8.0571,-8.2186,0.0,0.0,0.0,0.0,0.0,0.0,0.0,0.0,0.0,0.0,0.0,0.0,0.0,0.0,-10.0319,-9.9548,-9.8961,-9.8631,-9.6135,-9.4741,-9.4668,-9.1788,-9.0073,-8.9469,-8.955,-8.9314,-8.8815,-9.0474,-9.071,-8.9885,-8.9556,0.0,0.0,-8.7171,-8.6786,-8.6594,-8.6247,-8.6094,-8.6094,-8.6094,-8.6094,-8.6094,0.0,0.0,0.0,0.0,0.0,-7.2665,-7.3375,-7.4322,-7.5608,-7.7435,-7.8517,-7.9295,-7.9837,-7.9228,-7.8551,-7.7942,-7.9295,0.0,0.0,0.0,0.0,0.0,0.0,0.0,0.0,0.0,-8.3998,-8.4979,-8.4674,-8.4945,0.0,0.0,0.0,0.0,0.0,0.0,0.0,0.0,0.0,0.0,0.0,0.0,0.0,0.0,0.0,0.0,0.0,0.0,0.0,0.0,0.0,0.0,0.0,0.0,0.0,0.0,-9.7089,-10.0907,-10.3806,-10.6082,-10.7294,-10.6302,-9.9842,-9.3235,0.0,0.0,0.0,-8.1305,-8.1342,-8.1525,-8.2113,-8.1525,-8.1012,0.0,0.0,-8.0645,0.0,0.0,0.0,0.0,0.0,0.0,0.0,0.0,0.0,0.0,0.0,0.0,0.0,-9.9659,-9.8998,-9.8741,-9.5621,-9.4149,-9.4557,-9.1124,-8.9304,-8.9157,-8.9334,-8.9149,-8.8605,-9.0416,-9.0864,-9.0248,-8.9748,0.0,0.0,-8.7325,-8.6824,-8.6478,-8.6209,-8.6094,-8.6094,-8.6094,-8.6094,-8.6094,0.0,0.0,0.0,0.0,0.0,0.0,-7.3375,-7.4728,-7.598,-7.6792,-7.8213,-7.9126,-7.9126,-7.845,-7.8585,-8.004,-8.0175,0.0,0.0,0.0,0.0,0.0,0.0,0.0,0.0,0.0,-8.4234,-8.5757,-8.6501,-8.6501,-8.5824,-8.7279,-8.6771,0.0,0.0,0.0,0.0,0.0,0.0,0.0,0.0,0.0,0.0,0.0,0.0,0.0,0.0,0.0,0.0,0.0,0.0,0.0,0.0,-8.7766,0.0,0.0,-9.4006,-10.0283,-10.0393,-10.388,-10.7183,-10.5495,-10.0283,-9.4593,0.0,0.0,-8.3141,-8.2333,-8.2186,-8.2186,-8.2186,-8.1525,-8.1012,-8.1012,0.0,0.0,0.0,0.0,0.0,0.0,0.0,0.0,0.0,0.0,0.0,0.0,0.0,0.0,0.0,-9.9989,-9.8741,-9.7933,-9.4777,-9.3854,-9.5376,-9.1419,-9.0152,-9.1536,-9.068,-9.0209,-9.0078,-9.0876,-9.121,0.0,0.0,0.0,0.0,-8.7171,-8.6632,-8.7286,-8.644,-8.6094,-8.6094,-8.6094,-8.6094,-8.6094,0.0,0.0,0.0,0.0,0.0,0.0,0.0,-7.4018,-7.5236,-7.598,-7.7401,-7.8551,-7.9058,-7.8889,-7.9566,-8.1528,-8.0784,0.0,0.0,0.0,0.0,0.0,0.0,0.0,0.0,-8.3355,-8.3998,-8.4979,-8.5215,-8.5757,-8.6569,-8.6501,-8.6366,-8.623,-8.7448,0.0,0.0,0.0,0.0,0.0,0.0,0.0,0.0,0.0,0.0,0.0,0.0,0.0,0.0,0.0,0.0,0.0,0.0,0.0,0.0,-8.4425,0.0,0.0,-9.507,-9.7713,-9.9879,-9.8814,-9.4923,-9.0922,-8.9307,0.0,-8.2517,-8.226,-8.2186,-8.2186,-8.2186,-8.2003,-8.1819,-8.1819,-8.1819,0.0,0.0,0.0,0.0,0.0,0.0,0.0,0.0,0.0,0.0,0.0,0.0,0.0,0.0,-9.9695,-9.8741,-9.7933,-9.4777,-9.3051,-9.2934,-8.9485,-8.8491,-9.0026,-8.8507,-8.8605,-9.01,-9.0244,0.0,0.0,0.0,0.0,0.0,-8.6671,-8.6247,-8.6478,-8.6209,-8.6094,-8.6094,-8.6094,-8.6094,-8.6094,0.0,0.0,0.0,0.0,0.0,0.0,0.0,-7.3409,-7.4458,-7.5202,-7.6352,-7.7536,-7.8585,-7.845,-7.9397,-8.2171,-8.1054,0.0,0.0,0.0,0.0,0.0,0.0,0.0,-8.2813,-8.2712,-8.3456,-8.5046,-8.5236,-8.5747,-8.6467,-8.6462,-8.636,-8.6095,-8.7144,-8.7607,0.0,0.0,0.0,0.0,0.0,0.0,-9.2751,0.0,0.0,0.0,0.0,0.0,0.0,0.0,0.0,0.0,0.0,0.0,0.0,0.0,-8.4682,0.0,0.0,-9.3235,-9.5364,-9.5474,-9.2427,0.0,0.0,0.0,-8.2553,-8.226,-8.2186,-8.2186,-8.2186,-8.2186,-8.2186,-8.2186,0.0,0.0,0.0,0.0,0.0,0.0,0.0,0.0,0.0,0.0,0.0,0.0,0.0,0.0,0.0,-9.9255,-9.8154,-9.7016,-9.4446,-9.2978,-9.2758,-8.9528,-8.8672,-9.0093,-8.8356,-8.8232,-8.9551,-8.9491,0.0,0.0,0.0,0.0,0.0,-8.6478,-8.6094,-8.6094,-8.6094,-8.6094,-8.6094,-8.6094,-8.6094,-8.6094,0.0,0.0,0.0,0.0,0.0,0.0,0.0,-7.2969,-7.3747,-7.4424,-7.5202,-7.6251,-7.7739,-7.7299,-7.8348,-8.1934,0.0,0.0,0.0,0.0,0.0,0.0,0.0,0.0,-8.3219,-8.19,-8.2678,-8.5689,-8.6113,-8.6147,-8.5844,-8.6903,-8.6388,-8.4776,-8.6339,-8.7738,-8.9036,-9.0223,-9.0899,-9.1047,-9.0412,-9.1303,0.0,0.0,0.0,0.0,0.0,0.0,0.0,0.0,0.0,0.0,0.0,0.0,0.0,0.0,0.0,0.0,0.0,-8.9968,0.0,0.0,0.0,0.0,0.0,0.0,0.0,-8.2333,-8.2186,-8.2186,-8.2186,-8.2186,-8.2186,-8.2186,0.0,0.0,0.0,0.0,0.0,0.0,0.0,0.0,0.0,0.0,0.0,0.0,0.0,0.0,0.0,-9.8668,-9.7089,-9.5547,-9.3932,-9.3418,-9.4042,-9.0922,-9.0008,-9.1305,-8.9597,-8.8699,-8.8594,-8.8479,0.0,0.0,0.0,0.0,0.0,-8.644,-8.6094,-8.6094,-8.6094,-8.6094,-8.6094,-8.6094,-8.6094,-8.6094,0.0,0.0,0.0,0.0,0.0,0.0,0.0,0.0,0.0,0.0,-7.4897,-7.6082,-7.7063,-7.6995,-7.7942,0.0,0.0,0.0,0.0,0.0,0.0,0.0,0.0,0.0,-8.0953,-8.0648,-8.19,-8.4911,-8.4415,-8.4721,-8.5757,-8.5434,-8.54,-8.5607,-8.7503,-8.9036,-9.027,-9.1451,-9.1344,-9.0335,-9.1057,-9.1656,0.0,0.0,0.0,0.0,-9.0959,-8.9968,0.0,0.0,0.0,0.0,0.0,0.0,0.0,0.0,-8.27,0.0,-8.259,0.0,-8.4682,-8.4462,-8.4609,-8.4609,0.0,0.0,0.0,-8.2223,-8.2186,-8.2186,0.0,0.0,0.0,0.0,0.0,0.0,0.0,0.0,0.0,0.0,0.0,0.0,0.0,0.0,0.0,0.0,0.0,0.0,0.0,-9.753,-9.6539,-9.5547,-9.3932,-9.2574,-9.1473,-8.9491,-8.8859,-8.9533,-8.7271,-8.6723,-8.7671,-8.6363,-8.6017,0.0,0.0,0.0,-8.6401,-8.617,-8.6094,-8.6094,-8.6094,-8.6094,-8.6094,-8.6094,-8.6094,-8.6094,0.0,0.0,0.0,0.0,0.0,0.0,0.0,0.0,0.0,0.0,0.0,0.0,0.0,0.0,0.0,0.0,0.0,0.0,0.0,0.0,0.0,0.0,0.0,-7.8957,-7.9701,-8.004,-8.1325,-8.3592,-8.3739,-8.4318,-8.5249,-8.5341,-8.5652,-8.6234,-8.9197,-9.0647,-9.0995,-9.2605,-9.2321,-9.0907,-9.1546,0.0,0.0,0.0,0.0,0.0,-8.9784,-8.872,0.0,-8.5894,-8.4792,-8.4058,0.0,0.0,0.0,0.0,-8.2553,-8.1856,-8.0314,-8.0498,-8.1085,-8.1012,-8.1672,-8.2296,-8.2223,0.0,0.0,-8.2186,-8.2186,0.0,0.0,0.0,0.0,0.0,0.0,0.0,0.0,0.0,0.0,0.0,0.0,0.0,0.0,0.0,0.0,0.0,0.0,0.0,0.0,-9.6575,-9.5437,-9.3859,-9.2978,-9.206,-9.1179,-8.9197,-8.8331,-8.8542,-8.5985,-8.5144,-8.5779,-8.5147,-8.4939,0.0,0.0,0.0,-8.6094,-8.6094,-8.6094,-8.6094,-8.6094,-8.6094,-8.6094,-8.6094,-8.6094,-8.6094,0.0,0.0,0.0,0.0,0.0,0.0,0.0,0.0,0.0,0.0,0.0,0.0,0.0,0.0,0.0,0.0,0.0,0.0,0.0,0.0,0.0,0.0,-7.8235,-7.8303,-7.9186,-7.996,-8.1118,-8.2632,-8.3859,-8.4619,-8.489,-8.6103,-8.6873,-8.7418,-9.0931,-9.2151,-9.1627,-9.3481,-9.3308,-9.1803,-9.1803,0.0,0.0,0.0,0.0,0.0,0.0,0.0,0.0,-8.4499,-8.3691,-8.3618,-8.3728,0.0,0.0,0.0,0.0,0.0,-7.958,-7.9727,-8.0534,-8.0608,-8.1012,-8.1489,-8.1929,0.0,0.0,0.0,0.0,0.0,0.0,-8.1562,0.0,0.0,0.0,0.0,0.0,0.0,0.0,0.0,0.0,0.0,0.0,0.0,0.0,0.0,0.0,0.0,0.0,-9.5584,-9.4116,-9.1877,-9.1546,-9.1326,-9.1069,-8.905,-8.7767,-8.7325,-8.5,-8.3823,-8.373,-8.4276,-8.4247,-8.3862,0.0,0.0,-8.6094,-8.6094,-8.6094,-8.6094,-8.6094,-8.6094,-8.6094,-8.6094,-8.6094,-8.6094,0.0,0.0,0.0,0.0,0.0,0.0,0.0,0.0,0.0,0.0,0.0,0.0,0.0,0.0,0.0,0.0,0.0,0.0,0.0,0.0,0.0,-7.7534,-7.7475,-7.8062,-7.9465,-8.0614,-8.2002,-8.3762,-8.5028,-8.5833,-8.6152,-8.7352,-8.8881,-9.0629,-9.1902,-9.2594,-9.2864,-9.3858,-9.3308,-9.1803,-9.1803,0.0,0.0,0.0,0.0,0.0,0.0,0.0,0.0,-8.5783,-8.4976,-8.4535,-8.5233,0.0,0.0,0.0,0.0,0.0,-8.1122,-8.2223,-8.3067,-7.98,-8.1012,-8.2737,-8.1489,-8.1709,0.0,0.0,0.0,0.0,0.0,-8.1636,-8.1819,0.0,0.0,0.0,0.0,0.0,0.0,0.0,0.0,0.0,0.0,0.0,0.0,0.0,0.0,0.0,0.0,-9.3896,-9.2978,-9.184,-9.0482,-8.9124,-8.7766,-8.7362,-8.6107,-8.3963,-8.331,-8.2952,-8.2872,-8.2741,-8.3439,-8.4709,0.0,-8.5478,-8.6094,-8.6094,-8.6094,-8.6094,-8.6094,-8.6094,-8.6094,-8.6094,-8.6094,-8.6094,0.0,0.0,0.0,0.0,0.0,0.0,0.0,0.0,0.0,0.0,0.0,0.0,0.0,0.0,0.0,0.0,0.0,0.0,0.0,0.0,-7.682,-7.7871,-7.8493,-7.9149,-7.9885,-8.1204,-8.2721,-8.4442,-8.5834,-8.707,-8.8112,-8.9343,-8.9869,-9.0046,-9.1948,-9.2417,-9.184,-9.3125,-9.2941,-9.1803,0.0,0.0,0.0,0.0,0.0,0.0,0.0,0.0,0.0,0.0,-8.4903,-8.4756,-8.5527,0.0,0.0,0.0,0.0,0.0,-8.2517,-8.3728,-8.4499,-8.1342,-8.2003,-8.2994,-8.1379,-8.1636,-8.2186,-8.2186,0.0,0.0,0.0,0.0,0.0,0.0,0.0,0.0,0.0,0.0,0.0,0.0,0.0,0.0,0.0,0.0,0.0,0.0,0.0,0.0,0.0,0.0,-9.1436,-8.9271,-8.85,-8.7142,-8.5086,-8.4609,-8.3815,-8.2641,-8.1852,-8.1731,-8.2184,-8.2733,-8.3708,-8.4939,0.0,-8.5747,-8.6094,-8.6094,-8.6094,-8.6094,-8.6094,-8.6094,-8.6094,-8.6094,-8.6094,-8.6094,0.0,0.0,0.0,0.0,0.0,0.0,0.0,0.0,0.0,0.0,0.0,0.0,0.0,0.0,0.0,0.0,0.0,0.0,0.0,-7.7705,-7.7678,-7.8789,-7.9655,-8.0233,-8.0554,-8.2326,-8.3967,-8.5464,-8.7329,-8.8957,-9.0351,-9.131,-9.0951,-8.961,-9.202,-9.2281,-9.0996,-9.2464,-9.2611,-9.1803,0.0,0.0,0.0,0.0,0.0,0.0,0.0,0.0,0.0,0.0,0.0,0.0,0.0,0.0,0.0,-8.5159,-8.4646,-8.3654,-8.3471,-8.4866,-8.5747,-8.3141,-8.3214,-8.3581,-8.2186,-8.2333,-8.281,-8.2994,-8.2737,0.0,0.0,0.0,0.0,0.0,0.0,0.0,0.0,0.0,0.0,0.0,0.0,0.0,0.0,0.0,0.0,0.0,0.0,0.0,0.0,0.0,-8.9711,-8.6811,-8.6371,-8.5196,-8.3141,-8.1966,-8.1452,-8.1631,-8.0821,-8.0872,-8.1736,-8.3025,-8.417,-8.5209,-8.5824,-8.6094,-8.6094,-8.6094,-8.6094,-8.6094,-8.6094,-8.6094,-8.6094,-8.6094,-8.6094,-8.6094,0.0,0.0,0.0,0.0,0.0,0.0,0.0,0.0,0.0,0.0,0.0,0.0,0.0,0.0,0.0,0.0,0.0,0.0,0.0,-7.7604,-7.8566,-7.9899,-8.007,-8.0594,-8.163,-8.4207,-8.6174,-8.7393,-9.0109,-9.1912,-9.2828,-9.2939,-9.2463,-9.162,-9.2647,-9.2574,-9.1767,-9.2721,-9.2611,-9.1803,-9.1803,0.0,0.0,0.0,0.0,0.0,0.0,0.0,0.0,0.0,0.0,0.0,0.0,0.0,-8.4535,-8.4646,-8.4609,-8.4352,-8.3618,-8.5673,-8.7288,-8.4095,-8.4499,-8.538,-8.4535,-8.4389,-8.4646,-8.538,-8.4352,-8.2847,0.0,0.0,0.0,0.0,0.0,0.0,0.0,0.0,0.0,0.0,0.0,0.0,0.0,0.0,0.0,0.0,0.0,0.0,0.0,0.0,0.0,-8.593,-8.4462,-8.3214,-8.2296,-8.0021,-7.9213,-7.9979,-8.026,-8.0858,-8.1745,-8.3044,-8.4478,-8.6017,-8.6055,-8.6094,-8.6094,-8.6094,-8.6094,-8.6094,-8.6094,-8.6094,-8.6094,-8.6094,-8.6094,-8.6094,0.0,0.0,0.0,0.0,0.0,0.0,0.0,0.0,0.0,0.0,0.0,0.0,0.0,0.0,0.0,0.0,0.0,0.0,0.0,-8.0465,-8.1125,-8.1816,-8.1819,-8.2351,-8.3546,-8.5026,-8.7004,-8.9456,-9.2059,-9.3272,-9.3088,-9.3088,-9.2097,-9.0372,-9.1693,-9.184,-9.1106,-9.195,-9.2097,-9.1803,-9.1803,-9.1803,0.0,0.0,0.0,0.0,0.0,0.0,0.0,0.0,-8.6995,-8.6958,-8.6628,-8.6004,-8.5453,-8.5967,-8.5747,-8.527,-8.4976,-8.6151,-8.6921,-8.4719,-8.4976,-8.5967,-8.6664,-8.6848,-8.6775,-8.6591,-8.7252,-8.7252,-8.5123,0.0,0.0,0.0,0.0,0.0,0.0,0.0,0.0,0.0,0.0,0.0,0.0,0.0,0.0,0.0,0.0,0.0,0.0,0.0,0.0,-8.3618,-8.2957,-8.2039,-8.0718,-7.9667,-7.9303,-7.9599,-7.9629,-8.0575,-8.2357,-8.3208,-8.4516,-8.6094,-8.6094,-8.6094,-8.6094,-8.6094,-8.6094,-8.6094,-8.6094,-8.6094,-8.6094,-8.6094,-8.6094,-8.6094,0.0,0.0,0.0,0.0,0.0,0.0,0.0,0.0,0.0,0.0,0.0,0.0,0.0,0.0,0.0,0.0,0.0,0.0,-8.2052,-8.26,-8.2949,-8.3254,-8.3256,-8.3702,-8.4575,-8.5894,-8.8023,-9.0996,-9.3712,-9.4263,-9.2684,-9.2978,-9.206,-9.0188,-9.0776,-9.1033,-9.0996,-9.1033,-9.1033,-9.1033,-9.1033,-9.1033,0.0,0.0,0.0,0.0,0.0,0.0,0.0,0.0,-8.6995,-8.6958,-8.6701,-8.6224,-8.5857,-8.6151,-8.5857,-8.538,-8.5123,-8.5637,-8.593,-8.4572,-8.4829,-8.6114,-8.872,-8.8757,-8.8353,-8.883,-8.883,-8.828,-8.6885,0.0,0.0,0.0,0.0,0.0,0.0,0.0,0.0,0.0,0.0,0.0,0.0,0.0,0.0,0.0,0.0,0.0,0.0,0.0,0.0,0.0,-8.1195,-8.0534,-7.9433,-7.8961,-7.8911,-7.94,-7.9198,-8.0237,-8.2338,-8.3201,-8.4362,-8.5747,-8.5978,-8.6094,-8.6094,-8.6094,-8.6094,-8.6094,-8.6094,-8.6094,-8.6094,-8.6094,-8.6094,-8.6094,0.0,0.0,0.0,0.0,0.0,0.0,0.0,0.0,0.0,0.0,0.0,0.0,0.0,0.0,0.0,0.0,0.0,0.0,-8.2488,-8.3203,-8.3768,-8.4121,-8.4123,-8.4246,-8.4575,-8.6995,-8.9417,-9.1877,-9.5107,-9.4997,-9.1803,-9.2684,-9.2611,-9.1693,-9.0115,-9.0335,-9.1767,-9.0115,-8.9382,-8.9382,-8.9382,-8.9382,-8.9455,0.0,0.0,0.0,0.0,0.0,0.0,0.0,-8.6995,-8.6885,-8.604,-8.5783,-8.5637,-8.4866,-8.4609,-8.4425,-8.3618,-8.3985,-8.4425,-8.3618,-8.4022,-8.5894,-9.0702,-8.9931,-8.9124,-9.2427,-8.861,-8.4903,-8.571,-8.6518,0.0,0.0,0.0,0.0,0.0,0.0,0.0,0.0,0.0,0.0,0.0,0.0,0.0,0.0,0.0,0.0,0.0,0.0,0.0,0.0,-7.9029,-7.8589,-7.8552,-7.7524,-7.7753,-7.9184,-7.899,-7.9801,-8.1461,-8.2932,-8.4093,-8.4939,-8.5747,-8.6094,-8.6094,-8.6094,-8.6094,-8.6094,-8.6094,-8.6094,-8.6094,-8.6094,-8.6094,-8.6094,0.0,0.0,0.0,0.0,0.0,0.0,0.0,0.0,0.0,0.0,0.0,0.0,0.0,0.0,0.0,0.0,0.0,0.0,-8.4414,-8.4892,-8.5191,-8.5294,-8.4746,-8.4776,-8.5416,-8.7802,-9.0262,-9.2721,-9.485,-9.4483,-9.1803,-9.206,-9.1436,-9.0115,-9.0225,-9.0225,-9.0115,-8.9638,-8.9382,-8.9382,-8.9382,-8.9382,-8.9345,0.0,0.0,0.0,0.0,0.0,0.0,0.0,0.0,0.0,-8.6738,-8.6261,-8.5747,-8.549,-8.5049,-8.4425,-8.3618,-8.3985,-8.4535,-8.4315,-8.527,-8.7252,-9.0959,-8.9931,-8.9454,-9.3859,-9.1143,-8.8426,-8.9748,-9.0262,0.0,0.0,0.0,0.0,0.0,0.0,0.0,0.0,0.0,0.0,0.0,0.0,0.0,0.0,0.0,0.0,0.0,0.0,0.0,0.0,-7.8699,-7.8246,-7.7478,-7.7566,-7.7764,-7.8098,-7.9065,-8.04,-8.2067,-8.3121,-8.4093,-8.4939,-8.5747,-8.6094,-8.6094,-8.6094,-8.6094,-8.6094,-8.6094,-8.6094,-8.6094,-8.6094,-8.6094,-8.6094,0.0,0.0,0.0,0.0,0.0,0.0,0.0,0.0,0.0,0.0,-7.9556,-7.9474,0.0,0.0,0.0,0.0,0.0,0.0,0.0,-8.6168,-8.6261,-8.6261,-8.5527,-8.5306,-8.5783,-8.7545,-8.9197,-9.0702,-9.2941,-9.2941,-9.0849,-9.1179,-9.0812,-8.9931,-9.0739,-9.0445,-8.9382,-8.9382,-8.8867,-8.7986,-8.7986,-8.8169,-8.839,0.0,0.0,0.0,0.0,0.0,0.0,0.0,0.0,0.0,-8.6995,-8.6664,-8.6151,-8.549,-8.4976,-8.4352,-8.3251,-8.3287,-8.3801,-8.4425,-8.5343,-8.6738,-8.9307,-9.0776,-9.2574,0.0,-9.3712,-9.1363,-9.2978,-9.2794,0.0,0.0,0.0,0.0,0.0,0.0,0.0,0.0,0.0,0.0,0.0,0.0,0.0,0.0,0.0,0.0,0.0,0.0,0.0,0.0,-7.7965,-7.7408,-7.7,-7.6962,-7.716,-7.7589,-7.8426,-7.9669,-8.1362,-8.2901,-8.3901,-8.4439,-8.5593,-8.6094,-8.6094,-8.6094,-8.6094,-8.6094,-8.6094,-8.6094,-8.6094,-8.6094,-8.6094,-8.6094,0.0,0.0,0.0,0.0,0.0,0.0,0.0,0.0,0.0,0.0,-7.9633,-8.0045,0.0,0.0,0.0,0.0,0.0,0.0,0.0,-8.6885,-8.6921,-8.6995,-8.6297,-8.582,-8.5673,-8.6481,-8.6885,-8.6885,-9.0115,-9.0849,-8.9198,-9.0152,-9.0555,-9.0519,-9.1253,-9.0739,-8.9307,-8.9125,-8.7802,-8.5783,-8.5783,-8.6224,-8.6885,-8.6811,0.0,0.0,0.0,0.0,0.0,0.0,0.0,0.0,-8.6995,-8.6958,-8.6591,-8.5049,-8.4535,-8.4168,-8.2627,-8.226,-8.27,-8.4315,-8.4976,0.0,-8.7325,-9.2244,-9.6869,-9.8264,0.0,-9.3896,-9.5364,0.0,0.0,0.0,0.0,0.0,0.0,0.0,0.0,0.0,0.0,0.0,0.0,0.0,0.0,0.0,0.0,0.0,0.0,0.0,0.0,-7.8479,-7.6998,-7.6454,-7.6957,-7.6042,-7.6221,0.0,-7.7329,-7.8092,-7.9669,-8.2285,-8.3555,-8.3785,-8.5247,-8.594,-8.5978,-8.5978,-8.6017,-8.6094,-8.6094,-8.6094,-8.6094,-8.6094,-8.6094,-8.6094,0.0,0.0,0.0,0.0,0.0,0.0,0.0,0.0,0.0,0.0,0.0,0.0,0.0,0.0,0.0,0.0,0.0,0.0,0.0,-8.604,-8.6334,-8.6995,-8.6848,-8.6151,-8.4903,-8.5637,-8.604,-8.604,-8.9271,-8.9711,-8.7582,-8.9638,-9.0262,-8.9674,-8.9858,-8.9381,-8.839,-8.7105,-8.6261,-8.5783,-8.5783,-8.5894,-8.5967,-8.5343,-8.5527,0.0,0.0,0.0,0.0,0.0,0.0,0.0,-8.6995,-8.6591,-8.5857,-8.4903,-8.4168,-8.3434,-8.248,-8.2663,0.0,0.0,-8.7912,-9.0702,-9.2354,-9.3822,-9.474,-9.4446,-9.5217,0.0,0.0,0.0,0.0,0.0,0.0,0.0,0.0,0.0,0.0,0.0,0.0,0.0,0.0,0.0,0.0,0.0,0.0,0.0,0.0,0.0,0.0,-7.7598,-7.7094,-7.6797,-7.6771,-7.6335,-7.6175,0.0,-7.697,-7.7476,-7.7938,-8.1131,-8.3324,-8.4593,-8.4286,-8.4516,-8.517,-8.517,-8.5517,-8.6094,-8.6094,-8.6094,-8.6094,-8.6094,-8.6094,-8.6094,0.0,0.0,0.0,0.0,0.0,0.0,0.0,0.0,0.0,0.0,0.0,0.0,0.0,0.0,0.0,0.0,0.0,0.0,0.0,0.0,-8.5967,-8.6407,-8.6077,-8.527,-8.4058,-8.4058,-8.4278,-8.4646,-8.6738,-8.7472,-8.7031,-8.828,-8.8867,-8.8867,-8.9638,-8.8904,-8.7031,-8.6958,-8.604,-8.4646,-8.4646,-8.4866,-8.5159,-8.4756,-8.5086,-8.5747,-8.5306,0.0,0.0,0.0,0.0,0.0,0.0,0.0,-8.5637,-8.4829,-8.4022,-8.3251,-8.2406,0.0,0.0,-8.6334,0.0,-9.2427,-9.2501,-9.3455,-9.3932,-9.2721,0.0,0.0,0.0,0.0,0.0,0.0,0.0,0.0,0.0,0.0,0.0,0.0,0.0,0.0,0.0,0.0,0.0,0.0,0.0,0.0,0.0,-7.8038,-7.7378,-7.7273,-7.6347,-7.5945,-7.6135,-7.5492,-7.5243,-7.5399,-7.5822,-7.6899,-7.8554,-8.0746,-8.267,-8.4247,-8.3785,-8.4093,-8.4901,-8.4901,-8.5363,-8.6094,-8.6094,-8.6094,-8.6094,-8.6094,-8.6094,-8.6094,0.0,0.0,0.0,0.0,0.0,0.0,0.0,0.0,0.0,0.0,0.0,0.0,0.0,0.0,0.0,0.0,0.0,0.0,0.0,0.0,0.0,-8.5783,-8.5159,-8.4389,-8.3434,-8.2884,-8.2884,-8.3398,-8.4352,-8.549,-8.6811,-8.7105,-8.7582,-8.8243,-8.9454,-8.85,-8.6077,-8.6995,-8.582,-8.3398,-8.3398,-8.3875,-8.4609,-8.4609,-8.5086,-8.5783,-8.5783,-8.6334,-8.6995,-8.6995,0.0,0.0,0.0,0.0,-8.5637,-8.4829,-8.4022,-8.3251,-8.2406,0.0,-8.4462,-8.7105,-9.0152,0.0,-9.0519,-9.1877,0.0,0.0,0.0,0.0,0.0,0.0,0.0,0.0,0.0,0.0,0.0,0.0,0.0,0.0,0.0,0.0,0.0,0.0,0.0,0.0,0.0,0.0,-7.9103,-7.7231,-7.641,-7.7008,-7.5389,-7.483,-7.5421,-7.439,-7.4063,-7.4514,-7.4784,-7.6553,-7.9631,-8.0477,-8.1785,-8.3362,-8.3208,-8.3747,-8.467,-8.467,-8.5247,-8.6094,-8.6094,-8.6094,-8.6094,-8.6094,-8.6094,-8.6094,0.0,0.0,0.0,0.0,0.0,0.0,0.0,0.0,0.0,0.0,-8.1478,-8.2165,0.0,0.0,0.0,0.0,0.0,0.0,0.0,0.0,0.0,-8.582,-8.571,-8.4939,-8.3434,-8.3985,-8.3985,-8.3398,-8.4903,-8.5747,-8.5967,-8.7399,-8.8096,-8.8169,-8.7692,-8.7252,-8.6738,-8.4866,-8.3801,-8.3398,-8.3398,-8.3875,-8.4609,-8.4609,-8.5086,-8.5783,-8.5783,-8.6334,-8.6995,-8.6995,-8.6995,0.0,0.0,0.0,0.0,-8.4829,-8.4022,-8.3251,0.0,0.0,-8.5563,0.0,0.0,0.0,0.0,0.0,0.0,0.0,0.0,0.0,0.0,0.0,0.0,0.0,0.0,0.0,0.0,0.0,0.0,0.0,0.0,0.0,0.0,0.0,0.0,0.0,0.0,0.0,-7.6644,-7.6276,-7.6059,-7.6,-7.4843,-7.4552,-7.5171,-7.4095,-7.3572,-7.3668,-7.513,-7.6823,-7.8707,-7.9592,-8.09,-8.2439,-8.1747,-8.2324,-8.3747,-8.3747,-8.467,-8.6094,-8.6094,-8.6094,-8.6094,-8.6094,-8.6094,-8.6094,0.0,0.0,0.0,0.0,0.0,0.0,0.0,0.0,0.0,0.0,0.0,-8.27,0.0,0.0,0.0,0.0,0.0,0.0,0.0,0.0,0.0,-8.5159,-8.4682,-8.4352,-8.4095,-8.3985,-8.4205,-8.4756,-8.5453,-8.5783,-8.582,-8.6995,-8.7288,-8.6811,-8.5563,-8.4976,-8.4939,-8.3875,-8.3141,-8.2774,-8.3214,-8.3067,-8.2774,-8.4572,-8.4939,-8.4646,-8.6004,-8.6701,-8.6995,-8.6995,-8.6995,-8.6995,-8.6995,0.0,0.0,0.0,-8.3728,0.0,-8.3398,0.0,0.0,0.0,0.0,0.0,0.0,0.0,0.0,0.0,0.0,0.0,0.0,0.0,0.0,0.0,0.0,0.0,0.0,0.0,0.0,0.0,0.0,0.0,0.0,0.0,0.0,0.0,0.0,-7.6497,-7.613,-7.5249,-7.4863,-7.5128,-7.4085,-7.3807,-7.4406,-7.3346,-7.2783,-7.2783,-7.4976,-7.663,-7.79,-7.9708,-8.0939,-8.1593,-8.1246,-8.2054,-8.3593,-8.3593,-8.4593,-8.6094,-8.6094,-8.6094,-8.6094,-8.6094,-8.6094,-8.6094,0.0,0.0,0.0,0.0,0.0,0.0,0.0,0.0,0.0,0.0,0.0,0.0,0.0,0.0,0.0,0.0,0.0,0.0,0.0,0.0,0.0,0.0,-8.3728,-8.3691,-8.4278,-8.3728,-8.4095,-8.549,-8.571,-8.5894,-8.6114,-8.6518,-8.6701,-8.6628,-8.5049,-8.4315,-8.4315,-8.3875,-8.3581,-8.3361,-8.2737,-8.2003,-8.1525,-8.3508,-8.3654,-8.3141,-8.5527,-8.6407,-8.6444,-8.6885,-8.6995,-8.6995,-8.6995,0.0,0.0,0.0,0.0,0.0,0.0,0.0,0.0,0.0,0.0,0.0,0.0,0.0,0.0,0.0,0.0,0.0,0.0,0.0,0.0,0.0,0.0,0.0,0.0,0.0,0.0,0.0,0.0,0.0,0.0,0.0,0.0,0.0,0.0,-7.5909,-7.5506,-7.4331,-7.3841,-7.4188,-7.3199,-7.2828,-7.311,-7.2101,-7.1783,-7.2206,-7.4784,-7.6476,-7.74,-7.9939,-8.1093,-8.1093,-8.1093,-8.1939,-8.3247,-8.3247,-8.4132,-8.5478,-8.5709,-8.5786,-8.5824,-8.6017,-8.6094,-8.6094,0.0,0.0,0.0,0.0,0.0,0.0,0.0,0.0,0.0,0.0,0.0,0.0,-8.2186,-8.2186,-8.2517,-8.3287,-8.4058,0.0,0.0,0.0,0.0,0.0,0.0,0.0,-8.3471,-8.3434,-8.3838,-8.4646,-8.5416,-8.6187,-8.6921,-8.6187,-8.7068,-8.9125,-8.7545,-8.6811,-8.6738,-8.5196,-8.538,-8.6371,-8.1819,-8.0828,-8.1966,-8.0608,-8.0534,-8.1452,-8.3875,-8.4719,-8.4976,-8.6518,-8.6995,-8.6995,-8.6995,-8.5894,-8.4609,0.0,0.0,0.0,0.0,0.0,0.0,0.0,0.0,0.0,0.0,0.0,0.0,0.0,0.0,0.0,0.0,0.0,0.0,0.0,0.0,0.0,0.0,0.0,0.0,0.0,0.0,0.0,0.0,0.0,0.0,0.0,0.0,-7.5432,-7.3891,-7.3744,-7.3505,-7.3091,-7.2208,-7.1523,-7.1049,-7.0231,-7.0629,-7.2206,-7.4784,-7.6476,-7.74,-7.9939,-8.1093,-8.1093,-8.1093,-8.1593,-8.2362,-8.2362,-8.2901,-8.3785,-8.4632,-8.4978,-8.5055,-8.5824,-8.6094,-8.6094,0.0,0.0,0.0,0.0,0.0,0.0,0.0,0.0,0.0,0.0,0.0,0.0,0.0,-8.1893,-8.2113,-8.1893,-8.3067,0.0,0.0,0.0,0.0,0.0,0.0,0.0,-8.4168,-8.3654,-8.4058,-8.538,-8.5123,-8.4903,-8.4719,-8.4939,-8.5233,-8.5492,-8.4976,-8.527,-8.6077,-8.3948,-8.3691,-8.4499,-8.2223,-8.1048,-8.0681,-8.1158,-8.0865,-8.0534,-8.2957,-8.4499,-8.5453,-8.604,-8.6591,-8.6921,-8.6407,-8.549,-8.4315,-8.2737,0.0,0.0,0.0,0.0,0.0,0.0,0.0,0.0,0.0,0.0,0.0,0.0,0.0,0.0,0.0,0.0,0.0,0.0,0.0,0.0,0.0,0.0,0.0,0.0,0.0,0.0,0.0,0.0,0.0,0.0,0.0,0.0,-7.3707,-7.2716,-7.2421,-7.2984,-7.1099,-6.9833,-6.9308,-6.9013,-6.9706,-7.1398,-7.3437,-7.5438,-7.7361,-7.9361,-8.0285,-8.0285,-8.0285,-8.1054,-8.2285,-8.2285,-8.2824,-8.367,-8.4555,-8.4901,-8.5016,-8.5786,-8.6094,-8.6094,0.0,0.0,0.0,0.0,0.0,0.0,0.0,0.0,-8.2113,-8.1819,0.0,0.0,0.0,0.0,-8.1672,-8.1415,-8.237,-8.2994,-8.2994,-8.2737,0.0,0.0,0.0,0.0,-8.4572,-8.3838,-8.4058,-8.538,-8.4609,-8.4058,-8.3838,-8.4352,-8.4609,-8.4572,-8.3471,-8.4205,-8.604,-8.3911,-8.3618,-8.4425,-8.1966,-8.0681,-8.0277,-8.1085,-8.0718,-8.0094,-8.2553,-8.4095,-8.4976,-8.4976,-8.5343,-8.571,-8.5159,-8.4425,-8.3434,-8.1562,-8.1379,0.0,-8.1782,0.0,0.0,0.0,0.0,0.0,0.0,0.0,0.0,0.0,0.0,0.0,0.0,0.0,0.0,0.0,0.0,0.0,0.0,0.0,0.0,0.0,0.0,0.0,0.0,0.0,0.0,0.0,0.0,0.0,-7.2936,-7.1872,-7.1353,-7.1494,-6.9549,-6.8384,-6.8129,-6.8024,-6.8936,-7.0937,-7.2937,-7.5091,-7.7361,-7.9054,-7.9823,-7.9785,-7.9477,-8.0015,-8.1016,-8.1016,-8.1554,-8.2401,-8.3285,-8.3978,-8.4555,-8.5401,-8.5863,-8.6094,0.0,0.0,0.0,0.0,0.0,0.0,0.0,0.0,-8.1893,-8.1085,0.0,0.0,0.0,0.0,0.0,-8.2113,-8.2186,-8.2186,-8.2186,-8.1489,0.0,0.0,0.0,0.0,-8.4572,-8.3838,-8.3801,-8.4609,-8.3765,-8.3765,-8.4535,-8.4535,-8.538,-8.6738,-8.3581,-8.3911,-8.6738,-8.5123,-8.538,-8.6407,-8.0865,-7.9617,-8.0901,-8.0094,-7.9764,-8.0057,-8.2443,-8.3324,-8.3361,-8.3361,-8.3398,-8.3434,-8.3434,-8.2847,-8.2003,-8.1195,-8.0975,-8.1012,0.0,0.0,0.0,0.0,0.0,0.0,0.0,0.0,0.0,0.0,0.0,0.0,0.0,0.0,0.0,0.0,0.0,0.0,0.0,0.0,0.0,0.0,0.0,0.0,0.0,0.0,0.0,0.0,0.0,-7.2936,-7.1366,-7.1248,-7.0327,-6.845,-6.755,-6.7222,-6.7518,-6.7222,-6.8359,-7.0937,-7.3399,-7.5553,-7.7361,-7.8977,-7.9746,-7.9669,-7.8823,-7.8438,-7.84,-7.8477,-7.9015,-7.99,-8.0746,-8.2131,-8.3708,-8.4593,-8.5401,-8.6094,0.0,0.0,0.0,0.0,0.0,0.0,-8.1305,-8.1342,-8.1048,0.0,0.0,0.0,-7.9029,-7.9653,-8.0681,-8.2076,-8.2186,-8.2186,-8.2186,-8.2003,-8.1966,-8.2186,-8.2994,-8.3801,-8.4572,-8.3838,-8.3801,-8.4609,-8.3214,-8.2663,-8.2847,-8.2847,-8.3104,-8.3471,-8.259,-8.237,-8.259,-8.1562,-8.2039,-8.3324,-8.1195,-8.0608,-8.0901,-8.0094,-7.9433,-7.9103,-8.0351,-8.1525,-8.2517,-8.2517,-8.3324,-8.4168,-8.3581,-8.2443,-8.1158,-8.0351,-8.0534,-8.0865,-8.0277,0.0,0.0,0.0,0.0,0.0,0.0,0.0,0.0,0.0,0.0,0.0,0.0,0.0,0.0,0.0,0.0,0.0,0.0,0.0,0.0,0.0,0.0,0.0,0.0,0.0,0.0,0.0,-7.2092,-7.1174,-7.1321,-6.998,-6.8208,-6.588,-6.6307,-6.633,-6.5801,-6.6071,-6.7782,-7.0898,-7.1629,-7.3822,-7.7323,-7.7784,-7.7977,-7.7977,-7.7746,-7.6899,-7.5899,-7.7746,-7.9015,-7.99,-8.0746,-8.2131,-8.3708,-8.4593,-8.5401,-8.6017,0.0,0.0,0.0,0.0,0.0,0.0,-8.0938,-8.0718,-8.0204,0.0,0.0,0.0,-7.8589,-8.0204,-8.1525,-8.215,-8.2186,-8.2186,-8.2186,-8.2186,-8.2333,-8.27,-8.3801,-8.4609,-8.5086,-8.4315,-8.4132,-8.4609,-8.2994,-8.2186,-8.2186,-8.1856,-8.1709,-8.1672,-8.1012,-8.0424,-7.9984,-7.9507,-8.0424,-8.2113,-8.1342,-8.1415,-8.1929,-8.1085,-8.0718,-8.0608,-8.0755,-8.1599,-8.259,-8.1929,-8.2333,-8.2847,-8.1342,-8.0938,-8.0791,-7.9617,-8.0094,-8.0828,-8.0021,-8.0975,-8.2113,0.0,0.0,0.0,0.0,-7.8883,0.0,0.0,0.0,0.0,0.0,0.0,0.0,0.0,0.0,0.0,0.0,0.0,0.0,0.0,0.0,0.0,0.0,0.0,0.0,-7.3193,-7.1578,-7.0367,-6.9816,-6.8,-6.6313,-6.4838,-6.5499,-6.5595,-6.5099,-6.5649,-6.759,-7.0898,-7.1283,-7.3514,-7.7284,-7.7284,-7.7092,-7.6746,-7.6361,-7.5438,-7.4361,-7.6169,-7.763,-7.8823,-7.9669,-8.1477,-8.367,-8.417,-8.4901,-8.5517,0.0,0.0,0.0,0.0,0.0,0.0,-8.0755,-8.0167,-7.936,0.0,-7.7892,-7.7855,-7.8883,-8.1562,-8.3067,-8.2517,-8.248,-8.248,-8.248,-8.248,-8.2774,-8.3508,-8.4976,-8.5783,-8.5783,-8.5013,-8.4609,-8.4609,-8.2994,-8.2186,-8.2186,-8.1489,-8.1085,-8.0938,-7.9507,-7.8809,-7.8736,-7.8919,-8.0241,-8.215,-8.1415,-8.2039,-8.3324,0.0,-8.259,-8.3067,-8.2333,-8.2517,-8.292,-8.1489,-8.0901,-8.0388,-7.8338,-7.8993,-8.0241,-7.9176,-7.9764,-8.0608,-8.0057,-8.1048,-8.2039,-8.1305,0.0,0.0,-7.7304,-7.7121,-7.7378,0.0,0.0,0.0,0.0,0.0,0.0,0.0,0.0,0.0,0.0,0.0,0.0,0.0,0.0,0.0,0.0,-7.4735,-7.4074,-7.2716,-7.1651,-6.9963,-6.743,-6.5668,-6.4696,-6.4652,-6.4914,-6.5051,-6.5099,-6.5726,-6.7628,-7.0783,-7.1629,-7.3745,-7.6861,-7.6861,-7.6476,-7.5668,-7.4899,-7.4168,-7.3591,-7.4476,-7.5822,-7.7361,-7.8169,-8.0516,-8.3439,-8.3439,-8.4016,-8.4747,0.0,0.0,0.0,0.0,0.0,0.0,-7.9984,-7.936,-7.8516,-7.7671,-7.8038,-7.914,-8.1269,-8.2039,-8.2884,-8.4022,-8.4132,-8.4132,-8.4132,-8.4132,-8.4205,-8.4352,-8.527,-8.5783,-8.5783,-8.5013,-8.4609,-8.4609,-8.2994,-8.2186,-8.2186,-8.2039,-8.1636,-8.1012,-8.0681,-8.0167,-7.9653,-8.0938,0.0,-8.2186,-8.2039,-8.2553,-8.3324,-8.2517,-8.1893,-8.1452,-8.1305,-8.1342,-8.1415,-8.1122,-8.0131,-7.9213,0.0,0.0,0.0,-7.9837,-7.9837,-7.9323,-8.0461,-8.1452,-8.215,0.0,0.0,0.0,-8.0057,-7.9653,-7.925,0.0,0.0,0.0,0.0,0.0,0.0,0.0,0.0,0.0,0.0,0.0,0.0,0.0,0.0,0.0,0.0,-7.3744,-7.312,-7.345,-7.0917,-6.8017,-6.4971,-6.4437,-6.4105,-6.3832,-6.4273,-6.4713,-6.5099,-6.6263,-6.7898,-6.9937,-7.0744,-7.2245,-7.4245,-7.4245,-7.4168,-7.3976,-7.3822,-7.3668,-7.363,-7.513,-7.6361,-7.7361,-7.8169,-8.0169,-8.2554,-8.2554,-8.3093,-8.3747,0.0,0.0,0.0,0.0,0.0,0.0,0.0,-7.8479,-7.7965,-7.7965,-7.9396,-8.0681,-8.1525,-8.303,-8.4315,-8.5123,-8.5196,-8.5196,-8.5196,-8.5196,-8.5196,-8.5196,-8.5967,-8.6407,-8.6407,-8.56,-8.5013,-8.4609,-8.3398,-8.259,-8.2186,-8.1782,-8.1158,-8.0388,-8.0388,-7.9947,-7.9323,-8.1342,-8.2443,-8.281,-8.281,0.0,-8.3287,-8.2076,-8.1599,-8.1562,-8.1158,-8.1269,-8.1342,-7.9727,-7.9433,0.0,-7.7855,-7.7047,-7.7047,0.0,-7.8883,-7.8956,0.0,0.0,0.0,-8.1709,0.0,0.0,0.0,-7.98,0.0,0.0,0.0,0.0,0.0,0.0,0.0,0.0,0.0,0.0,0.0,0.0,0.0,0.0,0.0,0.0,0.0,-7.312,-7.2753,-7.1945,-6.8935,-6.6402,-6.4787,-6.3906,-6.3611,-6.3995,-6.4236,-6.4769,-6.5475,-6.655,-6.7975,-6.9706,-7.0514,-7.1822,-7.3514,-7.3514,-7.3283,-7.286,-7.286,-7.286,-7.2937,-7.4245,-7.5745,-7.74,-7.8669,-8.0439,-8.2285,-8.2285,-8.2593,-8.2901,-8.1012,-8.0351,0.0,0.0,0.0,0.0,0.0,0.0,-7.7671,-7.8699,-8.0534,-8.1599,-8.1269,-8.3398,-8.5196,-8.5967,-8.5159,-8.5086,-8.6187,-8.5673,-8.5343,-8.5343,-8.6554,-8.7031,-8.6554,-8.6187,-8.5637,-8.4829,-8.3875,-8.3067,-8.2406,-8.1599,-8.0865,-8.0241,-8.0094,-7.9837,-7.9653,-8.1599,0.0,-8.3214,0.0,-8.3654,-8.3471,-8.1856,-8.1636,-8.2113,-8.1452,-8.1636,-8.1746,-7.8772,-7.9029,-7.9837,-7.5873,-7.5542,0.0,0.0,0.0,0.0,0.0,0.0,0.0,0.0,0.0,-8.1305,0.0,0.0,0.0,0.0,0.0,0.0,0.0,0.0,0.0,0.0,0.0,0.0,0.0,0.0,0.0,0.0,0.0,0.0,0.0,-7.2496,-7.2312,-7.0036,-6.732,-6.5558,-6.5081,-6.3649,-6.3271,-6.4351,-6.4389,-6.4871,-6.5897,-6.6859,-6.8052,-6.9475,-7.0437,-7.1629,-7.3014,-7.3014,-7.2629,-7.1937,-7.1937,-7.2129,-7.2514,-7.3399,-7.513,-7.7438,-7.8784,-8.0323,-8.1823,-8.1823,-8.1823,-8.1823,-8.1012,-8.0351,-7.958,0.0,0.0,0.0,0.0,0.0,-7.7892,-7.9433,-7.9874,-8.0571,-8.1929,-8.1746,-8.2994,-8.6554,-8.2957,-8.259,-8.7582,-8.527,-8.3691,-8.3691,-8.6481,-8.7068,-8.4939,-8.6187,-8.6481,-8.5637,-8.4132,-8.3361,-8.3251,-8.2443,-8.2003,-8.1893,-8.1195,-8.1599,-8.2884,0.0,-8.292,0.0,-8.3875,-8.4462,0.0,-8.2663,-8.2113,-8.2186,-8.2113,-8.2113,-8.1929,0.0,-7.9213,-7.8772,0.0,-7.624,-7.4808,-7.8442,0.0,0.0,0.0,0.0,0.0,0.0,-8.0534,0.0,0.0,0.0,0.0,0.0,0.0,0.0,0.0,0.0,0.0,0.0,0.0,0.0,0.0,0.0,0.0,0.0,0.0,0.0,0.0,0.0,-7.0881,-6.9155,-6.8017,-6.6476,-6.4347,-6.3319,-6.3271,-6.4351,-6.4389,-6.4871,-6.5897,-6.7475,-6.8359,-6.8577,-7.0167,-7.1014,-7.1206,-7.1206,-7.1129,-7.1052,-7.1052,-7.1937,-7.3437,-7.4245,-7.563,-7.7323,-7.7515,-7.8592,-8.0092,-8.0092,-8.0092,-8.0208,-8.0828,-7.958,-7.8259,0.0,0.0,0.0,0.0,0.0,-7.8993,-7.969,-8.0204,-8.1305,-8.3361,-8.2884,-8.3471,-8.6077,-8.4022,-8.3581,-8.5967,-8.4866,-8.4535,-8.5453,-8.7215,-8.7729,-8.6701,-8.7362,-8.7068,-8.5783,-8.5123,-8.4315,-8.3398,-8.3067,-8.2406,-8.1525,-8.1636,0.0,-8.1415,0.0,-8.2957,0.0,0.0,0.0,0.0,-8.2443,-8.2186,-8.2186,-8.2186,-8.2186,-8.1929,0.0,-7.9874,0.0,0.0,0.0,0.0,0.0,0.0,0.0,0.0,0.0,0.0,0.0,0.0,0.0,-8.1452,0.0,-8.1782,0.0,0.0,0.0,0.0,0.0,0.0,0.0,0.0,0.0,0.0,0.0,0.0,0.0,0.0,0.0,0.0,0.0,0.0,0.0,0.0,-6.611,-6.4581,-6.3407,-6.3271,-6.4351,-6.4389,-6.4871,-6.5897,-6.7552,-6.8385,-6.8436,-7.009,-7.0898,-7.0898,-7.0898,-7.0898,-7.0898,-7.0898,-7.1591,-7.2783,-7.3091,-7.4553,-7.6515,-7.5976,-7.713,-7.9054,-7.9054,-7.9361,-7.9862,-7.9764,-7.8002,-7.646,-7.69,0.0,0.0,0.0,0.0,-7.8956,-7.9396,-7.9984,-8.1195,-8.3361,-8.3287,-8.3911,-8.593,-8.4792,-8.4205,-8.4903,-8.4535,-8.4389,-8.4682,-8.6958,-8.7692,-8.6591,-8.7619,-8.7399,-8.5783,-8.5783,-8.5086,-8.3728,-8.3508,-8.281,-8.1672,-8.1819,-8.1342,-8.0534,0.0,-8.2406,-8.1856,-8.1856,-8.1746,-8.1525,-8.1525,-8.1672,-8.1819,-8.1599,-8.1672,-8.1636,-7.9984,-7.9837,0.0,-7.7268,0.0,0.0,0.0,0.0,0.0,-8.0608,0.0,0.0,0.0,0.0,0.0,0.0,0.0,0.0,0.0,0.0,0.0,0.0,0.0,0.0,0.0,0.0,0.0,0.0,0.0,0.0,0.0,0.0,0.0,0.0,0.0,0.0,0.0,-6.8189,-6.6416,-6.5079,-6.3739,-6.3483,-6.4554,-6.4463,-6.5002,-6.6205,-6.7667,-6.8513,-6.8783,-7.0206,-7.0898,-7.0898,-7.0898,-7.0898,-7.0898,-7.0898,-7.1398,-7.2206,-7.2206,-7.3553,-7.5592,-7.4938,-7.5976,-7.7823,-7.8092,-7.8554,-7.9169,-7.7384,-7.5469,-7.4294,-7.5873,0.0,0.0,0.0,0.0,0.0,-7.8442,-7.8662,-7.9286,-8.0938,-8.1782,-8.3508,-8.6701,-8.4095,-8.3251,-8.56,-8.4315,-8.2076,-7.8993,-8.4866,-8.6371,-8.248,-8.6224,-8.7399,-8.5783,-8.5783,-8.538,-8.4535,-8.3765,-8.3398,-8.3287,-8.1746,-8.1452,-8.2076,-8.1379,-8.1048,-8.1048,-8.1048,-8.0571,-7.9874,0.0,-8.0351,-8.0938,-8.0167,0.0,0.0,-7.9176,-7.8662,0.0,0.0,0.0,0.0,0.0,0.0,0.0,0.0,0.0,0.0,-8.0608,0.0,0.0,0.0,0.0,-8.1048,0.0,0.0,0.0,0.0,0.0,0.0,0.0,0.0,0.0,0.0,0.0,0.0,0.0,0.0,0.0,0.0,0.0,0.0,-7.1857,-7.016,-6.8141,-6.5708,-6.4299,-6.4039,-6.5051,-6.4626,-6.5268,-6.7051,-6.7936,-6.8821,-6.9667,-7.0514,-7.0898,-7.0898,-7.0898,-7.0898,-7.0898,-7.0898,-7.1398,-7.2206,-7.2206,-7.3206,-7.4745,-7.4707,-7.5284,-7.6169,-7.7015,-7.7361,-7.7592,-7.4918,-7.2973,-7.1982,-7.4147,-7.4037,0.0,0.0,-7.7488,0.0,0.0,-8.1893,0.0,0.0,-8.6811,-8.7619,0.0,0.0,-8.6885,-8.6628,-8.56,0.0,-8.3398,-8.5453,-8.5967,-8.4609,-8.593,-8.6077,-8.5013,-8.5013,-8.4866,-8.4572,-8.3801,-8.3691,-8.4132,0.0,-8.1636,0.0,0.0,0.0,0.0,0.0,-7.925,-7.9066,0.0,0.0,-8.0167,-7.9874,-7.9947,0.0,-7.958,-7.9029,-7.8552,-7.8259,-7.7965,-7.7818,-7.8075,-7.8332,0.0,0.0,0.0,-7.9507,-8.0057,0.0,0.0,0.0,0.0,0.0,0.0,0.0,0.0,0.0,0.0,0.0,0.0,0.0,0.0,0.0,0.0,0.0,0.0,0.0,0.0,0.0,0.0,0.0,-7.054,-6.924,-6.7692,0.0,-6.4341,-6.4059,-6.5083,-6.4971,-6.5581,-6.709,-6.7975,-6.8859,-6.9706,-7.0514,-7.0898,-7.0898,-7.0898,-7.0898,-7.0898,-7.0898,-7.1052,-7.1321,-7.1321,-7.2014,-7.3053,-7.3053,-7.3899,-7.5245,-7.613,-7.6784,-7.7553,-7.3744,-7.2459,-7.1872,-7.3413,-7.3707,0.0,0.0,0.0,0.0,0.0,-8.3838,0.0,-8.8683,0.0,-9.0482,0.0,-9.1106,-8.9858,-8.6775,-8.7142,0.0,-8.4168,-8.5453,-8.5563,-8.4132,-8.4939,-8.4682,-8.3324,0.0,-8.4609,0.0,0.0,0.0,-8.4535,0.0,-8.1452,-8.0167,0.0,-7.9617,0.0,0.0,-7.8405,0.0,0.0,-7.9286,-7.969,0.0,-7.8919,-7.8883,-7.8589,-7.8148,-7.7708,-7.7708,-7.7928,-7.8148,-7.8148,-7.8295,-7.8552,-7.8809,-7.8919,0.0,-7.9286,-7.9984,0.0,-8.0938,0.0,0.0,0.0,0.0,0.0,0.0,0.0,0.0,0.0,0.0,0.0,0.0,0.0,0.0,0.0,0.0,0.0,0.0,0.0,-7.4208,-7.0535,-6.9677,-6.8281,0.0,0.0,-6.4576,-6.5083,-6.4954,-6.5503,-6.6825,-6.787,-6.8859,-6.9706,-7.0514,-7.0898,-7.0898,-7.0898,-7.0898,-7.0898,-7.0898,-7.0898,-7.0898,-7.0898,-7.1398,-7.2206,-7.2206,-7.3206,-7.4784,-7.5322,-7.6476,-7.7861,-7.3707,-7.367,-7.378,-7.3854,-7.3891,0.0,0.0,0.0,-8.0571,0.0,-8.4572,-8.6775,-8.839,-9.0665,-9.206,-9.2024,-9.3455,-9.2024,-8.6554,-8.9014,0.0,0.0,-8.4939,-8.5123,-8.1195,0.0,-8.3398,-8.1048,0.0,0.0,0.0,0.0,0.0,0.0,-8.2884,0.0,-7.8662,-7.9396,-7.8772,-7.731,-7.8185,-7.8038,-7.7273,-7.7237,-7.8222,-7.9396,-7.7818,-7.72,-7.7053,-7.635,-7.6056,-7.6056,-7.613,-7.668,-7.7237,-7.7273,-7.6754,-7.6276,-7.7017,-7.72,-7.7414,-7.8253,0.0,0.0,0.0,0.0,-8.1074,0.0,0.0,0.0,0.0,0.0,0.0,0.0,0.0,0.0,0.0,0.0,0.0,0.0,0.0,0.0,0.0,-7.7149,-7.589,-7.1755,-7.1242,-6.9718,0.0,0.0,-6.5477,-6.5207,-6.4772,-6.5209,-6.6618,-6.7836,-6.8936,-6.9821,-7.0552,-7.0898,-7.0898,-7.0898,-7.0898,-7.0898,-7.0898,-7.0898,-7.0898,-7.0898,-7.1398,-7.2129,-7.2168,-7.3206,-7.4707,-7.4745,-7.6361,-7.8477,-7.1982,-7.3377,-7.4992,-7.6166,-7.6387,-7.6827,0.0,0.0,0.0,0.0,-8.8573,-9.184,-9.3455,-9.4189,-9.4813,-9.5401,-9.529,0.0,0.0,0.0,0.0,-8.6518,-8.6187,-8.5049,-8.2847,-8.3398,-8.3104,-8.1893,0.0,0.0,-8.3691,0.0,0.0,0.0,0.0,0.0,-7.8589,-7.8809,-7.7928,-7.6497,-7.7304,-7.7494,0.0,0.0,-7.668,-7.6974,-7.657,-7.6019,-7.5579,-7.5983,-7.5689,-7.5432,-7.6607,-7.6717,-7.6533,-7.7127,-7.6754,-7.6166,-7.635,-7.5983,-7.5662,-7.6347,-7.7599,-7.8815,0.0,0.0,0.0,0.0,0.0,0.0,0.0,0.0,0.0,0.0,0.0,0.0,0.0,0.0,0.0,0.0,0.0,0.0,0.0,-7.6782,-7.5107,-7.1937,-6.9751,-6.8188,0.0,0.0,0.0,-6.6559,-6.649,-6.7487,-6.9721,-6.9511,-7.009,-7.1552,-7.1091,-7.0898,-7.0898,-7.0898,-7.0898,-7.0898,-7.0898,-7.0898,-7.0898,-7.0898,-7.1014,-7.1283,-7.1937,-7.3206,-7.4784,-7.5438,-7.6861,-7.8477,-7.0917,-7.2716,-7.4992,-7.6943,0.0,0.0,-8.0534,-8.2039,0.0,-8.5563,-8.9124,0.0,-9.2758,-9.4446,-9.5694,-9.6135,-9.6098,0.0,-9.3308,0.0,0.0,-8.7839,-8.7142,-8.56,-8.292,-8.2186,0.0,-8.1158,0.0,0.0,-8.3398,0.0,0.0,0.0,0.0,-7.9984,0.0,-7.7268,-7.7047,-7.7157,-7.69,0.0,0.0,-7.5873,-7.5139,-7.4478,-7.4147,-7.4147,-7.4404,-7.4478,-7.4698,-7.5065,-7.5953,-7.6203,-7.6203,-7.6644,-7.5946,-7.4955,-7.4625,-7.4638,-7.4756,-7.4741,-7.6429,-7.8304,-7.8968,-8.0364,-8.1777,0.0,0.0,0.0,0.0,0.0,0.0,0.0,0.0,0.0,0.0,0.0,0.0,0.0,0.0,0.0,0.0,-7.6564,-7.4329,-7.1295,-6.9901,0.0,0.0,0.0,0.0,-6.6768,-6.6782,-6.7664,-6.9428,-6.9624,-7.0167,-7.1091,-7.0975,-7.0898,-7.0898,-7.0898,-7.0898,-7.0898,-7.0898,-7.0898,-7.0898,-7.0898,-7.0898,-7.1014,-7.2283,-7.3553,-7.4861,-7.6092,-7.74,-7.8554,0.0,0.0,0.0,0.0,0.0,0.0,0.0,-8.2737,0.0,-8.5747,0.0,-9.0041,-9.0041,-9.3125,-9.5254,-9.5327,0.0,-9.5034,-9.217,-9.3235,-9.1987,-8.7509,-8.7802,-8.6297,-8.259,-8.0718,-7.9837,0.0,0.0,0.0,0.0,0.0,0.0,0.0,0.0,0.0,0.0,-7.5506,-7.6093,0.0,-7.6497,-7.5946,-7.5836,-7.4955,-7.367,-7.2239,-7.1321,-7.2018,-7.3303,-7.2716,-7.3523,-7.4771,-7.4882,-7.5418,-7.6059,-7.6059,-7.5043,-7.3802,-7.3074,-7.3723,-7.4412,-7.3789,-7.5756,-7.8066,-7.8851,-8.0304,-8.171,-8.2435,-8.294,-8.3054,0.0,0.0,0.0,0.0,0.0,0.0,0.0,0.0,0.0,0.0,0.0,0.0,0.0,0.0,0.0,0.0,0.0,0.0,0.0,0.0,0.0,-6.6602,-6.6726,0.0,-6.8143,0.0,-7.0102,-7.0239,-7.0679,-7.0898,-7.0898,-7.0898,-7.0898,-7.0898,-7.0898,-7.0898,-7.0898,-7.0898,-7.1014,-7.1398,-7.3014,-7.4168,-7.5091,-7.6823,-7.79,-7.8631,0.0,0.0,0.0,0.0,0.0,-8.1782,-8.4058,-8.6407,-8.7912,-8.7802,-9.1069,-9.3418,-9.3418,-9.3492,-9.3786,-9.4446,-9.4042,0.0,0.0,0.0,0.0,-8.9087,-8.7839,-8.6261,-8.4205,-8.1305,-8.0131,0.0,0.0,0.0,0.0,0.0,0.0,0.0,0.0,0.0,-7.5322,-7.5028,0.0,-7.4588,-7.4955,-7.5139,-7.4955,-7.3487,-7.2349,-7.1321,-6.9853,-7.0367,-7.1798,-7.2312,-7.312,-7.4037,-7.4698,-7.5326,-7.5861,-7.5861,-7.5533,-7.5159,-7.5009,-7.4688,-7.44,-7.473,-7.6274,-7.7894,-7.848,-8.0433,-8.2172,-8.2326,-8.193,-8.1708,-8.2208,0.0,0.0,0.0,0.0,0.0,0.0,0.0,0.0,0.0,0.0,0.0,0.0,0.0,0.0,0.0,0.0,0.0,0.0,0.0,0.0,0.0,-6.8531,0.0,0.0,0.0,-7.2225,-7.308,-7.1611,-7.0898,-7.0898,-7.0898,-7.0898,-7.0898,-7.0898,-7.0898,-7.0898,-7.0898,-7.1745,-7.3129,-7.413,-7.5014,-7.5976,-7.7669,-7.8361,-7.8631,0.0,0.0,0.0,0.0,0.0,0.0,0.0,-8.7252,0.0,-8.7692,-8.9307,-9.0519,-9.0519,-9.1657,-9.2427,-9.2391,-9.2391,-9.2244,-9.184,-9.14,-9.0262,-8.8243,-8.7435,-8.6077,-8.4022,-7.9984,-7.8919,-8.1012,0.0,0.0,0.0,0.0,0.0,0.0,0.0,-7.6864,0.0,0.0,0.0,-7.4918,-7.4441,-7.4037,-7.3523,-7.2349,-7.1138,-6.9963,-6.9192,-6.9669,-7.0734,-7.1138,-7.2606,-7.4353,-7.4681,-7.5224,-7.569,-7.5145,-7.4951,-7.4708,-7.384,-7.4127,-7.4789,-7.5054,-7.6641,-7.8316,-7.9008,-8.0477,-8.167,-8.167,-8.1016,-8.0285,-7.9785,-7.8707,0.0,0.0,0.0,0.0,0.0,0.0,0.0,0.0,0.0,0.0,0.0,0.0,0.0,0.0,0.0,0.0,0.0,0.0,0.0,0.0,0.0,0.0,0.0,0.0,0.0,-7.293,-7.1283,-7.0637,-7.0898,-7.0898,-7.0898,-7.0898,-7.0898,-7.0898,-7.0937,-7.1398,-7.2591,-7.4168,-7.4553,-7.5245,-7.6207,-7.7861,-7.8477,-7.8669,0.0,-7.2606,0.0,0.0,-8.0865,0.0,-8.5233,-8.6921,-8.7839,-8.7545,-8.7509,-8.7582,-8.7766,-8.9858,-9.1033,-9.0408,-9.0922,-9.0959,-9.0152,-8.9931,-8.8904,-8.6848,-8.6444,-8.5343,-8.3471,-7.8589,-7.7451,0.0,0.0,0.0,0.0,0.0,0.0,0.0,0.0,0.0,0.0,0.0,-7.3744,-7.5212,-7.3964,-7.3083,-7.2386,-7.1431,-7.0146,-6.8898,-6.8898,-6.9412,-7.011,-7.011,-7.2018,-7.4375,-7.4349,-7.4884,-7.5334,-7.4611,-7.4509,-7.4384,-7.3039,-7.3972,-7.5327,-7.5591,-7.7067,-7.8669,-7.9361,-8.0208,-8.0785,-8.0592,-7.9862,-7.8746,-7.7053,-7.7284,0.0,0.0,0.0,0.0,0.0,0.0,0.0,0.0,0.0,0.0,0.0,0.0,0.0,0.0,0.0,0.0,0.0,0.0,0.0,0.0,0.0,-7.2083,-7.3376,0.0,-7.2078,0.0,-7.1006,-7.0494,-7.0898,-7.0898,-7.0898,-7.0898,-7.0898,-7.1014,-7.1245,-7.2283,-7.3514,-7.4707,-7.4899,-7.5399,-7.6207,-7.7861,-7.8477,-7.8746,0.0,0.0,0.0,0.0,0.0,0.0,-8.4682,-8.6077,-8.7619,-8.8978,-8.9162,-8.9454,-9.0188,-8.9895,-8.9601,-8.9492,-8.9565,-8.9307,-8.85,-8.7766,-8.6921,-8.593,-8.4535,-8.3654,-8.3398,-7.8589,-7.6607,0.0,0.0,0.0,0.0,0.0,0.0,0.0,0.0,0.0,0.0,-7.3083,-7.3303,-7.2826,-7.2679,-7.2569,-7.2349,-7.0807,-6.9669,-6.8898,-6.8898,-6.9412,-7.011,-7.011,-7.1284,-7.2822,-7.3372,-7.3958,-7.4503,-7.4924,-7.5413,-7.5833,-7.5641,-7.5748,-7.6109,-7.6893,-7.7808,-7.853,-7.8592,-7.9285,-7.9708,-7.89,-7.8092,-7.7015,-7.5245,-7.5014,-7.5014,0.0,0.0,0.0,0.0,0.0,0.0,0.0,0.0,0.0,0.0,0.0,0.0,0.0,0.0,0.0,0.0,0.0,0.0,-7.0288,0.0,-7.3188,-7.3027,-7.3215,-7.343,-7.3621,-7.172,-7.0871,-7.0898,-7.0898,-7.0898,-7.0898,-7.0898,-7.136,-7.2206,-7.3822,-7.4553,-7.4784,-7.5553,-7.5938,-7.6207,-7.7861,-7.8477,-7.8746,0.0,0.0,0.0,0.0,0.0,0.0,0.0,-8.5967,-8.7252,-8.7876,-8.839,-8.8793,-8.9124,-8.8867,-8.85,-8.8023,-8.7986,-8.7839,-8.7509,-8.6738,-8.593,-8.5123,-8.4022,-8.3177,-8.27,-7.8846,-7.698,0.0,0.0,0.0,0.0,0.0,0.0,0.0,0.0,-7.3604,-7.3413,-7.2606,-7.2642,-7.312,-7.2165,-7.1505,-7.0954,-6.9816,-6.8862,-6.8311,-6.9265,-6.9522,-6.9577,-7.0856,-7.2061,-7.2907,-7.2562,-7.3506,-7.4714,-7.4281,-7.4996,-7.5899,-7.5361,-7.5976,-7.6976,-7.7823,-7.8246,-7.8631,-7.9169,-7.9131,-7.89,-7.8554,-7.7861,-7.6784,-7.5014,-7.5553,-7.5938,0.0,0.0,0.0,0.0,0.0,0.0,0.0,0.0,0.0,0.0,0.0,0.0,0.0,0.0,0.0,0.0,0.0,0.0,-7.2157,0.0,-7.366,-7.401,-7.2833,-7.2416,-7.2839,-7.1191,-7.0608,-7.0898,-7.0898,-7.0898,-7.0937,-7.1437,-7.2168,-7.3091,-7.4207,-7.5014,-7.5515,-7.5861,-7.6015,-7.6207,-7.7861,-7.8477,-7.8746,-7.4588,0.0,-7.8154,0.0,-8.27,-8.3948,-8.4499,-8.5783,-8.6664,-8.6664,-8.7362,-8.7949,-8.8169,-8.7986,-8.7509,-8.6738,-8.6885,-8.6811,-8.6334,-8.5747,-8.5086,-8.4278,-8.3471,0.0,-8.2223,-7.925,-7.7451,-7.6974,-7.5359,0.0,0.0,0.0,0.0,0.0,-7.2422,-7.2716,-7.3744,-7.2275,-7.2312,-7.323,-7.1872,-7.0844,-7.0,-6.9229,-6.8568,-6.8201,-6.9339,-6.9706,-6.9853,-7.1278,-7.2422,-7.3137,-7.2583,-7.3497,-7.4687,-7.4343,-7.5053,-7.5861,-7.5245,-7.6169,-7.7438,-7.8015,-7.8323,-7.8592,-7.8977,-7.8592,-7.8054,-7.7823,-7.7323,-7.6476,-7.4976,-7.5938,-7.6361,-7.463,0.0,0.0,0.0,0.0,0.0,0.0,-7.4053,-7.2937,-7.386,0.0,0.0,0.0,0.0,0.0,0.0,0.0,0.0,0.0,0.0,0.0,0.0,-7.2556,-7.1827,-7.2168,-7.0931,-7.0524,-7.0898,-7.0898,-7.0898,-7.0975,-7.2091,-7.2937,-7.3591,-7.463,-7.5438,-7.6015,-7.6015,-7.6015,-7.6207,-7.7861,-7.8477,-7.8784,-7.4147,-7.6173,-7.8301,-8.1599,-8.3508,-8.4609,-8.4609,-8.527,-8.582,-8.582,-8.6518,-8.7325,-8.8096,-8.7509,-8.6701,-8.5857,-8.6554,-8.6334,-8.4719,-8.4609,-8.4278,0.0,0.0,-8.2186,-8.2186,-7.98,-7.7781,-7.613,0.0,0.0,-6.9009,0.0,-7.1762,-7.2569,-7.3303,-7.2789,-7.1366,-7.2165,-7.2496,-7.2459,-7.1651,-7.0844,-7.0,-6.9229,-6.8898,-6.8898,-6.8898,-6.9926,-7.125,-7.1044,-7.1897,-7.3112,-7.3706,-7.3908,-7.4188,-7.5549,-7.5976,-7.6015,-7.5976,-7.663,-7.7284,-7.7323,-7.79,-7.8284,-7.7515,-7.7323,-7.7053,-7.6207,-7.6015,-7.5745,-7.4861,-7.5438,-7.5476,-7.3783,0.0,0.0,0.0,0.0,0.0,0.0,-7.3514,-7.3168,-7.2322,0.0,0.0,0.0,0.0,0.0,0.0,0.0,0.0,-7.2206,-7.3053,0.0,-7.3514,-7.2629,-7.2206,-7.2168,-7.1321,-7.0898,-7.0898,-7.0898,-7.0898,-7.1014,-7.2745,-7.35,-7.363,-7.5284,-7.5976,-7.6015,-7.6015,-7.6015,-7.6207,-7.7861,-7.8477,-7.8861,-7.7892,-7.9103,-8.0351,-8.1929,-8.3067,-8.3618,-8.303,-8.4095,-8.4976,-8.4976,-8.5196,-8.5673,-8.6481,-8.6811,-8.6701,0.0,-8.604,-8.5747,0.0,-8.4095,-8.3691,-8.3434,-8.2627,-8.2186,-8.2186,-8.0351,-7.8589,-7.6937,0.0,0.0,0.0,-7.0513,-7.0624,-7.0881,-7.1138,-7.1872,-7.2936,-7.2606,-7.2826,-7.3193,-7.1835,-7.1174,-7.0844,-7.0036,-6.9376,-6.8972,-6.9522,-6.9958,-7.0425,-7.1268,-7.2058,-7.2925,-7.4079,-7.4436,-7.4543,-7.4971,-7.5515,-7.6015,-7.6015,-7.663,-7.7284,-7.7284,-7.7476,-7.7592,-7.7361,-7.6823,-7.6322,-7.6053,-7.6015,-7.5938,-7.563,-7.5322,-7.4938,-7.4399,-7.4091,0.0,0.0,0.0,0.0,0.0,-7.0706,-7.036,0.0,-7.1552,0.0,0.0,0.0,0.0,0.0,0.0,0.0,0.0,-7.2476,0.0,-7.35,-7.2052,-7.1591,-7.2168,-7.1321,-7.0898,-7.0898,-7.0898,-7.1206,-7.186,-7.3014,-7.3822,-7.4399,-7.5515,-7.6015,-7.6015,-7.6015,-7.6361,-7.7015,-7.8092,-7.8861,-7.9669,-7.958,-8.0461,-8.1269,-8.2039,-8.2627,-8.2774,-8.226,-8.3324,-8.4168,-8.4168,-8.4682,-8.5123,-8.5306,-8.6077,0.0,-8.5013,-8.5159,-8.4866,-8.3765,-8.3508,-8.3287,-8.2957,-8.248,-8.2186,-8.2186,0.0,0.0,-7.7818,-7.5763,-7.3413,-7.0844,-7.033,-7.0257,-7.055,-7.055,-7.1578,-7.323,-7.2716,-7.2789,-7.312,-7.1835,-7.1293,-7.1211,-7.0073,-6.9339,-6.8999,-6.9737,-7.0089,-7.049,-7.2075,-7.2794,-7.3271,-7.4358,-7.4707,-7.4784,-7.5091,-7.5553,-7.6015,-7.6015,-7.663,-7.7207,-7.6899,-7.7053,-7.7207,-7.6899,-7.6399,-7.5899,-7.5592,-7.5515,-7.5438,-7.513,-7.463,-7.413,-7.3822,-7.3053,-7.2129,-7.0937,0.0,0.0,0.0,0.0,0.0,0.0,-7.1668,-7.1591,0.0,0.0,0.0,0.0,0.0,0.0,-7.1706,-7.236,0.0,-7.3014,-7.1937,-7.1668,-7.2168,-7.1321,-7.0898,-7.0898,-7.1245,-7.1668,-7.2283,-7.3437,-7.4245,-7.4784,-7.563,-7.6015,-7.6015,-7.6015,-7.6515,-7.74,-7.8207,-7.9246,-8.0516,-7.947,-8.0498,0.0,0.0,-8.2186,0.0,-8.2186,-8.2847,-8.3361,-8.3398,-8.4646,-8.527,-8.4609,-8.5123,-8.4939,-8.3471,0.0,0.0,0.0,-8.292,-8.2994,-8.2223,-8.2186,-8.215,-8.2113,-8.0571,-7.9323,-7.8332,-7.4404,-7.1725,-7.0183,-7.011,-7.055,-7.1293,-7.1293,-7.1762,-7.2496,-7.2459,-7.2459,-7.2422,-7.1578,-7.1219,-7.1064,-6.9486,-6.8862,-6.8897,-6.9509,-7.0297,-7.1331,-7.3213,-7.3906,-7.4108,-7.4512,-7.4668,-7.4861,-7.5592,-7.5899,-7.5976,-7.5938,-7.6553,-7.7015,-7.6207,-7.6592,-7.6976,-7.6169,-7.5938,-7.5668,-7.4861,-7.4668,-7.4399,-7.363,-7.3437,-7.3129,-7.2322,-7.1398,-7.0283,-6.8706,0.0,0.0,0.0,0.0,0.0,0.0,-7.3014,-7.2822,0.0,0.0,0.0,0.0,0.0,-7.1898,-7.1014,-7.2629,-7.3129,-7.236,-7.2322,-7.2245,-7.2168,-7.1321,-7.0937,-7.1014,-7.1822,-7.2245,-7.2437,-7.4014,-7.4745,-7.4861,-7.5668,-7.6015,-7.6015,-7.6015,-7.6553,-7.7476,-7.8284,-7.9669,-8.14,0.0,0.0,-8.1966,-8.215,-8.2186,-8.2186,-8.2186,-8.237,-8.27,-8.3324,-8.3214,-8.3214,-8.3654,-8.3324,-8.2884,-8.2517,-8.3214,-8.3251,-8.226,-8.237,-8.2406,-8.2186,-8.2186,-8.1893,-8.1305,-8.0314,-7.8479,-7.5799,-7.3597,-7.1982,-7.1027,-7.0403,-7.055,-7.1293,-7.1293,-7.1762,-7.2459,-7.1835,-7.1945,-7.2386,-7.0954,-7.0367,-7.0293,-6.9302,-6.8531,-6.8051,-6.863,-7.0016,-7.1761,-7.2584,-7.4052,-7.5319,-7.4139,-7.4207,-7.463,-7.4207,-7.5014,-7.5861,-7.5207,-7.563,-7.6245,-7.6053,-7.6169,-7.6245,-7.6053,-7.5476,-7.4938,-7.4745,-7.4207,-7.3745,-7.3538,-7.2976,-7.2437,-7.2206,-7.0937,-6.986,-6.9436,-6.8821,0.0,0.0,-7.0975,-7.1745,-7.3053,-7.3399,-7.3053,0.0,0.0,0.0,0.0,-7.2706,-7.2783,-7.1898,-7.2937,-7.3707,-7.4091,-7.3514,-7.286,-7.2168,-7.1321,-7.1245,-7.1898,-7.2091,-7.2899,-7.413,-7.4553,-7.5091,-7.5707,-7.5899,-7.6015,-7.6015,-7.6015,-7.6899,-7.8323,-7.9169,-8.0554,-8.2247,-7.98,-8.1085,-8.2186,-8.2186,-8.2186,-8.2186,-8.2186,-8.2186,-8.237,-8.281,-8.248,-8.237,-8.281,-8.2443,-8.2186,-8.2186,-8.259,-8.2663,-8.2223,-8.2186,-8.2186,-8.2186,-8.2186,-8.1819,-8.1012,-8.0204,-7.8185,-7.4918,-7.367,-7.2459,-7.1293,-7.1248,-7.1248,-7.1293,-7.1688,-7.2253,-7.2852,-7.2012,-7.1743,-7.1706,-7.0412,-6.9563,-6.8898,-6.8128,-6.7899,-6.8173,-6.9116,-7.0629,-7.2415,-7.3717,-7.4198,-7.4168,-7.3668,-7.3245,-7.2899,-7.2437,-7.3783,-7.5399,-7.5322,-7.563,-7.6015,-7.6015,-7.6015,-7.6015,-7.6015,-7.5322,-7.4591,-7.4245,-7.3476,-7.2783,-7.2399,-7.1937,-7.1591,-7.1591,-7.0514,-6.9706,-6.9706,-6.9283,0.0,-7.0244,-7.1398,-7.2283,-7.286,-7.3591,-7.3707,-7.286,-7.2437,0.0,-7.2783,-7.3245,-7.3283,-7.2822,-7.4014,-7.4476,-7.4168,-7.3322,-7.2476,-7.1591,-7.1514,-7.1745,-7.2206,-7.2976,-7.386,-7.4707,-7.513,-7.5553,-7.6015,-7.6015,-7.6015,-7.6015,-7.6015,-7.6784,-7.8054,-7.89,-8.0516,-8.2477,-7.98,-8.1085,-8.2186,-8.2186,-8.2186,-8.2186,-8.2186,-8.2186,-8.2186,-8.2186,-8.2076,-8.2076,-8.2186,-8.2076,-8.2076,-8.2186,-8.2186,-8.2186,-8.2186,-8.2186,-8.2186,-8.2186,-8.2186,-8.1782,-8.0828,-7.9653,-7.7671,-7.4918,-7.4044,-7.2961,-7.1637,-7.2411,-7.2374,-7.1673,-7.2336,-7.2916,-7.3317,-7.2361,-7.1616,-7.1069,-7.006,-6.8828,-6.7553,-6.6982,-6.7382,-6.8451,-6.9992,-7.1446,-7.3,-7.5088,-7.4284,-7.2514,-7.3129,-7.2206,-7.0898,-7.0898,-7.2629,-7.4668,-7.5438,-7.5707,-7.5822,-7.5976,-7.5899,-7.5784,-7.5784,-7.513,-7.4284,-7.3476,-7.2591,-7.1783,-7.1052,-7.0898,-7.0898,-7.0898,-7.0206,-6.9744,-6.986,0.0,-6.9783,-7.0052,-7.2091,-7.3245,-7.2629,-7.3976,-7.4553,-7.3745,-7.3014,-7.2899,-7.363,-7.3668,-7.3745,-7.386,-7.513,-7.5053,-7.3514,-7.2783,-7.2014,-7.1283,-7.2052,-7.2476,-7.2629,-7.4207,-7.4899,-7.4938,-7.5822,-7.613,-7.6015,-7.6015,-7.6015,-7.6015,-7.613,-7.6707,-7.7592,-7.8669,-8.0516,-8.2631,-7.98,-8.1085,-8.2186,-8.2186,-8.2186,-8.2186,-8.2186,-8.2186,-8.2186,-8.2186,-8.1599,-8.1452,-8.2113,-8.1599,-8.1452,-8.215,-8.2186,-8.2186,-8.2186,-8.2186,-8.2186,-8.2186,-8.2186,-8.1489,-8.0021,-7.7157,-7.5432,-7.4918,-7.3922,-7.3313,-7.3115,-7.3733,-7.3672,-7.309,-7.3201,-7.3315,-7.328,-7.1727,-7.1429,-7.1863,-7.0067,-6.8525,-6.7327,-6.7728,-6.7509,-6.7349,-6.9487,-7.1298,-7.2868,-7.4382,-7.4207,-7.3206,-7.2591,-7.1706,-7.0898,-7.0898,-7.2206,-7.3745,-7.386,-7.4399,-7.5091,-7.5822,-7.5438,-7.4899,-7.4899,-7.4284,-7.3437,-7.2591,-7.1706,-7.1052,-7.0937,-7.0898,-7.0898,-7.0898,-7.0206,-6.9937,-7.0629,0.0,-7.0244,-7.1629,-7.2822,-7.3707,-7.4245,-7.5207,-7.5438,-7.4591,-7.4399,-7.4361,-7.4514,-7.4514,-7.4861,-7.5592,-7.5168,-7.4437,-7.3514,-7.336,-7.3245,-7.3091,-7.3245,-7.3668,-7.4361,-7.5322,-7.5784,-7.5861,-7.6707,-7.6669,-7.6015,-7.6015,-7.6015,-7.6053,-7.6823,-7.7592,-7.8592,-8.0862,-8.2439,-8.3632,-7.98,-8.1085,-8.2186,-8.2186,-8.2186,-8.2186,-8.2186,-8.2186,-8.2186,-8.2186,-8.1489,-8.1305,-8.2113,-8.1489,-8.1342,-8.2113,-8.2186,-8.2186,-8.2186,-8.2186,-8.2186,-8.2186,-8.1782,-8.0791,-7.9176,-7.635,-7.5058,-7.5375,-7.4056,-7.359,-7.3888,-7.4161,-7.4161,-7.385,-7.3377,-7.3372,-7.3565,-7.1824,-7.1127,-7.0962,-6.9114,-6.7845,-6.7004,-6.6819,-6.7789,-6.9431,-7.0459,-7.2396,-7.4465,-7.4649,-7.3553,-7.2129,-7.2168,-7.0975,-6.9821,-7.1206,-7.2822,-7.4245,-7.4707,-7.4784,-7.4822,-7.5207,-7.5014,-7.4591,-7.4168,-7.3783,-7.3245,-7.236,-7.1514,-7.0898,-7.0898,-7.0898,-7.0898,-7.0898,-7.0591,0.0,0.0,-7.0591,-7.0629,-7.1398,-7.2283,-7.3129,-7.3976,-7.4822,-7.5322,-7.5399,-7.4976,-7.4899,-7.5399,-7.4976,-7.5091,-7.5976,-7.4745,-7.3899,-7.3514,-7.3014,-7.2783,-7.2822,-7.3707,-7.4591,-7.5438,-7.6284,-7.6707,-7.6707,-7.713,-7.6823,-7.6053,-7.6515,-7.6707,-7.6784,-7.763,-7.8438,-7.94,-8.1054,-8.2477,-8.3785,-8.0021,-8.1195,-8.2186,-8.2186,-8.2186,-8.2186,-8.2186,-8.2186,-8.2186,-8.2186,-8.1489,-8.1305,-8.2113,-8.1489,-8.1342,-8.2113,-8.2186,-8.2186,-8.2186,-8.2186,-8.2186,-8.2186,-8.1232,-8.0131,-7.8919,-7.642,-7.5356,-7.5787,-7.466,-7.4222,-7.4506,-7.4819,-7.4819,-7.4447,-7.343,-7.3338,-7.3776,-7.1898,-7.0867,-7.0374,-6.9158,-6.8143,-6.7316,-6.7199,-6.8849,-7.1325,-7.1746,-7.3522,-7.5592,-7.4938,-7.3129,-7.1321,-7.1975,-7.0591,-6.9167,-7.1514,-7.3399,-7.4861,-7.5515,-7.5091,-7.4437,-7.4437,-7.4284,-7.3976,-7.336,-7.3206,-7.2937,-7.2091,-7.136,-7.0898,-7.0898,-7.0898,-7.0898,-7.0898,0.0,0.0,0.0,-7.0898,-7.0898,-7.0898,-7.1668,-7.2552,-7.3437,-7.4245,-7.5053,-7.5938,-7.5399,-7.5284,-7.5976,-7.5361,-7.5322,-7.5976,-7.4553,-7.3707,-7.3514,-7.3014,-7.2783,-7.2783,-7.4514,-7.5668,-7.6322,-7.74,-7.7669,-7.7323,-7.7476,-7.7092,-7.6361,-7.7015,-7.74,-7.7669,-7.8707,-7.9515,-8.0246,-8.1516,-8.2785,-8.4016,-8.0755,-8.1599,-8.2186,-8.2186,-8.2186,-8.2186,-8.2186,-8.2186,-8.2186,-8.2186,-8.1489,-8.1305,-8.2113,-8.1489,-8.1342,-8.2113,-8.2186,-8.2186,-8.2186,-8.2186,-8.2186,-8.2186,-8.0718,-7.98,-7.969,-7.7097,-7.5771,-7.5787,-7.6036,-7.5779,-7.5054,-7.6443,-7.6334,-7.4998,-7.3601,-7.3321,-7.3758,-7.15,-7.0858,-7.1328,-7.1726,-7.0601,-6.8874,-7.0914,-7.1381,-7.1126,-7.2779,-7.3986,-7.4784,-7.4707,-7.3553,-7.2129,-7.2168,-7.1014,-6.9937,-7.1668,-7.3399,-7.4707,-7.4784,-7.4207,-7.3591,-7.3591,-7.2976,-7.236,-7.2322,-7.2283,-7.2052,-7.1168,-7.0937,-7.0898,-7.0898,-7.0898,-7.0898,-7.0898,0.0,0.0,-7.0898,-7.0898,-7.0898,-7.0898,-7.1668,-7.2552,-7.3437,-7.4245,-7.5053,-7.5938,-7.5938,-7.5938,-7.6015,-7.5938,-7.5938,-7.6015,-7.5091,-7.4245,-7.3514,-7.4168,-7.4514,-7.4553,-7.6284,-7.713,-7.7246,-7.89,-7.8784,-7.7323,-7.8092,-7.7938,-7.7207,-7.7284,-7.7746,-7.8592,-8.0246,-8.0939,-8.1285,-8.3747,-8.4709,-8.4939,-8.0828,-8.1636,-8.2186,-8.2186,-8.2186,-8.2186,-8.2186,-8.2186,-8.2003,-8.1525,-8.1636,-8.1672,-8.1489,-8.1636,-8.1856,-8.215,-8.2186,-8.2186,-8.2186,-8.2186,-8.1966,-8.1489,-8.0388,-7.9756,-7.9607,-7.7652,-7.6705,-7.6944,-7.6579,-7.6168,-7.567,-7.6209,-7.5993,-7.5071,-7.4375,-7.3709,-7.3069,-7.2563,-7.2177,-7.1927,-7.2112,-7.2006,-7.1812,-7.2688,-7.3129,-7.3399,-7.463,-7.4899,-7.463,-7.413,-7.2822,-7.1475,-7.2014,-7.1398,-7.0898,-7.3091,-7.4591,-7.5399,-7.4861,-7.413,-7.3514,-7.3514,-7.2822,-7.2052,-7.1514,-7.1822,-7.1937,-7.1091,-7.0898,-7.0898,-7.0898,-7.0898,-7.0898,-7.0898,0.0,-7.0898,-7.0898,-7.0898,-7.0898,-7.0898,-7.1668,-7.2552,-7.3437,-7.4245,-7.5053,-7.5938,-7.6015,-7.6015,-7.6015,-7.6015,-7.6015,-7.6015,-7.5668,-7.5091,-7.4245,-7.4553,-7.4976,-7.5515,-7.7246,-7.8323,-7.89,-8.0054,-7.9669,-7.8092,-7.8938,-7.8554,-7.7361,-7.84,-7.9015,-7.9477,-8.117,-8.217,-8.2824,-8.4324,-8.5209,-8.5709,-8.1232,-8.1819,-8.2186,-8.2186,-8.2186,-8.2186,-8.2186,-8.2186,-8.2003,-8.1452,-8.1856,-8.2003,-8.1452,-8.1856,-8.2186,-8.2186,-8.2186,-8.2186,-8.2186,-8.2186,-8.1819,-8.1048,-8.0419,-7.989,-7.9511,-7.8016,-7.7379,-7.7589,-7.6991,-7.658,-7.6399,-7.6669,-7.6571,-7.614,-7.5271,-7.4395,-7.3636,-7.3338,-7.2976,-7.2629,-7.286,-7.3206,-7.3553,-7.4091,-7.4476,-7.4822,-7.5707,-7.5438,-7.4591,-7.3769,-7.2514,-7.1398,-7.2014,-7.2129,-7.2437,-7.4207,-7.5322,-7.5861,-7.5284,-7.4322,-7.3437,-7.3168,-7.2437,-7.1629,-7.1052,-7.136,-7.1629,-7.1014,-7.0898,-7.0898,-7.0898,-7.0898,-7.0898,-7.0898,-7.0898,-7.0898,-7.0898,-7.0898,-7.1014,-7.1283,-7.1822,-7.2629,-7.3783,-7.4399,-7.5053,-7.5938,-7.6245,-7.6399,-7.6399,-7.613,-7.613,-7.6399,-7.613,-7.5976,-7.5899,-7.563,-7.5938,-7.6823,-7.8515,-7.9746,-8.0631,-8.1477,-8.1093,-7.9708,-8.0054,-7.9554,-7.8592,-7.9746,-8.0362,-8.0746,-8.2439,-8.3478,-8.4093,-8.4978,-8.5632,-8.6094,-8.2039,-8.2186,-8.2186,-8.2186,-8.2186,-8.2186,-8.2186,-8.2186,-8.2186,-8.2186,-8.2186,-8.2186,-8.2186,-8.2186,-8.2186,-8.2186,-8.2186,-8.2186,-8.2186,-8.2186,-8.1819,-8.1048,-8.0822,-8.033,-7.9538,-7.8274,-7.7627,-7.7627,-7.7428,-7.7323,-7.7323,-7.813,-7.8477,-7.8385,-7.6195,-7.5501,-7.5831,-7.3598,-7.2958,-7.3591,-7.4399,-7.4245,-7.3707,-7.5399,-7.5476,-7.4822,-7.5707,-7.5438,-7.4591,-7.3783,-7.2937,-7.2206,-7.2206,-7.336,-7.4707,-7.4707,-7.5322,-7.5976,-7.5976,-7.4784,-7.3283,-7.2399,-7.1552,-7.0898,-7.0898,-7.0898,-7.0898,-7.0898,-7.0898,-7.0898,-7.0898,-7.0898,-7.0898,-7.0898,-7.0898,-7.0898,-7.0898,-7.0898,-7.1245,-7.2091,-7.2206,-7.286,-7.4553,-7.4707,-7.5091,-7.5938,-7.6823,-7.7284,-7.7284,-7.6476,-7.6399,-7.7284,-7.6476,-7.6823,-7.8477,-7.7707,-7.7707,-7.8515,-8.0285,-8.1516,-8.2324,-8.3208,-8.3131,-8.2247,-8.1477,-8.1093,-8.1093,-8.1131,-8.1593,-8.2477,-8.4209,-8.4901,-8.5016,-8.5786,-8.6094,-8.6094,-8.2039,-8.2186,-8.2186,-8.2186,-8.2186,-8.2186,-8.2186,-8.2186,-8.2003,-8.1415,-8.1856,-8.2003,-8.1415,-8.1856,-8.2186,-8.2186,-8.2186,-8.2186,-8.2186,-8.2186,-8.2071,-8.1726,-8.1074,-8.0773,-8.0969,-7.936,-7.8728,-7.9133,-7.8454,-7.813,-7.813,-7.84,-7.8299,-7.79,-7.7035,-7.6175,-7.5357,-7.5079,-7.4758,-7.4476,-7.5938,-7.6015,-7.5438,-7.713,-7.6861,-7.5668,-7.5899,-7.5091,-7.3745,-7.286,-7.2399,-7.2399,-7.3591,-7.4707,-7.563,-7.563,-7.5361,-7.5091,-7.5091,-7.386,-7.2668,-7.3014,-7.2014,-7.0898,-7.0898,-7.0898,-7.0898,-7.0898,-7.0898,-7.0898,-7.0898,-7.0898,-7.0898,-7.0898,-7.0898,-7.0898,-7.0898,-7.1437,-7.1898,-7.2168,-7.3245,-7.4168,-7.4668,-7.5245,-7.5976,-7.6861,-7.713,-7.7015,-7.6399,-7.613,-7.6399,-7.7284,-7.7053,-7.74,-7.8477,-7.7707,-7.8323,-8.0323,-8.14,-8.2401,-8.3208,-8.3478,-8.3131,-8.2285,-8.2054,-8.1939,-8.1977,-8.2593,-8.2978,-8.3324,-8.4478,-8.4901,-8.5016,-8.5786,-8.6094,-8.6094,-8.2113,-8.2186,-8.2186,-8.2186,-8.2186,-8.2186,-8.2186,-8.2186,-8.2039,-8.1525,-8.1893,-8.2003,-8.1525,-8.1893,-8.2186,-8.2186,-8.2186,-8.2186,-8.2186,-8.2434,-8.254,-8.2481,-8.1803,-8.149,-8.1521,-8.003,-7.945,-7.9823,-7.8938,-7.8669,-7.9015,-7.9015,-7.9044,-7.9003,-7.8138,-7.7278,-7.6437,-7.6141,-7.5707,-7.5361,-7.6746,-7.6784,-7.6169,-7.7861,-7.7438,-7.6015,-7.6015,-7.4938,-7.336,-7.2476,-7.2437,-7.2937,-7.4284,-7.5284,-7.6015,-7.6015,-7.5399,-7.4707,-7.4707,-7.3476,-7.2322,-7.286,-7.1937,-7.0898,-7.0898,-7.0898,-7.1014,-7.1321,-7.1129,-7.1014,-7.136,-7.1129,-7.0898,-7.0898,-7.0898,-7.0898,-7.0898,-7.1629,-7.2322,-7.2668,-7.3899,-7.4861,-7.5168,-7.5707,-7.6476,-7.7669,-7.8092,-7.8054,-7.7515,-7.7169,-7.74,-7.8246,-7.7938,-7.8323,-7.9515,-7.8707,-7.94,-8.1593,-8.2401,-8.3439,-8.4593,-8.4593,-8.4286,-8.3785,-8.3478,-8.3324,-8.3362,-8.3901,-8.4093,-8.4209,-8.5055,-8.5363,-8.544,-8.594,-8.6094,-8.6094,-8.2186,-8.2186,-8.2186,-8.2186,-8.2186,-8.2186,-8.2186,-8.2186,-8.2186,-8.2186,-8.2186,-8.2186,-8.2186,-8.2186,-8.2186,-8.2186,-8.2251,-8.2284,-8.2186,-8.2876,-8.3303,-8.3303,-8.2839,-8.228,-8.1614,-8.0421,-7.9862,-7.9939,-7.9054,-7.9054,-7.9939,-7.9939,-8.0323,-8.1016,-7.9285,-7.8477,-7.84,-7.6707,-7.6015,-7.6092,-7.7015,-7.6823,-7.6169,-7.7861,-7.74,-7.5861,-7.5784,-7.4745,-7.3283,-7.2552,-7.2899,-7.3745,-7.4553,-7.5361,-7.6015,-7.6015,-7.5322,-7.4591,-7.4591,-7.336,-7.2091,-7.2091,-7.1475,-7.0937,-7.1014,-7.0975,-7.1168,-7.2014,-7.1514,-7.1129,-7.1937,-7.1514,-7.1014,-7.1014,-7.1091,-7.1129,-7.1129,-7.186,-7.2706,-7.3514,-7.4322,-7.5168,-7.6015,-7.6322,-7.7092,-7.8631,-7.9477,-7.99,-7.9823,-7.8977,-7.89,-7.9785,-7.9015,-7.9438,-8.1208,-8.0439,-8.0823,-8.2439,-8.3208,-8.4478,-8.6094,-8.6017,-8.6017,-8.6055,-8.517,-8.4824,-8.4901,-8.4824,-8.4824,-8.4978,-8.5709,-8.6055,-8.6094,-8.6094,-8.6094,-8.6094,-8.2186,-8.2186,-8.2186,-8.2186,-8.2186,-8.2186,-8.2186,-8.2186,-8.2186,-8.2186,-8.2186,-8.2186,-8.2186,-8.2186,-8.2186,-8.2186,-8.2678,-8.2763,-8.2251,-8.3331,-8.3979,-8.3979,-8.3101,-8.2741,-8.3099,-8.093,-8.0131,-8.0823,-7.9939,-7.9977,-8.0823,-8.0823,-8.0939,-8.1016,-7.9285,-7.8477,-7.84,-7.6707,-7.6015,-7.613,-7.763,-7.7323,-7.6169,-7.7861,-7.7053,-7.4899,-7.4284,-7.336,-7.2552,-7.3053,-7.3745,-7.4591,-7.5438,-7.5861,-7.6015,-7.6015,-7.4938,-7.3783,-7.3783,-7.2514,-7.1168,-7.1168,-7.1052,-7.1091,-7.1745,-7.1398,-7.1168,-7.2014,-7.1514,-7.0975,-7.1168,-7.1591,-7.1898,-7.1898,-7.2476,-7.2937,-7.2937,-7.363,-7.4245,-7.4437,-7.5207,-7.6053,-7.6938,-7.8823,-8.0131,-8.0516,-8.0708,-8.0516,-7.9862,-7.8977,-7.89,-7.9785,-7.9631,-8.0323,-8.2016,-8.1862,-8.2285,-8.3324,-8.3516,-8.4478,-8.6094,-8.544,-8.5517,-8.6017,-8.4516,-8.4286,-8.4863,-8.417,-8.4286,-8.4939,-8.5093,-8.5555,-8.6094,-8.6094,-8.6094,-8.6094,-8.2186,-8.2186,-8.2186,-8.2186,-8.2186,-8.2186,-8.2186,-8.2186,-8.2186,-8.2186,-8.2186,-8.2186,-8.2186,-8.2186,-8.2186,-8.2186,-8.2823,-8.3053,-8.2708,-8.3902,-8.4628,-8.4628,-8.3637,-8.3243,-8.3593,-8.1516,-8.0631,-8.1093,-8.0631,-8.0669,-8.1093,-8.1093,-8.1093,-8.1054,-7.9708,-7.9131,-7.9015,-7.7323,-7.663,-7.6707,-7.7553,-7.713,-7.6092,-7.6976,-7.6207,-7.4553,-7.3322,-7.2591,-7.2322,-7.3206,-7.4053,-7.4861,-7.5745,-7.6015,-7.6015,-7.6015,-7.4822,-7.3514,-7.3514,-7.2245,-7.0898,-7.0898,-7.1206,-7.1514,-7.1552,-7.1552,-7.1629,-7.2091,-7.1822,-7.1629,-7.2052,-7.2168,-7.2322,-7.2745,-7.3206,-7.3514,-7.3514,-7.4207,-7.4707,-7.4707,-7.6169,-7.7707,-7.8977,-8.0669,-8.167,-8.167,-8.2054,-8.19,-8.1054,-8.0208,-7.9939,-8.04,-8.0439,-8.0823,-8.1708,-8.2093,-8.2747,-8.3593,-8.4016,-8.4863,-8.6094,-8.567,-8.5709,-8.6017,-8.4786,-8.4478,-8.4863,-8.4401,-8.4478,-8.4901,-8.4901,-8.5401,-8.6055,-8.567,-8.5786,-8.6094,-8.2186,-8.2186,-8.2186,-8.2186,-8.2186,-8.2186,-8.2186,-8.2186,-8.2186,-8.2186,-8.2186,-8.2186,-8.2186,-8.2186,-8.2251,-8.2375,-8.2994,-8.335,-8.335,-8.4545,-8.5184,-8.493,-8.4202,-8.367,-8.3362,-8.2016,-8.1246,-8.1093,-8.1093,-8.1093,-8.1093,-8.1093,-8.1093,-8.1054,-8.0208,-7.9823,-7.9708,-7.8015,-7.7284,-7.7284,-7.7284,-7.6784,-7.6015,-7.6015,-7.5361,-7.4284,-7.2745,-7.2283,-7.2552,-7.3437,-7.4245,-7.5053,-7.5784,-7.6015,-7.6015,-7.6015,-7.4822,-7.3514,-7.3514,-7.2245,-7.0937,-7.1091,-7.1668,-7.2052,-7.1475,-7.1898,-7.2476,-7.2591,-7.2514,-7.2629,-7.336,-7.3014,-7.286,-7.3591,-7.3822,-7.4053,-7.4322,-7.4822,-7.5322,-7.5745,-7.7669,-7.9631,-8.1362,-8.2131,-8.2593,-8.2747,-8.3285,-8.3285,-8.2554,-8.1747,-8.1323,-8.1323,-8.1323,-8.1323,-8.1323,-8.2093,-8.2939,-8.3824,-8.4709,-8.544,-8.6094,-8.6094,-8.6094,-8.6055,-8.5247,-8.4824,-8.467,-8.4516,-8.4555,-8.467,-8.467,-8.5247,-8.6017,-8.5363,-8.5517,-8.6094,-8.2186,-8.2186,-8.2186,-8.2186,-8.2186,-8.2186,-8.2186,-8.2186,-8.2186,-8.2186,-8.2186,-8.2186,-8.2186,-8.2186,-8.2402,-8.3024,-8.3677,-8.4054,-8.4054,-8.526,-8.5394,-8.4111,-8.4491,-8.4016,-8.2516,-8.2247,-8.1785,-8.1093,-8.1093,-8.1093,-8.1093,-8.1093,-8.1093,-8.1054,-8.0208,-7.9823,-7.9708,-7.8015,-7.7284,-7.7284,-7.7284,-7.6784,-7.6015,-7.6015,-7.5014,-7.3553,-7.2552,-7.2668,-7.3437,-7.4245,-7.513,-7.5822,-7.5976,-7.6015,-7.6015,-7.6015,-7.4822,-7.3514,-7.3514,-7.2245,-7.1091,-7.1822,-7.2091,-7.236,-7.3014,-7.3245,-7.3514,-7.4207,-7.3822,-7.336,-7.3476,-7.3976,-7.4399,-7.4514,-7.5168,-7.6169,-7.763,-7.7323,-7.7784,-7.9977,-8.0554,-8.14,-8.3093,-8.3362,-8.3747,-8.4478,-8.3939,-8.3555,-8.3439,-8.2593,-8.2131,-8.2131,-8.2131,-8.2131,-8.2131,-8.2978,-8.3862,-8.4747,-8.5555,-8.5978,-8.6094,-8.6094,-8.6094,-8.6055,-8.5247,-8.4478,-8.3708,-8.2978,-8.3093,-8.3785,-8.3785,-8.4747,-8.6094,-8.5978,-8.6017,-8.6094,-8.2186,-8.2186,-8.2186,-8.2186,-8.2186,-8.2186,-8.2186,-8.2186,-8.2186,-8.2186,-8.2186,-8.2186,-8.2186,-8.256,-8.3024,-8.3704,-8.4349,-8.4696,-8.4696,-8.559,-8.5817,-8.5146,-8.4976,-8.4555,-8.3785,-8.3285,-8.2862,-8.2477,-8.1554,-8.1093,-8.1093,-8.1093,-8.1093,-8.1054,-8.0208,-8.0092,-8.04,-7.8707,-7.7977,-7.7938,-7.7476,-7.6784,-7.5899,-7.4976,-7.386,-7.2668,-7.1783,-7.236,-7.363,-7.4437,-7.5284,-7.6015,-7.6015,-7.6015,-7.6015,-7.6015,-7.513,-7.4091,-7.363,-7.2937,-7.2322,-7.2206,-7.2899,-7.3707,-7.4091,-7.4553,-7.4745,-7.4168,-7.4091,-7.4168,-7.4168,-7.4476,-7.4861,-7.5361,-7.6169,-7.713,-7.8323,-7.8592,-7.9477,-8.1516,-8.1785,-8.2439,-8.417,-8.4324,-8.4478,-8.4863,-8.4555,-8.4093,-8.3632,-8.3247,-8.3016,-8.3016,-8.2554,-8.2285,-8.2285,-8.317,-8.3785,-8.417,-8.5478,-8.6094,-8.6094,-8.6094,-8.6094,-8.6055,-8.5247,-8.4401,-8.3555,-8.317,-8.3247,-8.3593,-8.3593,-8.4362,-8.544,-8.544,-8.5709,-8.6094]},{"header":{"parameterUnit":"m.s-1","parameterCategory":1,"la1":30.6,"la2":28.766,"lo1":-90.7593,"lo2":-88.6598,"dy":0.0162,"dx":0.0183,"nx":116,"ny":114,"refTime":"2023-03-24T12:00:00:Z","depth":0,"parameterNumber":3,"parameterNumberName":"V-component_of_WINDS"},"data":[0.0,0.0,0.0,0.0,0.0,0.0,0.0,0.0,0.0,0.0,0.0,0.0,0.0,0.0,0.0,0.0,0.0,0.0,0.0,0.0,0.0,0.0,0.0,0.0,0.0,0.0,0.0,0.0,0.0,0.0,0.0,0.0,0.0,0.0,0.0,0.0,0.0,0.0,0.0,0.0,0.0,0.0,0.0,0.0,0.0,0.0,0.0,0.0,0.0,0.0,0.0,0.0,0.0,0.0,0.0,0.0,0.0,0.0,0.0,0.0,0.0,0.0,0.0,0.0,0.0,0.0,0.0,0.0,0.0,0.0,0.0,0.0,0.0,0.0,0.0,0.0,0.0,0.0,0.0,0.0,0.0,0.0,0.0,0.0,0.0,0.0,0.0,0.0,0.0,0.0,0.0,0.0,0.0,0.0,0.0,0.0,0.0,0.0,0.0,0.0,0.0,0.0,0.0,0.0,0.0,0.0,0.0,0.0,0.0,0.0,0.0,0.0,0.0,0.0,0.0,0.0,0.0,0.0,0.0,0.0,0.0,0.0,0.0,0.0,0.0,0.0,0.0,0.0,0.0,0.0,0.0,0.0,0.0,0.0,0.0,0.0,0.0,0.0,0.0,0.0,0.0,0.0,0.0,0.0,0.0,0.0,0.0,0.0,0.0,0.0,0.0,0.0,0.0,0.0,0.0,0.0,0.0,0.0,0.0,0.0,0.0,0.0,0.0,0.0,0.0,0.0,0.0,0.0,0.0,0.0,0.0,0.0,0.0,0.0,0.0,0.0,0.0,0.0,0.0,0.0,0.0,0.0,0.0,0.0,0.0,0.0,0.0,0.0,0.0,0.0,0.0,0.0,0.0,0.0,0.0,0.0,0.0,0.0,0.0,0.0,0.0,0.0,0.0,0.0,0.0,0.0,0.0,0.0,0.0,0.0,0.0,0.0,0.0,0.0,0.0,0.0,0.0,0.0,0.0,0.0,0.0,0.0,0.0,0.0,0.0,0.0,0.0,0.0,0.0,0.0,0.0,0.0,0.0,0.0,0.0,0.0,0.0,0.0,0.0,0.0,0.0,0.0,0.0,0.0,0.0,0.0,0.0,0.0,0.0,0.0,0.0,0.0,0.0,0.0,0.0,0.0,0.0,0.0,0.0,0.0,0.0,0.0,0.0,0.0,0.0,0.0,0.0,0.0,0.0,0.0,0.0,0.0,0.0,0.0,0.0,0.0,0.0,0.0,0.0,0.0,0.0,0.0,0.0,0.0,0.0,0.0,0.0,0.0,0.0,0.0,0.0,0.0,0.0,0.0,0.0,0.0,0.0,0.0,0.0,0.0,0.0,0.0,0.0,0.0,0.0,0.0,0.0,0.0,0.0,0.0,0.0,0.0,0.0,0.0,0.0,0.0,0.0,0.0,0.0,0.0,0.0,0.0,0.0,0.0,0.0,0.0,0.0,0.0,0.0,0.0,0.0,0.0,0.0,0.0,0.0,0.0,0.0,0.0,0.0,0.0,0.0,0.0,0.0,0.0,0.0,0.0,0.0,0.0,0.0,0.0,0.0,0.0,0.0,0.0,0.0,0.0,0.0,0.0,0.0,0.0,0.0,0.0,0.0,0.0,0.0,0.0,0.0,0.0,0.0,0.0,0.0,0.0,0.0,0.0,0.0,0.0,0.0,0.0,0.0,0.0,0.0,0.0,0.0,0.0,0.0,0.0,0.0,0.0,0.0,0.0,0.0,0.0,0.0,0.0,0.0,0.0,0.0,0.0,0.0,0.0,0.0,0.0,0.0,0.0,0.0,0.0,0.0,0.0,0.0,0.0,0.0,0.0,0.0,0.0,0.0,0.0,0.0,0.0,0.0,0.0,0.0,0.0,0.0,0.0,0.0,0.0,0.0,0.0,0.0,0.0,0.0,0.0,0.0,0.0,0.0,0.0,0.0,0.0,0.0,0.0,0.0,0.0,0.0,0.0,0.0,0.0,0.0,0.0,0.0,0.0,0.0,0.0,0.0,0.0,0.0,0.0,0.0,0.0,0.0,0.0,0.0,0.0,0.0,0.0,0.0,0.0,0.0,0.0,0.0,0.0,0.0,0.0,0.0,0.0,0.0,0.0,0.0,0.0,0.0,0.0,0.0,0.0,0.0,0.0,0.0,0.0,0.0,0.0,0.0,0.0,0.0,0.0,0.0,0.0,0.0,0.0,0.0,0.0,0.0,0.0,0.0,0.0,0.0,0.0,0.0,0.0,0.0,0.0,0.0,0.0,0.0,0.0,0.0,0.0,0.0,0.0,0.0,0.0,0.0,0.0,0.0,0.0,0.0,0.0,0.0,0.0,0.0,0.0,0.0,0.0,0.0,0.0,0.0,0.0,0.0,0.0,0.0,0.0,0.0,0.0,0.0,0.0,0.0,0.0,0.0,0.0,0.0,0.0,0.0,0.0,0.0,0.0,0.0,0.0,0.0,0.0,0.0,0.0,0.0,0.0,0.0,0.0,0.0,0.0,0.0,0.0,0.0,0.0,0.0,0.0,0.0,0.0,0.0,0.0,0.0,0.0,0.0,0.0,0.0,0.0,0.0,0.0,0.0,0.0,0.0,0.0,0.0,0.0,0.0,0.0,0.0,0.0,0.0,0.0,0.0,0.0,0.0,0.0,0.0,0.0,0.0,0.0,0.0,0.0,0.0,0.0,0.0,0.0,0.0,0.0,0.0,0.0,0.0,0.0,0.0,0.0,0.0,0.0,0.0,0.0,0.0,0.0,0.0,0.0,0.0,0.0,0.0,0.0,0.0,0.0,0.0,0.0,0.0,0.0,0.0,0.0,0.0,0.0,0.0,0.0,0.0,0.0,0.0,0.0,0.0,0.0,0.0,0.0,0.0,0.0,0.0,0.0,0.0,0.0,0.0,0.0,0.0,0.0,0.0,0.0,0.0,0.0,0.0,0.0,0.0,0.0,0.0,0.0,0.0,0.0,0.0,0.0,0.0,0.0,0.0,0.0,0.0,0.0,0.0,0.0,0.0,0.0,0.0,0.0,0.0,0.0,0.0,0.0,0.0,0.0,0.0,0.0,0.0,0.0,0.0,0.0,0.0,0.0,0.0,0.0,0.0,0.0,0.0,0.0,0.0,0.0,0.0,0.0,0.0,0.0,0.0,0.0,0.0,0.0,0.0,0.0,0.0,0.0,0.0,0.0,0.0,0.0,0.0,0.0,0.0,0.0,0.0,0.0,0.0,0.0,0.0,0.0,0.0,0.0,0.0,0.0,0.0,0.0,0.0,0.0,0.0,0.0,0.0,0.0,0.0,0.0,0.0,0.0,0.0,0.0,0.0,0.0,0.0,0.0,0.0,0.0,0.0,0.0,0.0,0.0,0.0,0.0,0.0,0.0,0.0,0.0,0.0,0.0,0.0,0.0,0.0,0.0,0.0,0.0,0.0,0.0,0.0,0.0,0.0,0.0,0.0,0.0,0.0,0.0,0.0,0.0,0.0,0.0,0.0,0.0,0.0,0.0,0.0,0.0,0.0,0.0,0.0,0.0,0.0,0.0,0.0,0.0,0.0,0.0,0.0,0.0,0.0,0.0,0.0,0.0,0.0,0.0,0.0,0.0,0.0,0.0,0.0,0.0,0.0,0.0,0.0,0.0,0.0,0.0,0.0,0.0,0.0,0.0,0.0,0.0,0.0,0.0,0.0,0.0,0.0,0.0,0.0,0.0,0.0,0.0,0.0,0.0,0.0,0.0,0.0,0.0,0.0,0.0,0.0,0.0,0.0,0.0,0.0,0.0,0.0,0.0,0.0,0.0,0.0,0.0,0.0,0.0,0.0,0.0,0.0,0.0,0.0,0.0,0.0,0.0,0.0,0.0,0.0,0.0,0.0,0.0,0.0,0.0,0.0,0.0,0.0,0.0,0.0,0.0,0.0,0.0,0.0,0.0,0.0,0.0,0.0,0.0,0.0,0.0,0.0,0.0,0.0,0.0,0.0,0.0,0.0,0.0,0.0,0.0,0.0,0.0,0.0,0.0,0.0,0.0,0.0,0.0,0.0,0.0,0.0,0.0,0.0,0.0,0.0,0.0,0.0,0.0,0.0,0.0,0.0,0.0,0.0,0.0,0.0,0.0,0.0,0.0,0.0,0.0,0.0,0.0,0.0,0.0,0.0,0.0,0.0,0.0,0.0,0.0,0.0,0.0,0.0,0.0,0.0,0.0,0.0,0.0,0.0,0.0,0.0,0.0,0.0,0.0,0.0,0.0,0.0,0.0,0.0,0.0,0.0,0.0,0.0,0.0,0.0,0.0,0.0,0.0,0.0,0.0,0.0,0.0,0.0,0.0,0.0,0.0,0.0,0.0,0.0,0.0,0.0,0.0,0.0,0.0,0.0,0.0,0.0,0.0,0.0,0.0,0.0,0.0,0.0,0.0,0.0,0.0,0.0,0.0,0.0,0.0,0.0,0.0,0.0,0.0,0.0,0.0,0.0,0.0,0.0,0.0,0.0,0.0,0.0,0.0,0.0,0.0,0.0,0.0,0.0,0.0,0.0,0.0,0.0,0.0,0.0,0.0,0.0,0.0,0.0,0.0,0.0,0.0,0.0,0.0,0.0,0.0,0.0,0.0,0.0,0.0,0.0,0.0,0.0,0.0,0.0,0.0,0.0,0.0,0.0,0.0,0.0,0.0,0.0,0.0,0.0,0.0,0.0,0.0,0.0,0.0,0.0,0.0,0.0,0.0,0.0,0.0,0.0,0.0,0.0,0.0,0.0,0.0,0.0,0.0,0.0,0.0,0.0,0.0,0.0,0.0,0.0,0.0,0.0,0.0,0.0,0.0,0.0,0.0,0.0,0.0,0.0,0.0,0.0,0.0,0.0,0.0,0.0,0.0,0.0,0.0,0.0,0.0,0.0,0.0,0.0,0.0,0.0,0.0,0.0,0.0,0.0,0.0,0.0,0.0,0.0,0.0,0.0,0.0,0.0,0.0,0.0,0.0,0.0,0.0,0.0,0.0,0.0,0.0,0.0,0.0,0.0,0.0,0.0,0.0,0.0,0.0,0.0,0.0,0.0,0.0,0.0,0.0,0.0,0.0,0.0,0.0,0.0,0.0,0.0,0.0,0.0,0.0,0.0,0.0,0.0,0.0,0.0,0.0,0.0,0.0,0.0,0.0,0.0,0.0,0.0,0.0,0.0,0.0,0.0,0.0,0.0,0.0,0.0,0.0,0.0,0.0,0.0,0.0,0.0,0.0,0.0,0.0,0.0,0.0,0.0,0.0,0.0,0.0,0.0,0.0,0.0,0.0,0.0,0.0,0.0,0.0,0.0,0.0,0.0,0.0,0.0,0.0,0.0,0.0,0.0,0.0,0.0,0.0,0.0,0.0,0.0,0.0,0.0,0.0,0.0,0.0,0.0,0.0,0.0,0.0,0.0,0.0,0.0,0.0,0.0,0.0,0.0,0.0,0.0,0.0,0.0,0.0,0.0,0.0,0.0,0.0,0.0,0.0,0.0,0.0,0.0,0.0,0.0,0.0,0.0,0.0,0.0,0.0,0.0,0.0,0.0,0.0,0.0,0.0,0.0,0.0,0.0,0.0,0.0,0.0,0.0,0.0,0.0,0.0,0.0,0.0,0.0,0.0,0.0,0.0,0.0,0.0,0.0,0.0,0.0,0.0,0.0,0.0,0.0,0.0,0.0,0.0,0.0,0.0,0.0,0.0,0.0,0.0,0.0,0.0,0.0,0.0,0.0,0.0,0.0,0.0,0.0,0.0,0.0,0.0,0.0,0.0,0.0,0.0,0.0,0.0,0.0,0.0,0.0,0.0,0.0,0.0,0.0,0.0,0.0,0.0,0.0,0.0,0.0,0.0,0.0,0.0,0.0,0.0,0.0,0.0,0.0,0.0,0.0,0.0,0.0,0.0,0.0,0.0,0.0,0.0,0.0,0.0,0.0,0.0,0.0,0.0,0.0,0.0,0.0,0.0,0.0,0.0,0.0,0.0,0.0,0.0,0.0,0.0,0.0,0.0,0.0,0.0,0.0,0.0,0.0,0.0,0.0,0.0,0.0,0.0,0.0,0.0,0.0,0.0,0.0,0.0,0.0,0.0,0.0,0.0,-2.6726,0.0,0.0,0.0,0.0,0.0,0.0,0.0,0.0,0.0,0.0,0.0,0.0,0.0,0.0,0.0,0.0,0.0,0.0,0.0,0.0,0.0,0.0,0.0,0.0,0.0,0.0,0.0,0.0,0.0,0.0,0.0,0.0,0.0,0.0,0.0,0.0,0.0,0.0,0.0,-4.7793,-4.7168,-4.6992,-4.748,-4.8359,-4.9496,0.0,0.0,0.0,0.0,0.0,0.0,0.0,0.0,0.0,0.0,0.0,0.0,0.0,0.0,0.0,0.0,0.0,0.0,0.0,0.0,0.0,0.0,0.0,0.0,0.0,0.0,0.0,0.0,0.0,0.0,0.0,0.0,0.0,0.0,0.0,0.0,0.0,0.0,0.0,0.0,0.0,0.0,0.0,0.0,0.0,0.0,0.0,0.0,0.0,0.0,0.0,0.0,0.0,0.0,0.0,0.0,0.0,0.0,0.0,0.0,0.0,0.0,0.0,0.0,0.0,0.0,0.0,0.0,0.0,0.0,0.0,-2.3354,0.0,0.0,0.0,0.0,0.0,0.0,0.0,0.0,0.0,0.0,0.0,0.0,0.0,0.0,0.0,0.0,0.0,0.0,0.0,0.0,0.0,0.0,0.0,0.0,-4.707,-4.6562,-4.6973,-4.7383,0.0,0.0,0.0,0.0,0.0,0.0,0.0,-4.707,-4.7383,-4.8301,-4.6933,-4.5898,-4.5215,-4.4844,-4.5586,-4.7285,-4.9101,0.0,0.0,0.0,0.0,0.0,0.0,0.0,0.0,0.0,0.0,0.0,0.0,0.0,0.0,0.0,0.0,0.0,0.0,0.0,0.0,0.0,0.0,0.0,0.0,0.0,0.0,0.0,0.0,0.0,0.0,0.0,0.0,0.0,0.0,0.0,0.0,0.0,0.0,0.0,0.0,0.0,0.0,0.0,0.0,0.0,0.0,0.0,0.0,0.0,0.0,0.0,0.0,0.0,0.0,0.0,0.0,0.0,0.0,0.0,0.0,0.0,0.0,0.0,-2.9609,-2.8427,-2.6713,-2.5467,-2.2627,-1.8736,-2.0261,-2.0913,-2.0827,-2.0871,0.0,0.0,0.0,0.0,0.0,0.0,0.0,0.0,0.0,0.0,0.0,0.0,0.0,0.0,0.0,0.0,0.0,0.0,0.0,0.0,0.0,-4.8164,-4.8281,-4.748,-4.8144,-4.8457,0.0,0.0,0.0,0.0,0.0,0.0,-4.6484,-4.6777,-4.666,-4.6094,-4.4414,-4.3535,-4.3418,-4.3359,-4.3281,-4.3281,-4.541,-4.6719,-4.7363,0.0,0.0,0.0,0.0,0.0,0.0,0.0,0.0,0.0,0.0,0.0,0.0,0.0,0.0,0.0,0.0,0.0,0.0,0.0,0.0,0.0,0.0,0.0,0.0,0.0,0.0,0.0,0.0,0.0,0.0,0.0,0.0,0.0,0.0,0.0,0.0,0.0,0.0,0.0,0.0,0.0,-2.8604,-2.8604,0.0,0.0,0.0,0.0,0.0,0.0,0.0,0.0,0.0,0.0,0.0,0.0,0.0,-2.9793,-3.0555,-3.0568,-3.0595,-3.0675,-2.8211,-2.6817,-2.6191,-2.1843,-1.9475,-1.8748,-1.7072,0.0,-1.5629,-1.5597,0.0,0.0,0.0,0.0,0.0,0.0,0.0,0.0,0.0,0.0,0.0,0.0,0.0,0.0,0.0,0.0,0.0,0.0,0.0,0.0,0.0,-4.6914,-4.666,-4.6523,-4.6621,-4.6719,-4.6777,-4.7012,0.0,0.0,0.0,-4.6445,-4.6308,-4.5781,-4.4961,-4.3848,-4.3086,-4.248,-4.2012,-4.2012,-4.1777,-4.1406,-4.2344,-4.3926,-4.5859,-4.5859,0.0,0.0,0.0,0.0,0.0,0.0,0.0,0.0,0.0,0.0,0.0,0.0,0.0,0.0,0.0,0.0,0.0,0.0,0.0,0.0,0.0,0.0,0.0,0.0,0.0,0.0,0.0,0.0,0.0,0.0,0.0,0.0,0.0,0.0,0.0,0.0,0.0,0.0,0.0,-2.9072,-2.9352,-2.8684,-2.9419,-2.9913,0.0,0.0,0.0,0.0,0.0,0.0,0.0,0.0,0.0,-2.9967,-3.014,-3.0327,-3.0541,-2.9199,-2.8669,-2.8966,-2.6326,-2.4335,-2.3013,-2.0755,-1.8904,-1.7496,-1.6279,-1.5628,-1.5337,-1.4936,-1.5271,-1.6054,0.0,0.0,0.0,0.0,-1.5824,-1.497,0.0,0.0,0.0,0.0,0.0,0.0,0.0,0.0,0.0,0.0,0.0,0.0,-4.6289,-4.543,-4.4941,-4.5156,-4.5078,-4.5156,-4.5488,-4.5801,0.0,0.0,-4.5898,-4.5664,-4.5976,-4.4609,-4.3301,-4.2109,-4.1894,-4.1465,-4.084,-4.084,-4.0605,-4.0195,-4.0312,-4.1738,-4.4043,-4.416,-4.4941,-4.6094,0.0,0.0,0.0,0.0,0.0,0.0,0.0,0.0,0.0,0.0,0.0,0.0,0.0,0.0,0.0,0.0,0.0,0.0,0.0,0.0,0.0,0.0,0.0,0.0,0.0,0.0,0.0,0.0,0.0,0.0,0.0,0.0,0.0,0.0,0.0,0.0,0.0,-2.9232,-2.9673,-2.8724,-2.9446,-2.9873,0.0,0.0,0.0,0.0,0.0,0.0,-2.9446,-2.9619,-2.99,-3.0341,-3.0635,-3.0505,-2.9765,-2.8029,-2.7413,-2.7868,-2.5345,-2.3634,-2.2812,-2.1301,-1.9591,-1.7574,-1.6602,-1.609,-1.5866,-1.5269,-1.476,-1.4367,-1.4516,-1.4529,-1.4509,-1.4848,-1.5038,-1.5126,0.0,0.0,0.0,0.0,0.0,0.0,0.0,0.0,0.0,0.0,0.0,-4.4531,-4.4531,-4.4473,-4.4258,-4.3848,-4.4551,-4.5039,-4.5058,-4.5078,-4.5273,-4.5723,-4.5293,-4.5058,-4.5078,-4.3398,-4.2109,-4.123,-4.043,-4.0,-3.9961,-3.9961,-3.9707,-3.9277,-3.9726,-4.0469,-4.1387,-4.1797,-4.2695,-4.4004,-4.5625,0.0,0.0,0.0,0.0,0.0,0.0,0.0,0.0,0.0,0.0,0.0,0.0,0.0,0.0,0.0,0.0,0.0,0.0,0.0,0.0,0.0,0.0,0.0,0.0,0.0,0.0,0.0,0.0,0.0,0.0,0.0,0.0,0.0,0.0,0.0,0.0,0.0,0.0,-2.8644,-2.8898,0.0,0.0,0.0,0.0,-2.8644,-2.9125,-2.9432,-2.9486,-2.9232,-2.9472,-3.0341,-3.0635,-2.9939,-2.8159,-2.8222,-2.848,-2.8761,-2.6275,-2.6402,-2.8687,-2.3748,-2.1145,-2.0491,-1.7676,-1.6334,-1.6022,-1.5418,-1.5153,-1.5099,-1.4835,-1.4814,-1.4936,-1.4964,-1.4977,-1.4984,0.0,0.0,0.0,0.0,0.0,0.0,0.0,0.0,0.0,-4.5469,-4.459,-4.4062,-4.4355,-4.3398,-4.2891,-4.3262,-4.2832,-4.2773,-4.332,-4.3613,-4.4101,-4.4824,-4.4961,-4.4375,-4.2988,-4.1543,-4.0508,-3.9902,-3.9336,-3.9336,-3.9902,-3.9902,-3.9648,-3.9199,-3.9375,-3.9473,-3.9551,-4.0273,-4.1152,-4.2148,-4.3047,-4.3201,0.0,0.0,0.0,0.0,0.0,0.0,0.0,0.0,0.0,0.0,0.0,0.0,0.0,0.0,0.0,0.0,0.0,0.0,0.0,0.0,0.0,0.0,0.0,0.0,0.0,0.0,0.0,0.0,0.0,0.0,0.0,0.0,0.0,0.0,0.0,0.0,0.0,-2.9459,-2.9873,0.0,-2.9606,-2.9085,-2.8871,-2.9152,-2.9018,-2.9245,-3.0007,-3.0301,-3.0768,-3.1463,-3.1944,-3.1847,-3.1253,-2.9988,-2.933,-2.9424,-2.7025,-2.6295,-2.6993,-2.3304,-2.1385,-2.0713,-1.78,-1.6354,-1.6056,-1.5744,-1.5445,-1.5174,-1.5065,-1.5004,-1.4991,-1.5181,-1.5316,-1.5404,0.0,0.0,0.0,0.0,0.0,0.0,0.0,0.0,-4.4531,-4.4394,-4.3476,-4.2969,-4.3281,-4.2148,-4.1601,-4.2168,-4.1445,-4.125,-4.1953,-4.2402,-4.3047,-4.3906,-4.3945,-4.2988,-4.0976,-4.0098,-3.9375,-3.8769,-3.8496,-3.873,-3.9453,-3.9297,-3.9141,-3.8984,-3.8984,-3.8828,-3.8613,-3.9355,-4.0,-4.0586,-4.1445,-4.1571,-4.1294,0.0,0.0,0.0,0.0,0.0,0.0,0.0,0.0,0.0,0.0,0.0,0.0,0.0,0.0,0.0,0.0,0.0,0.0,0.0,0.0,0.0,0.0,0.0,0.0,0.0,0.0,0.0,0.0,0.0,0.0,0.0,0.0,0.0,0.0,0.0,-2.9847,-3.0047,-3.0327,-3.0381,-3.0087,-2.9446,-2.9165,-2.9459,-2.9392,-2.9726,-3.0608,-3.1209,-3.1704,-3.2091,-3.1952,-3.1739,-3.1659,-2.9518,-2.8997,-2.9939,-2.8374,-2.7482,-2.7228,-2.4423,-2.2291,-2.0612,-1.7778,-1.6354,-1.6076,-1.5974,-1.5757,-1.5472,-1.5377,-1.5276,-1.5228,-1.5472,-1.5622,-1.5703,0.0,0.0,0.0,0.0,0.0,0.0,0.0,-4.4238,-4.3535,-4.3105,-4.1973,-4.1211,-4.1191,-4.0801,-4.0547,-4.0547,-4.0527,-4.0703,-4.1152,-4.1543,-4.2148,-4.3008,-4.2187,-4.0918,-3.9219,-3.916,-3.873,-3.791,-3.791,-3.8144,-3.8555,-3.8144,-3.8164,-3.8574,-3.8574,-3.8574,-3.8574,-3.9004,-3.918,-3.9316,-4.1055,-4.2012,-4.2295,0.0,0.0,0.0,0.0,0.0,0.0,0.0,0.0,0.0,0.0,0.0,0.0,0.0,0.0,0.0,0.0,0.0,0.0,0.0,0.0,0.0,0.0,0.0,0.0,0.0,0.0,0.0,0.0,0.0,0.0,0.0,0.0,0.0,-2.8925,-2.9285,-2.9713,-3.0287,-3.0127,-2.9847,-2.9579,-2.9793,-2.9847,-2.9579,-3.0341,-3.0955,-3.1249,-3.181,-3.2118,-3.2048,-3.0487,-2.9448,-2.8955,-2.7105,-2.7553,-3.0302,-3.0198,-3.0198,-3.0059,-2.6879,-2.3727,-2.0427,-1.772,-1.6347,-1.6083,-1.6083,-1.6083,-1.6056,-1.5764,-1.5655,-1.5669,-1.5811,-1.5859,-1.5832,0.0,0.0,0.0,0.0,0.0,0.0,0.0,-4.3398,-4.3086,-4.2656,-4.2305,-4.1973,-4.166,-4.125,-4.0996,-4.0996,-4.043,-4.0391,-4.1133,-4.0976,-4.125,-4.2109,-4.043,-3.9238,-3.875,-3.8144,-3.7695,-3.7461,-3.7773,-3.8144,-3.8574,-3.8457,-3.8457,-3.8574,-3.8574,-3.8398,-3.8125,-3.8555,-3.8555,-3.8437,-4.0176,-4.1133,-4.1424,0.0,0.0,0.0,0.0,0.0,0.0,0.0,0.0,0.0,0.0,0.0,0.0,0.0,0.0,0.0,0.0,0.0,0.0,0.0,0.0,0.0,0.0,0.0,0.0,0.0,0.0,0.0,0.0,0.0,0.0,0.0,0.0,-2.8288,-2.8364,-2.9205,-2.994,-3.0314,-3.0662,-3.0915,-3.1062,-3.0942,-3.1009,-3.1356,-3.141,-3.165,-3.2158,-3.2332,-3.1705,-2.9991,-3.1731,-3.1703,-2.9753,-3.1426,-3.2616,-3.3162,-3.134,-3.0175,-2.9518,-2.4707,-2.178,-2.0342,-1.7559,-1.6259,-1.6083,-1.6083,-1.6083,-1.6076,-1.5995,-1.5961,-1.5967,-1.6001,-1.5947,-1.5818,0.0,0.0,0.0,0.0,0.0,0.0,0.0,-4.293,-4.2578,-4.1992,-4.2051,-4.1875,-4.1094,-4.0937,-4.082,-4.0664,-4.0351,-4.0371,-4.0859,-4.0996,-4.1035,-4.0996,-3.9609,-3.8672,-3.8301,-3.7812,-3.7559,-3.7559,-3.7812,-3.8144,-3.8574,-3.8379,-3.8398,-3.8574,-3.8574,-3.8437,-3.8223,-3.8476,-3.8535,-3.8555,-3.9766,-4.0508,-4.088,-4.064,-4.1119,-4.188,-4.2393,-4.2802,-4.3397,-4.4663,0.0,0.0,0.0,0.0,0.0,0.0,0.0,0.0,0.0,0.0,0.0,0.0,0.0,0.0,0.0,0.0,0.0,0.0,0.0,0.0,0.0,0.0,0.0,0.0,-2.8791,-2.8925,-2.9145,-2.9459,-3.0034,-3.0808,-3.1209,-3.157,-3.1998,-3.1877,-3.1917,-3.2265,-3.2131,-3.2238,-3.2706,-3.2973,-3.1929,-2.9358,-3.1503,-3.1842,-2.9966,-3.1936,-3.3434,-3.4322,-3.161,-2.9388,-2.7711,-2.3203,-2.0253,-1.8683,-1.7034,-1.6225,-1.6083,-1.6083,-1.6083,0.0,0.0,0.0,0.0,0.0,-1.5906,-1.5655,0.0,0.0,0.0,0.0,0.0,0.0,0.0,-4.2676,-4.2129,-4.1289,-4.1582,-4.1367,-4.0039,-4.0234,-4.0332,-4.0,-4.0273,-4.0469,-4.0527,-4.1191,-4.1055,-3.9863,-3.9277,-3.8652,-3.7949,-3.793,-3.793,-3.793,-3.7969,-3.8203,-3.8574,-3.8184,-3.8203,-3.8574,-3.8574,-3.8574,-3.8574,-3.8633,-3.8867,-3.9258,-3.9824,-4.0254,-4.0723,-4.1914,-4.2851,-4.3613,-4.3984,-4.4336,-4.4609,-4.4238,0.0,0.0,0.0,0.0,0.0,0.0,0.0,0.0,0.0,0.0,0.0,0.0,0.0,0.0,0.0,0.0,0.0,0.0,0.0,0.0,0.0,0.0,0.0,0.0,-2.9259,-3.0087,-3.0408,-3.006,-3.0274,-3.161,-3.1797,-3.2038,-3.2599,-3.2652,-3.2639,-3.2639,-3.2652,-3.2772,-3.3066,0.0,0.0,0.0,0.0,-3.0917,-3.006,-3.0679,-3.1948,-3.3834,-3.0787,-2.7818,-2.4968,-2.1801,-1.8986,-1.649,-1.6368,-1.6225,-1.6083,-1.6083,-1.6069,-1.6056,-1.6076,-1.6083,-1.6076,-1.6042,-1.5778,-1.5452,0.0,0.0,0.0,0.0,0.0,0.0,0.0,-4.248,-4.2129,-4.1289,-4.1836,-4.1699,-4.0078,-3.9961,-4.0117,-4.0371,-4.0156,-4.0156,-4.0508,-4.0351,-3.998,-3.9355,-3.8262,-3.7754,-3.791,-3.793,-3.793,-3.793,-3.8281,-3.8496,-3.8574,-3.8496,-3.8496,-3.8574,-3.8574,-3.8574,-3.8594,-3.8945,-3.9121,-3.9297,-4.0469,-4.0976,-4.1113,-4.1699,-4.2226,-4.2637,-4.2402,-4.2344,-4.2402,-4.2324,-4.2246,-4.1967,-4.0621,-4.1003,0.0,0.0,0.0,0.0,0.0,0.0,0.0,0.0,0.0,0.0,0.0,0.0,0.0,0.0,0.0,0.0,0.0,0.0,0.0,-2.9513,-2.9967,-3.0461,-3.0982,-3.137,-3.1784,-3.2318,-3.2585,-3.2866,-3.324,-3.3253,-3.324,-3.324,-3.3267,-3.34,-3.3694,-3.3828,-3.2725,-3.0294,-3.2713,-3.2957,-3.0799,-3.2906,-3.3002,-3.1123,0.0,0.0,-2.1873,-1.8884,-1.7111,-1.6347,-1.632,-1.6225,-1.6083,-1.6083,-1.6008,-1.5906,-1.6035,-1.6083,-1.6056,-1.5811,-1.5669,-1.556,0.0,0.0,0.0,0.0,0.0,0.0,0.0,-4.2285,-4.2285,-4.1855,-4.2539,-4.2656,-4.1601,-4.1484,-4.1484,-4.1465,-4.1094,-4.084,-4.084,-4.0449,-3.9805,-3.8926,-3.8281,-3.8027,-3.8242,-3.8242,-3.8242,-3.8242,-3.8476,-3.8574,-3.8574,-3.8574,-3.8574,-3.8594,-3.8789,-3.8887,-3.8926,-3.9355,-3.9805,-4.0273,-4.1133,-4.1738,-4.2129,-4.2109,-4.2246,-4.2402,-4.2187,-4.1836,-4.1484,-4.1484,-4.1055,-4.0413,-3.981,-3.961,-3.8945,0.0,0.0,0.0,0.0,0.0,0.0,0.0,0.0,0.0,0.0,0.0,0.0,0.0,0.0,-2.8684,0.0,0.0,-2.9753,-2.9887,-3.0408,-3.1049,-3.1784,-3.2265,-3.2652,-3.2946,-3.3253,-3.3494,-3.3654,-3.3654,-3.3022,-3.1554,-3.282,-3.3232,-3.2169,-3.3575,-3.3239,-3.074,-3.3467,-3.3636,-3.0952,-3.1984,-3.1849,-3.0341,-2.5635,-2.2675,-2.1125,-1.7997,-1.6558,-1.6408,-1.6259,-1.6151,-1.6083,-1.6083,-1.6035,-1.5974,-1.6049,-1.5947,-1.5737,-1.5669,-1.554,-1.5398,0.0,0.0,0.0,0.0,0.0,0.0,0.0,0.0,-4.2402,-4.2324,-4.3125,-4.3457,-4.2773,-4.2851,-4.2851,-4.2578,-4.209,-4.166,-4.1308,-4.0801,-3.9941,-3.8633,-3.875,-3.875,-3.8574,-3.8652,-3.8691,-3.8691,-3.8691,-3.875,-3.8828,-3.8828,-3.8828,-3.8848,-3.918,-3.9375,-3.9492,-3.9941,-4.0644,-4.1465,-4.1973,-4.2637,-4.3301,-4.3027,-4.2773,-4.2558,-4.2558,-4.1953,-4.1152,-4.0976,-4.0156,-3.9184,-3.9179,-3.8292,-3.6832,-3.518,-3.3678,0.0,0.0,0.0,0.0,0.0,0.0,0.0,0.0,0.0,-2.8194,-2.7989,-2.8577,-2.9165,-2.9272,-2.9873,-3.0301,-3.0114,-3.0782,-3.1583,-3.2345,-3.2866,-3.3267,-3.3547,-3.3868,-3.4015,-3.3895,-3.3988,-3.3057,-3.0527,-3.2622,-3.3201,-3.1393,-3.3523,-3.3875,-3.1817,-3.3989,-3.3778,-3.0952,-3.0587,-2.9837,-2.8706,-2.3666,-2.1074,-2.0466,-1.779,-1.6551,-1.6503,-1.6212,-1.6083,-1.6083,-1.6083,-1.6062,-1.6035,-1.6008,-1.5757,-1.5432,-1.5581,-1.5466,-1.5242,0.0,0.0,0.0,0.0,0.0,0.0,0.0,0.0,0.0,-4.1914,-4.2949,-4.3105,-4.1562,-4.2051,-4.2637,-4.2969,-4.2266,-4.1777,-4.1738,-4.0976,-3.9941,-3.8633,-3.9336,-3.9375,-3.8594,-3.8945,-3.9141,-3.9141,-3.9141,-3.9336,-3.9746,-3.9746,-3.9746,-3.9746,-3.9805,-4.0019,-4.041,-4.084,-4.1523,-4.2363,-4.3164,-4.3789,-4.4297,-4.4609,-4.4023,-4.3008,-4.3008,-4.2226,-4.1055,-4.0293,-3.9668,-3.8903,-3.7201,-3.7427,-3.7652,-3.3794,-3.3255,-3.3384,-3.0668,-2.9098,-2.814,-2.7509,-2.7362,-2.7348,0.0,0.0,-2.8283,-2.8791,-2.9179,-2.9593,-3.0114,-3.0301,-3.0434,-3.0662,-3.1209,-3.1744,-3.2104,-3.3093,-3.3895,-3.4189,-3.4482,-3.4456,-3.3935,-3.4362,-3.4339,-3.3501,-3.4259,-3.4592,-3.4333,-3.4899,-3.5045,-3.4755,-3.498,-3.3778,-3.0952,-3.0587,-2.7899,-2.3149,-2.184,-2.0099,-1.7801,-1.7029,-1.6653,-1.6503,-1.6212,-1.6083,-1.6083,-1.6083,-1.6001,-1.5866,-1.5737,-1.5574,-1.5432,-1.5581,-1.5533,-1.5371,0.0,0.0,0.0,0.0,0.0,0.0,0.0,0.0,0.0,0.0,-4.3457,-4.4023,-4.3808,-4.3887,-4.4004,-4.4199,-4.2949,-4.207,-4.1816,-4.0996,-4.0039,-3.8984,-3.9551,-3.9726,-3.9355,-3.9512,-3.9609,-3.9609,-3.9609,-3.9707,-3.9902,-4.0156,-4.0137,-3.9922,-4.0664,-4.1094,-4.1308,-4.1992,-4.293,-4.3984,-4.4609,-4.4961,-4.5195,-4.5605,-4.4648,-4.3183,-4.3945,-4.3223,0.0,-4.1484,-4.0586,-3.946,-3.8594,-3.7065,-3.5347,-3.4387,-3.2487,-3.0458,-2.9254,-2.8524,0.0,0.0,-2.7909,-2.7829,-2.8003,-2.8497,-2.8951,-2.9018,-2.9406,-2.9913,-3.0501,-3.0474,-3.0621,0.0,-3.1623,-3.1957,-3.2772,-3.316,-3.34,-3.3521,-3.3801,-3.4015,-3.4122,-3.4202,-3.3586,-3.1709,-3.372,-3.4255,-3.2623,-3.458,-3.5631,-3.5458,-3.5444,-3.4021,-3.1188,-2.9089,-2.6152,-2.2041,-2.0007,-1.9159,-1.9332,-1.7501,-1.649,-1.6259,-1.6137,-1.6083,-1.6076,-1.5988,-1.5913,-1.5839,-1.5696,-1.5547,-1.5404,-1.5384,-1.5337,-1.5269,0.0,0.0,0.0,0.0,0.0,0.0,0.0,0.0,0.0,0.0,0.0,-4.4726,-4.5586,-4.5293,-4.5117,-4.5351,-4.3906,-4.2734,-4.2187,-4.1348,-4.043,-3.9434,-3.9824,-4.0019,-3.9902,-4.0019,-4.0117,-4.0254,-4.0254,-4.0371,-4.0605,-4.0898,-4.0879,-4.0644,-4.168,-4.2226,-4.2383,-4.3242,-4.4297,-4.541,-4.5723,-4.584,-4.5859,-4.5918,-4.498,-4.373,-4.4551,-4.373,-4.2266,-4.2383,-4.1543,-4.0334,-3.9702,-3.7216,-3.4601,-3.4532,-3.1568,-2.827,-2.827,0.0,0.0,-2.8524,-2.8497,-2.8511,-2.8978,-2.9419,-2.974,-2.9766,-2.998,-3.0314,-3.0822,-3.0675,-3.0808,-3.1824,-3.1877,-3.2171,-3.328,-3.324,-3.3093,-3.3093,-3.3,-3.3173,-3.3774,-3.3868,-3.3133,-3.1218,-3.3627,-3.4359,-3.2246,-3.4691,-3.5939,-3.5645,-3.5631,-3.3841,-3.0049,-2.7691,-2.4585,-2.0751,-1.9148,-1.8902,-1.9743,-1.7529,-1.6327,-1.6083,-1.6083,-1.6083,-1.6076,-1.5961,-1.5893,-1.5839,-1.5696,-1.5547,-1.5391,-1.5242,-1.5181,-1.5181,0.0,0.0,0.0,0.0,0.0,0.0,0.0,0.0,0.0,0.0,0.0,0.0,0.0,0.0,-4.5351,-4.6191,-4.5078,-4.3965,-4.3105,-4.2226,-4.1191,-3.9922,-4.0273,-4.0312,-3.9902,-4.0293,-4.0703,-4.1133,-4.1133,-4.1562,-4.2344,-4.2363,-4.2363,-4.2363,-4.2832,-4.3262,-4.3711,-4.459,-4.5469,-4.6269,-4.6289,-4.6289,-4.6191,-4.5371,-4.5019,-4.4922,-4.4551,-4.3301,-4.1875,-4.2285,-4.2129,-4.1324,-3.908,-3.8006,-3.6885,-3.3436,-3.0567,-2.8591,0.0,0.0,-2.8301,-2.8524,-2.8818,-2.9245,-3.0114,-3.0314,-3.0568,-3.141,-3.1156,-3.0862,-3.1156,-3.0982,-3.0982,-3.1583,-3.1904,-3.2398,-3.3293,-3.34,-3.34,-3.34,-3.2412,-3.1957,0.0,-3.3374,-3.3895,-3.3793,-3.4696,-3.5324,-3.5485,-3.5899,-3.5939,-3.5645,-3.5631,-3.2751,-2.6647,-2.6529,-2.3512,-1.7745,-1.9981,-1.9625,-1.707,-1.6517,-1.6232,-1.6083,-1.6083,-1.6083,-1.6083,-1.6076,-1.5988,-1.5839,-1.5696,-1.5547,-1.5391,-1.5242,-1.5181,-1.5181,0.0,0.0,0.0,0.0,0.0,0.0,0.0,0.0,0.0,0.0,0.0,0.0,0.0,0.0,0.0,0.0,-4.498,-4.4277,-4.3965,-4.2871,-4.1894,-4.1191,-4.1289,-4.1308,-4.1152,-4.1562,-4.1719,-4.1582,-4.1582,-4.1582,-4.1601,-4.2168,-4.2422,-4.248,-4.3496,-4.4199,-4.4609,-4.5215,-4.5937,-4.6699,-4.6426,-4.6308,-4.623,-4.5683,-4.5098,-4.4668,0.0,-4.4512,-4.3555,-4.3691,-4.2029,-3.98,-3.9132,-3.6617,0.0,-3.1152,0.0,0.0,0.0,0.0,-2.8951,-2.9833,-3.0127,-3.0434,-3.1316,-3.1517,-3.149,-3.1396,-3.1062,-3.0702,-3.0408,-3.0114,-3.0368,-3.173,-3.1877,-3.2332,-3.3801,-3.3668,-3.32,-3.2612,-3.2198,0.0,0.0,0.0,0.0,-3.4082,-3.4817,-3.5404,-3.5899,-3.638,-3.65,-3.6219,-3.6019,-3.3988,-2.9938,-2.9601,-2.73,-2.3116,-2.3278,-2.1834,-1.9135,-1.8836,-1.7794,-1.6083,-1.6083,-1.6083,-1.6062,-1.5872,-1.5757,-1.5683,-1.5432,-1.5303,-1.5255,-1.5201,-1.5181,-1.5181,0.0,0.0,0.0,0.0,0.0,0.0,0.0,0.0,0.0,0.0,0.0,0.0,0.0,0.0,0.0,0.0,0.0,-4.4785,-4.4629,-4.3535,-4.2832,-4.2734,-4.2422,-4.2402,-4.2715,-4.2832,-4.2832,-4.2734,-4.2422,-4.2187,-4.209,-4.2324,-4.2422,-4.248,-4.3633,-4.4297,-4.4609,-4.5351,-4.6074,-4.6699,-4.6582,-4.6523,-4.6465,-4.5898,-4.543,0.0,-4.5195,-4.4961,-4.4648,-4.4805,-4.3124,-4.0667,-3.9116,-3.5124,0.0,0.0,0.0,0.0,0.0,-2.9646,-3.0047,-3.1022,-3.1423,-3.1744,-3.2412,-3.2492,-3.2225,-3.153,-3.1062,-3.0581,-2.9887,-2.9432,-2.9646,-3.1089,-3.1169,-3.1704,-3.3574,-3.324,-3.2692,-3.2438,-3.2038,-3.161,0.0,0.0,0.0,-3.3881,-3.475,-3.5458,-3.6046,-3.662,-3.6754,-3.6366,-3.6166,-3.463,-3.1459,-3.0916,-2.9395,-2.6844,-2.4344,-2.2594,-2.1434,-1.9544,-1.7642,-1.6076,-1.6022,-1.6001,-1.5981,-1.5737,-1.5608,-1.554,-1.5343,-1.5228,-1.5181,-1.5181,-1.5181,-1.5181,0.0,0.0,0.0,0.0,0.0,0.0,0.0,0.0,0.0,0.0,0.0,0.0,0.0,0.0,0.0,0.0,0.0,0.0,-4.5137,-4.4277,-4.3984,-4.4473,-4.3672,-4.3613,-4.4453,-4.4043,-4.4043,-4.4473,-4.3633,-4.3398,-4.375,-4.2969,-4.2598,-4.2656,-4.3496,-4.3887,-4.4023,-4.5254,-4.6016,-4.6426,-4.6777,-4.6933,-4.6836,-4.6016,-4.5957,-4.6152,-4.4922,-4.4746,-4.5117,0.0,0.0,0.0,0.0,0.0,0.0,0.0,0.0,-2.9165,-2.9539,-3.0461,-3.145,-3.2051,-3.2625,-3.3106,-3.336,-3.3173,-3.2706,-3.181,-3.1142,-3.0461,0.0,0.0,-2.8925,-2.982,-3.0007,-3.0755,-3.2786,-3.2358,-3.2144,0.0,0.0,0.0,0.0,0.0,0.0,-3.34,0.0,-3.5431,-3.6086,-3.6647,-3.6687,-3.6112,-3.6086,-3.4463,-3.1189,-3.0799,-3.0033,-2.8819,-2.3433,-2.1922,-2.3686,-1.8525,-1.6083,-1.6076,-1.592,-1.5852,-1.5839,-1.5689,-1.554,-1.5411,-1.5404,-1.5309,-1.5181,-1.5181,-1.5181,-1.5181,0.0,0.0,0.0,0.0,0.0,0.0,0.0,0.0,0.0,0.0,0.0,0.0,0.0,0.0,0.0,0.0,0.0,0.0,-4.6406,-4.5351,-4.5019,-4.5781,-4.5312,-4.5117,-4.5351,-4.5547,-4.5547,-4.5351,-4.5137,-4.4902,-4.4687,-4.4805,-4.5019,-4.5332,-4.5879,-4.6465,-4.7051,-4.709,-4.7344,-4.7676,-4.7148,-4.6933,-4.6875,-4.6348,-4.6211,-4.6269,-4.5937,-4.5683,0.0,0.0,0.0,0.0,0.0,0.0,-2.8591,0.0,0.0,-2.9993,-3.1383,-3.2144,-3.2679,-3.328,-3.3708,-3.3881,-3.3494,-3.3013,-3.2345,-3.1236,-3.0381,-2.9619,0.0,0.0,0.0,-3.0394,-3.1303,0.0,-3.4082,-3.4309,0.0,-3.4002,0.0,-3.3066,-3.2679,-3.2772,0.0,0.0,-3.4496,-3.5177,-3.6647,-3.6861,-3.6754,-3.6393,-3.6179,-3.5562,-3.4419,-3.3719,-3.2788,-3.1858,-2.635,-2.381,-2.3686,-1.8525,-1.6083,-1.6076,-1.592,-1.5852,-1.5832,-1.5574,-1.5445,-1.5398,-1.5289,-1.5215,-1.5181,-1.5181,-1.5181,-1.5181,0.0,0.0,0.0,0.0,0.0,0.0,0.0,0.0,0.0,0.0,0.0,0.0,0.0,0.0,0.0,0.0,0.0,0.0,0.0,-4.5976,-4.5957,-4.6816,-4.6465,-4.6308,-4.6504,-4.6367,-4.6289,-4.623,-4.5859,-4.5644,-4.5586,-4.5449,-4.5508,-4.5762,-4.6191,-4.6641,-4.709,-4.7031,-4.7266,0.0,0.0,-4.7324,-4.7461,-4.7226,-4.7129,-4.709,-4.6719,0.0,0.0,0.0,0.0,-3.5451,-3.2713,-3.0684,-2.9526,-3.0608,0.0,-3.1142,-3.2398,-3.324,-3.3841,-3.4189,-3.4496,-3.4482,-3.3614,-3.2959,-3.2144,-3.0702,-2.9913,0.0,-2.8711,0.0,0.0,0.0,0.0,0.0,-3.4108,-3.4523,-3.4643,0.0,-3.4442,0.0,-3.3788,-3.3908,-3.4376,0.0,-3.5057,-3.5431,-3.6687,-3.6861,-3.6754,-3.6326,-3.6166,-3.5752,-3.5057,-3.4563,-3.3179,-3.1072,-2.6805,-2.3909,-2.2028,-1.7939,-1.6083,-1.6069,0.0,-1.5757,-1.5737,-1.5432,-1.5309,-1.5303,-1.5215,-1.5181,-1.5181,-1.5181,-1.5181,-1.5181,0.0,0.0,0.0,0.0,0.0,0.0,0.0,0.0,0.0,0.0,0.0,0.0,0.0,0.0,0.0,0.0,0.0,0.0,0.0,0.0,0.0,0.0,-4.7324,-4.7266,-4.7656,-4.6875,-4.666,-4.7012,-4.6348,-4.6191,-4.6543,-4.5859,-4.5527,-4.5547,-4.5918,-4.6133,-4.6211,-4.6504,-4.6894,-4.7305,-4.7617,-4.7969,-4.8281,0.0,-4.8203,0.0,0.0,0.0,0.0,0.0,-3.698,-3.4471,-3.4492,-3.2881,-3.1076,-3.1677,-3.2104,-3.2519,-3.3106,-3.4095,-3.4937,-3.4937,-3.5044,-3.483,-3.3627,-3.2812,-3.1837,-3.014,0.0,-2.9152,-2.8644,-2.815,-2.8417,-3.0234,0.0,-3.1476,-3.3841,-3.4175,-3.4469,-3.5271,-3.511,-3.4937,-3.4937,-3.4937,-3.5271,-3.6072,-3.5885,-3.5979,-3.654,-3.6794,-3.6687,-3.6086,-3.5992,-3.5431,-3.4336,-3.4322,-3.2378,-2.8654,-2.6043,-2.3115,-1.988,-1.7253,-1.6069,-1.6035,-1.5757,0.0,-1.5588,-1.5303,-1.5181,-1.5181,-1.5181,-1.5181,-1.5181,-1.5181,-1.5181,-1.5181,0.0,0.0,0.0,0.0,0.0,0.0,0.0,0.0,0.0,0.0,-4.4219,-4.4668,0.0,0.0,0.0,0.0,0.0,0.0,0.0,0.0,0.0,0.0,-4.8223,-4.8027,-4.8105,0.0,0.0,0.0,0.0,-4.7812,-4.7891,-4.8086,-4.8203,-4.8203,-4.8281,-4.8516,-4.8828,-4.8535,-4.8672,-4.9043,-4.875,-4.8691,-4.8711,-4.834,0.0,0.0,0.0,0.0,0.0,0.0,-3.7549,-3.4599,-3.3072,-3.2286,-3.1984,-3.2572,-3.332,-3.4068,-3.4656,-3.5324,-3.5845,-3.5845,-3.5338,-3.4523,-3.332,-3.2038,0.0,0.0,-2.8751,-2.8435,-2.8328,-2.835,-2.9112,-3.1116,0.0,0.0,0.0,0.0,-3.5845,0.0,0.0,0.0,0.0,0.0,0.0,0.0,0.0,-3.65,-3.6834,-3.6901,-3.6687,-3.6086,-3.5605,-3.5017,-3.4322,-3.4322,-3.2378,-2.8654,-2.6043,-2.3115,-1.988,-1.7253,-1.6015,-1.5886,-1.571,0.0,-1.5438,-1.5255,-1.5181,-1.5181,-1.5181,-1.5181,-1.5181,-1.5181,-1.5181,-1.5181,0.0,0.0,0.0,0.0,0.0,0.0,0.0,-4.2598,-4.3144,-4.4238,-4.4394,-4.4473,-4.4687,-4.4707,-4.4961,0.0,0.0,0.0,0.0,0.0,0.0,0.0,0.0,0.0,0.0,0.0,0.0,0.0,0.0,0.0,0.0,0.0,0.0,0.0,0.0,-4.9668,-4.9844,-4.9394,-4.9336,-4.9492,-4.9043,-4.8867,0.0,0.0,0.0,0.0,0.0,0.0,0.0,0.0,-3.6504,-3.3947,-3.3273,-3.3133,-3.34,-3.4135,-3.4656,-3.5191,-3.6086,-3.654,-3.6727,-3.658,-3.5631,-3.4402,-3.3066,0.0,0.0,0.0,-2.8684,-2.847,-2.8778,0.0,0.0,0.0,0.0,0.0,0.0,0.0,0.0,0.0,0.0,0.0,0.0,0.0,0.0,0.0,0.0,-3.6794,-3.6941,-3.6647,-3.6366,-3.6086,-3.5351,-3.4111,-3.2207,-3.3431,-3.1428,-2.6266,-2.5283,-2.3058,-1.9639,-1.7217,-1.5995,-1.5852,-1.5778,0.0,-1.5404,-1.533,-1.5255,-1.5181,-1.5181,-1.5181,-1.5181,-1.5181,-1.5181,-1.5181,0.0,0.0,0.0,0.0,0.0,0.0,0.0,-4.2656,-4.334,-4.4707,-4.4844,-4.4707,-4.4433,-4.4394,-4.4746,0.0,0.0,0.0,0.0,0.0,0.0,0.0,0.0,0.0,0.0,0.0,0.0,0.0,0.0,0.0,0.0,0.0,0.0,0.0,0.0,0.0,0.0,-4.9766,-4.9609,0.0,0.0,0.0,0.0,0.0,0.0,0.0,0.0,0.0,0.0,0.0,-3.555,-3.3574,-3.3881,-3.4269,-3.471,-3.5271,-3.5712,-3.6206,-3.7128,-3.7489,-3.7489,-3.7128,-3.5832,-3.4295,-3.2866,-3.1183,0.0,0.0,-2.8858,-2.8845,-2.9299,0.0,-2.9352,0.0,0.0,0.0,0.0,0.0,0.0,0.0,0.0,0.0,0.0,0.0,0.0,0.0,0.0,0.0,-3.6861,-3.6353,-3.6046,-3.5979,-3.5191,-3.3342,-3.0198,-3.2596,-3.0588,-2.4186,-2.4505,-2.2882,-1.9572,-1.7195,-1.5995,-1.5852,-1.5818,0.0,0.0,-1.5391,-1.5309,-1.5228,-1.5194,-1.5181,-1.5181,-1.5181,-1.5181,-1.5181,0.0,0.0,0.0,0.0,0.0,0.0,0.0,-4.3437,-4.4277,-4.4433,-4.543,-4.5683,-4.4531,-4.4394,-4.4746,0.0,0.0,0.0,0.0,0.0,0.0,0.0,0.0,0.0,0.0,0.0,0.0,0.0,0.0,0.0,0.0,0.0,0.0,0.0,0.0,0.0,0.0,0.0,0.0,0.0,0.0,0.0,0.0,0.0,0.0,0.0,0.0,0.0,0.0,0.0,0.0,-3.3895,-3.4189,-3.4843,-3.5418,-3.4977,0.0,0.0,-3.7342,-3.7782,-3.8036,-3.7489,-3.5845,-3.4042,-3.2826,0.0,0.0,-2.9165,-2.9018,-2.9018,-2.9072,-2.8845,-2.9112,0.0,0.0,-3.1289,0.0,0.0,0.0,0.0,0.0,0.0,0.0,0.0,0.0,0.0,0.0,0.0,-3.654,-3.6246,-3.5952,-3.5672,-3.5084,-3.3342,-3.0198,-3.2391,-3.0377,-2.4507,-2.4424,-2.2815,-1.9855,-1.7246,-1.5995,-1.5845,-1.5716,0.0,0.0,-1.5316,-1.5276,-1.5377,-1.5235,-1.5181,-1.5181,-1.5181,-1.5181,-1.5181,0.0,0.0,0.0,0.0,0.0,0.0,-4.2363,-4.3105,-4.3887,-4.4668,-4.5449,-4.582,-4.5566,-4.5312,-4.5098,-4.4922,0.0,0.0,0.0,0.0,0.0,0.0,0.0,0.0,0.0,0.0,-4.8086,-4.834,-4.8437,0.0,0.0,0.0,0.0,0.0,0.0,0.0,0.0,0.0,0.0,0.0,0.0,0.0,0.0,0.0,0.0,0.0,0.0,0.0,0.0,0.0,0.0,0.0,-3.312,-3.3587,0.0,0.0,-3.5899,-3.7048,-3.7956,-3.8477,-3.8691,-3.829,-3.6112,-3.3841,-3.3,0.0,0.0,-2.9312,-2.9312,-2.9366,-2.9539,-2.9325,-2.9325,-2.9913,0.0,0.0,0.0,0.0,0.0,0.0,0.0,0.0,0.0,0.0,0.0,0.0,0.0,0.0,-3.6513,-3.6233,-3.6019,-3.5899,-3.499,-3.3085,-2.9962,-3.1942,-3.0685,-2.6396,-2.4834,-2.3306,-2.1938,-1.7894,-1.5995,-1.595,-1.5791,0.0,0.0,-1.5371,-1.5303,-1.5269,-1.5208,-1.5181,-1.5181,-1.5181,-1.5181,-1.5181,0.0,0.0,0.0,0.0,0.0,-4.1953,-4.2363,-4.291,-4.3652,-4.4707,-4.5332,-4.5781,-4.6094,-4.5742,-4.5351,-4.5,-4.5781,0.0,0.0,0.0,0.0,0.0,0.0,0.0,0.0,0.0,-4.8496,-4.9062,-4.8887,-4.9043,0.0,0.0,0.0,0.0,0.0,0.0,0.0,0.0,0.0,0.0,0.0,0.0,0.0,0.0,0.0,0.0,0.0,0.0,0.0,0.0,0.0,0.0,0.0,0.0,0.0,0.0,-3.5338,-3.6727,-3.7782,-3.8611,-3.9052,-3.8691,-3.634,-3.3935,0.0,0.0,0.0,-2.9593,-2.9606,-2.9673,-2.9887,-2.9673,-2.9486,0.0,0.0,-2.9352,0.0,0.0,0.0,0.0,0.0,0.0,0.0,0.0,0.0,0.0,0.0,0.0,0.0,-3.6273,-3.6032,-3.5939,-3.4803,-3.2763,-2.9927,-3.1711,-3.0641,-2.6621,-2.488,-2.3471,-2.2297,-1.7985,-1.6022,-1.5913,-1.5825,0.0,0.0,-1.5398,-1.5309,-1.5248,-1.5201,-1.5181,-1.5181,-1.5181,-1.5181,-1.5181,0.0,0.0,0.0,0.0,0.0,0.0,-4.2363,-4.3144,-4.3867,-4.4336,-4.5156,-4.5683,-4.5683,-4.5293,-4.5371,-4.6211,-4.6289,0.0,0.0,0.0,0.0,0.0,0.0,0.0,0.0,0.0,-4.8633,-4.9512,-4.9941,-4.9941,-4.9551,-5.0391,-5.0098,0.0,0.0,0.0,0.0,0.0,0.0,0.0,0.0,0.0,0.0,0.0,0.0,0.0,0.0,0.0,0.0,0.0,0.0,0.0,0.0,-3.1944,0.0,0.0,-3.4215,-3.65,-3.654,-3.7809,-3.9012,-3.8397,-3.65,-3.4429,0.0,0.0,-3.0261,-2.9967,-2.9913,-2.9913,-2.9913,-2.9673,-2.9486,-2.9486,0.0,0.0,0.0,0.0,0.0,0.0,0.0,0.0,0.0,0.0,0.0,0.0,0.0,0.0,0.0,-3.6393,-3.5939,-3.5645,-3.4496,-3.2661,-3.0186,-3.1813,-2.9837,-2.4527,-2.4404,-2.2805,-1.997,-1.7253,-1.6083,0.0,0.0,0.0,0.0,-1.5371,-1.5276,-1.5391,-1.5242,-1.5181,-1.5181,-1.5181,-1.5181,-1.5181,0.0,0.0,0.0,0.0,0.0,0.0,0.0,-4.2734,-4.3437,-4.3867,-4.4687,-4.5351,-4.5644,-4.5547,-4.5937,-4.707,-4.6641,0.0,0.0,0.0,0.0,0.0,0.0,0.0,0.0,-4.8125,-4.8496,-4.9062,-4.9199,-4.9512,-4.998,-4.9941,-4.9863,-4.9785,-5.0488,0.0,0.0,0.0,0.0,0.0,0.0,0.0,0.0,0.0,0.0,0.0,0.0,0.0,0.0,0.0,0.0,0.0,0.0,0.0,0.0,-3.0728,0.0,0.0,-3.4603,-3.5565,-3.6353,-3.5965,-3.4549,-3.3093,-3.2505,0.0,-3.0034,-2.994,-2.9913,-2.9913,-2.9913,-2.9847,-2.978,-2.978,-2.978,0.0,0.0,0.0,0.0,0.0,0.0,0.0,0.0,0.0,0.0,0.0,0.0,0.0,0.0,-3.6286,-3.5939,-3.5645,-3.4496,-3.3409,-3.2454,-3.2128,-3.0362,-2.6988,-2.4649,-2.2297,-1.9872,-1.7235,0.0,0.0,0.0,0.0,0.0,-1.5282,-1.5208,-1.5248,-1.5201,-1.5181,-1.5181,-1.5181,-1.5181,-1.5181,0.0,0.0,0.0,0.0,0.0,0.0,0.0,-4.2383,-4.2988,-4.3418,-4.4082,-4.4766,-4.5371,-4.5293,-4.584,-4.7441,-4.6797,0.0,0.0,0.0,0.0,0.0,0.0,0.0,-4.7812,-4.7754,-4.8183,-4.9101,-4.7979,-4.8267,-4.9922,-4.8669,-4.8612,-4.9707,-5.0312,-4.9818,0.0,0.0,0.0,0.0,0.0,0.0,-3.6536,0.0,0.0,0.0,0.0,0.0,0.0,0.0,0.0,0.0,0.0,0.0,0.0,0.0,-3.0822,0.0,0.0,-3.3935,-3.471,-3.475,-3.3641,0.0,0.0,0.0,-3.0047,-2.994,-2.9913,-2.9913,-2.9913,-2.9913,-2.9913,-2.9913,0.0,0.0,0.0,0.0,0.0,0.0,0.0,0.0,0.0,0.0,0.0,0.0,0.0,0.0,0.0,-3.6126,-3.5725,-3.5311,-3.4376,-3.3841,-3.3761,-3.2585,-3.0316,-2.6901,-2.4607,-2.1692,-1.8321,-1.6586,0.0,0.0,0.0,0.0,0.0,-1.5248,-1.5181,-1.5181,-1.5181,-1.5181,-1.5181,-1.5181,-1.5181,-1.5181,0.0,0.0,0.0,0.0,0.0,0.0,0.0,-4.2129,-4.2578,-4.2969,-4.3418,-4.4023,-4.4883,-4.4629,-4.5234,-4.7305,0.0,0.0,0.0,0.0,0.0,0.0,0.0,0.0,-4.8047,-4.7285,-4.7734,-4.9473,-4.6634,-4.6653,-4.9438,-4.7062,-4.7027,-4.8945,-4.9597,-4.8384,-4.5611,-4.3034,-4.0352,-3.7829,-3.7219,-3.5735,0.0,0.0,0.0,0.0,0.0,0.0,0.0,0.0,0.0,0.0,0.0,0.0,0.0,0.0,0.0,0.0,0.0,-3.2746,0.0,0.0,0.0,0.0,0.0,0.0,0.0,-2.9967,-2.9913,-2.9913,-2.9913,-2.9913,-2.9913,-2.9913,0.0,0.0,0.0,0.0,0.0,0.0,0.0,0.0,0.0,0.0,0.0,0.0,0.0,0.0,0.0,-3.5912,-3.5338,-3.4776,-3.4189,-3.4002,-3.4229,-3.3093,-2.9898,-2.4786,-2.4217,-2.109,-1.5622,-1.5601,0.0,0.0,0.0,0.0,0.0,-1.5242,-1.5181,-1.5181,-1.5181,-1.5181,-1.5181,-1.5181,-1.5181,-1.5181,0.0,0.0,0.0,0.0,0.0,0.0,0.0,0.0,0.0,0.0,-4.3242,-4.3926,-4.4492,-4.4453,-4.5,0.0,0.0,0.0,0.0,0.0,0.0,0.0,0.0,0.0,-4.6738,-4.6562,-4.7285,-4.9023,-4.8003,-4.8177,-4.9512,-4.8582,-4.8563,-4.9301,-4.7758,-4.5611,-4.2936,-4.0359,-3.8538,-3.7303,-3.5182,-3.4041,0.0,0.0,0.0,0.0,-3.3106,-3.2746,0.0,0.0,0.0,0.0,0.0,0.0,0.0,0.0,-3.01,0.0,-3.006,0.0,-3.0822,-3.0742,-3.0795,-3.0795,0.0,0.0,0.0,-2.9927,-2.9913,-2.9913,0.0,0.0,0.0,0.0,0.0,0.0,0.0,0.0,0.0,0.0,0.0,0.0,0.0,0.0,0.0,0.0,0.0,0.0,0.0,-3.5498,-3.5137,-3.4776,-3.4189,-3.3694,-3.3293,-3.2572,-2.9516,-2.4305,-2.3691,-2.062,-1.5459,-1.5228,-1.5167,0.0,0.0,0.0,-1.5235,-1.5194,-1.5181,-1.5181,-1.5181,-1.5181,-1.5181,-1.5181,-1.5181,-1.5181,0.0,0.0,0.0,0.0,0.0,0.0,0.0,0.0,0.0,0.0,0.0,0.0,0.0,0.0,0.0,0.0,0.0,0.0,0.0,0.0,0.0,0.0,0.0,-4.5586,-4.6016,-4.6211,-4.6953,-4.8262,-4.6896,-4.7221,-4.9219,-4.7793,-4.7234,-4.731,-4.3987,-4.1669,-4.0039,-3.7532,-3.6134,-3.5352,-3.4,0.0,0.0,0.0,0.0,0.0,-3.2679,-3.2291,0.0,-3.1263,-3.0862,-3.0595,0.0,0.0,0.0,0.0,-3.0047,-2.9793,-2.9232,-2.9299,-2.9513,-2.9486,-2.9726,-2.9953,-2.9927,0.0,0.0,-2.9913,-2.9913,0.0,0.0,0.0,0.0,0.0,0.0,0.0,0.0,0.0,0.0,0.0,0.0,0.0,0.0,0.0,0.0,0.0,0.0,0.0,0.0,-3.5151,-3.4736,-3.4162,-3.3841,-3.3507,-3.3187,-3.2465,-2.9984,-2.5808,-2.3947,-2.0835,-1.6868,-1.5589,-1.4977,0.0,0.0,0.0,-1.5181,-1.5181,-1.5181,-1.5181,-1.5181,-1.5181,-1.5181,-1.5181,-1.5181,-1.5181,0.0,0.0,0.0,0.0,0.0,0.0,0.0,0.0,0.0,0.0,0.0,0.0,0.0,0.0,0.0,0.0,0.0,0.0,0.0,0.0,0.0,0.0,-4.4489,-4.4527,-4.5029,-4.5009,-4.5661,-4.7108,-4.4472,-4.4874,-4.8273,-4.5661,-4.4264,-4.3704,-3.9892,-3.7817,-3.7136,-3.5184,-3.3961,-3.3414,-3.3414,0.0,0.0,0.0,0.0,0.0,0.0,0.0,0.0,-3.0755,-3.0461,-3.0434,-3.0474,0.0,0.0,0.0,0.0,0.0,-2.8965,-2.9018,-2.9312,-2.9339,-2.9486,-2.9659,-2.982,0.0,0.0,0.0,0.0,0.0,0.0,-2.9686,0.0,0.0,0.0,0.0,0.0,0.0,0.0,0.0,0.0,0.0,0.0,0.0,0.0,0.0,0.0,0.0,0.0,-3.479,-3.4255,-3.344,-3.332,-3.324,-3.3146,-3.2412,-3.0542,-2.7533,-2.4273,-2.1288,-1.8467,-1.6,-1.4855,-1.4787,0.0,0.0,-1.5181,-1.5181,-1.5181,-1.5181,-1.5181,-1.5181,-1.5181,-1.5181,-1.5181,-1.5181,0.0,0.0,0.0,0.0,0.0,0.0,0.0,0.0,0.0,0.0,0.0,0.0,0.0,0.0,0.0,0.0,0.0,0.0,0.0,0.0,0.0,-4.1225,-4.1086,-4.1397,-4.2252,-4.0193,-4.0997,-4.4654,-4.1931,-4.2328,-4.5567,-4.2959,-4.074,-3.882,-3.842,-3.6824,-3.449,-3.4393,-3.3961,-3.3414,-3.3414,0.0,0.0,0.0,0.0,0.0,0.0,0.0,0.0,-3.1223,-3.0929,-3.0768,-3.1022,0.0,0.0,0.0,0.0,0.0,-2.9526,-2.9927,-3.0234,-2.9045,-2.9486,-3.0114,-2.9659,-2.974,0.0,0.0,0.0,0.0,0.0,-2.9713,-2.978,0.0,0.0,0.0,0.0,0.0,0.0,0.0,0.0,0.0,0.0,0.0,0.0,0.0,0.0,0.0,0.0,-3.4175,-3.3841,-3.3427,-3.2933,-3.2438,-3.1944,-3.1797,-2.9965,-2.6373,-2.379,-2.1067,-1.8183,-1.5709,-1.4713,-1.4936,0.0,-1.5072,-1.5181,-1.5181,-1.5181,-1.5181,-1.5181,-1.5181,-1.5181,-1.5181,-1.5181,-1.5181,0.0,0.0,0.0,0.0,0.0,0.0,0.0,0.0,0.0,0.0,0.0,0.0,0.0,0.0,0.0,0.0,0.0,0.0,0.0,0.0,-4.3021,-4.0753,-3.9456,-3.8925,-3.9287,-3.8624,-3.9345,-4.1528,-4.0711,-4.1297,-4.3094,-4.0481,-3.8611,-3.7183,-3.6335,-3.5014,-3.3427,-3.3895,-3.3828,-3.3414,0.0,0.0,0.0,0.0,0.0,0.0,0.0,0.0,0.0,0.0,-3.0902,-3.0849,-3.1129,0.0,0.0,0.0,0.0,0.0,-3.0034,-3.0474,-3.0755,-2.9606,-2.9847,-3.0207,-2.9619,-2.9713,-2.9913,-2.9913,0.0,0.0,0.0,0.0,0.0,0.0,0.0,0.0,0.0,0.0,0.0,0.0,0.0,0.0,0.0,0.0,0.0,0.0,0.0,0.0,0.0,0.0,-3.328,-3.2492,-3.2211,-3.1717,-3.0969,-3.0795,-2.9886,-2.8153,-2.4051,-2.1423,-2.011,-1.6363,-1.476,-1.4977,0.0,-1.512,-1.5181,-1.5181,-1.5181,-1.5181,-1.5181,-1.5181,-1.5181,-1.5181,-1.5181,-1.5181,0.0,0.0,0.0,0.0,0.0,0.0,0.0,0.0,0.0,0.0,0.0,0.0,0.0,0.0,0.0,0.0,0.0,0.0,0.0,-4.4863,-4.3168,-4.0253,-3.8421,-3.72,-3.6499,-3.6654,-3.7385,-3.8723,-3.8767,-3.9142,-3.9755,-3.7705,-3.6516,-3.5977,-3.4519,-3.3587,-3.312,-3.3654,-3.3708,-3.3414,0.0,0.0,0.0,0.0,0.0,0.0,0.0,0.0,0.0,0.0,0.0,0.0,0.0,0.0,0.0,-3.0996,-3.0808,-3.0448,-3.0381,-3.0889,-3.1209,-3.0261,-3.0287,-3.0421,-2.9913,-2.9967,-3.014,-3.0207,-3.0114,0.0,0.0,0.0,0.0,0.0,0.0,0.0,0.0,0.0,0.0,0.0,0.0,0.0,0.0,0.0,0.0,0.0,0.0,0.0,0.0,0.0,-3.2652,-3.1597,-3.1436,-3.1009,-3.0261,-2.9833,-2.9646,-2.9611,-2.4228,-2.1764,-2.171,-1.6892,-1.4841,-1.5025,-1.5133,-1.5181,-1.5181,-1.5181,-1.5181,-1.5181,-1.5181,-1.5181,-1.5181,-1.5181,-1.5181,-1.5181,0.0,0.0,0.0,0.0,0.0,0.0,0.0,0.0,0.0,0.0,0.0,0.0,0.0,0.0,0.0,0.0,0.0,0.0,0.0,-4.4805,-4.2769,-3.8003,-3.755,-3.6411,-3.4126,-3.2535,-3.3295,-3.6647,-3.4815,-3.4136,-3.4476,-3.4287,-3.3997,-3.3687,-3.3835,-3.3694,-3.34,-3.3748,-3.3708,-3.3414,-3.3414,0.0,0.0,0.0,0.0,0.0,0.0,0.0,0.0,0.0,0.0,0.0,0.0,0.0,-3.0768,-3.0808,-3.0795,-3.0702,-3.0434,-3.1183,-3.177,-3.0608,-3.0755,-3.1076,-3.0768,-3.0715,-3.0808,-3.1076,-3.0702,-3.0154,0.0,0.0,0.0,0.0,0.0,0.0,0.0,0.0,0.0,0.0,0.0,0.0,0.0,0.0,0.0,0.0,0.0,0.0,0.0,0.0,0.0,-3.1276,-3.0742,-3.0287,-2.9953,-2.9125,-2.8831,-2.9011,-2.406,-2.1666,-2.1522,-1.6801,-1.4896,-1.5167,-1.5174,-1.5181,-1.5181,-1.5181,-1.5181,-1.5181,-1.5181,-1.5181,-1.5181,-1.5181,-1.5181,-1.5181,0.0,0.0,0.0,0.0,0.0,0.0,0.0,0.0,0.0,0.0,0.0,0.0,0.0,0.0,0.0,0.0,0.0,0.0,0.0,-4.1776,-3.9239,-3.5681,-3.5576,-3.4427,-3.1966,-3.1473,-3.2205,-3.4339,-3.4077,-3.3948,-3.3881,-3.3881,-3.3521,-3.2893,-3.3374,-3.3427,-3.316,-3.3467,-3.3521,-3.3414,-3.3414,-3.3414,0.0,0.0,0.0,0.0,0.0,0.0,0.0,0.0,-3.1664,-3.165,-3.153,-3.1303,-3.1102,-3.1289,-3.1209,-3.1036,-3.0929,-3.1356,-3.1637,-3.0835,-3.0929,-3.1289,-3.1543,-3.161,-3.1583,-3.1517,-3.1757,-3.1757,-3.0982,0.0,0.0,0.0,0.0,0.0,0.0,0.0,0.0,0.0,0.0,0.0,0.0,0.0,0.0,0.0,0.0,0.0,0.0,0.0,0.0,-3.0434,-3.0194,-2.986,-2.9379,-2.7432,-2.6438,-2.6537,-2.3021,-2.0744,-1.9392,-1.6174,-1.4903,-1.5181,-1.5181,-1.5181,-1.5181,-1.5181,-1.5181,-1.5181,-1.5181,-1.5181,-1.5181,-1.5181,-1.5181,-1.5181,0.0,0.0,0.0,0.0,0.0,0.0,0.0,0.0,0.0,0.0,0.0,0.0,0.0,0.0,0.0,0.0,0.0,0.0,-4.1246,-3.9509,-3.7366,-3.4698,-3.4592,-3.3394,-3.0887,-3.1263,-3.2038,-3.312,-3.4108,-3.4309,-3.3734,-3.3841,-3.3507,-3.2826,-3.304,-3.3133,-3.312,-3.3133,-3.3133,-3.3133,-3.3133,-3.3133,0.0,0.0,0.0,0.0,0.0,0.0,0.0,0.0,-3.1664,-3.165,-3.1557,-3.1383,-3.1249,-3.1356,-3.1249,-3.1076,-3.0982,-3.1169,-3.1276,-3.0782,-3.0875,-3.1343,-3.2291,-3.2305,-3.2158,-3.2332,-3.2332,-3.2131,-3.1623,0.0,0.0,0.0,0.0,0.0,0.0,0.0,0.0,0.0,0.0,0.0,0.0,0.0,0.0,0.0,0.0,0.0,0.0,0.0,0.0,0.0,-2.9553,-2.9312,-2.8911,-2.6228,-2.4597,-2.3802,-2.1221,-1.9356,-1.8066,-1.5796,-1.4875,-1.512,-1.516,-1.5181,-1.5181,-1.5181,-1.5181,-1.5181,-1.5181,-1.5181,-1.5181,-1.5181,-1.5181,-1.5181,0.0,0.0,0.0,0.0,0.0,0.0,0.0,0.0,0.0,0.0,0.0,0.0,0.0,0.0,0.0,0.0,0.0,0.0,-3.8465,-3.8688,-3.7735,-3.4952,-3.4845,-3.3611,-3.0887,-3.1664,-3.2545,-3.344,-3.4616,-3.4576,-3.3414,-3.3734,-3.3708,-3.3374,-3.2799,-3.2879,-3.34,-3.2799,-3.2643,-3.2643,-3.2643,-3.2643,-3.267,0.0,0.0,0.0,0.0,0.0,0.0,0.0,-3.1664,-3.1623,-3.1316,-3.1223,-3.1169,-3.0889,-3.0795,-3.0728,-3.0434,-3.0568,-3.0728,-3.0434,-3.0581,-3.1263,-3.3013,-3.2732,-3.2438,-3.3641,-3.2251,-3.0902,-3.1196,-3.149,0.0,0.0,0.0,0.0,0.0,0.0,0.0,0.0,0.0,0.0,0.0,0.0,0.0,0.0,0.0,0.0,0.0,0.0,0.0,0.0,-2.8764,-2.8604,-2.8591,-2.5845,-2.3309,-2.1125,-1.8691,-1.76,-1.7873,-1.5745,-1.4828,-1.4977,-1.512,-1.5181,-1.5181,-1.5181,-1.5181,-1.5181,-1.5181,-1.5181,-1.5181,-1.5181,-1.5181,-1.5181,0.0,0.0,0.0,0.0,0.0,0.0,0.0,0.0,0.0,0.0,0.0,0.0,0.0,0.0,0.0,0.0,0.0,0.0,-3.6267,-3.4514,-3.3129,-3.2315,-3.2108,-3.1696,-3.1089,-3.1957,-3.2853,-3.3748,-3.4523,-3.4389,-3.3414,-3.3507,-3.328,-3.2799,-3.2839,-3.2839,-3.2799,-3.2625,-3.2643,-3.2643,-3.2643,-3.2643,-3.2629,0.0,0.0,0.0,0.0,0.0,0.0,0.0,0.0,0.0,-3.157,-3.1396,-3.1209,-3.1116,-3.0955,-3.0728,-3.0434,-3.0568,-3.0768,-3.0688,-3.1036,-3.1757,-3.3106,-3.2732,-3.2559,-3.4162,-3.3173,-3.2185,-3.2666,-3.2853,0.0,0.0,0.0,0.0,0.0,0.0,0.0,0.0,0.0,0.0,0.0,0.0,0.0,0.0,0.0,0.0,0.0,0.0,0.0,0.0,-2.8644,-2.7709,-2.5736,-2.3252,-2.0837,-1.839,-1.6176,-1.5264,-1.5488,-1.4937,-1.4828,-1.4977,-1.512,-1.5181,-1.5181,-1.5181,-1.5181,-1.5181,-1.5181,-1.5181,-1.5181,-1.5181,-1.5181,-1.5181,0.0,0.0,0.0,0.0,0.0,0.0,0.0,0.0,0.0,0.0,-4.4212,-4.3714,0.0,0.0,0.0,0.0,0.0,0.0,0.0,-3.2324,-3.1396,-3.1396,-3.1129,-3.1049,-3.1223,-3.1864,-3.2465,-3.3013,-3.3828,-3.3828,-3.3066,-3.3187,-3.3053,-3.2732,-3.3026,-3.2919,-3.2643,-3.2643,-3.2345,-3.2024,-3.2024,-3.2091,-3.2171,0.0,0.0,0.0,0.0,0.0,0.0,0.0,0.0,0.0,-3.1664,-3.1543,-3.1356,-3.1116,-3.0929,-3.0702,-3.0301,-3.0314,-3.0501,-3.0728,-3.1062,-3.157,-3.2505,-3.304,-3.3694,0.0,-3.4108,-3.3253,-3.3841,-3.3774,0.0,0.0,0.0,0.0,0.0,0.0,0.0,0.0,0.0,0.0,0.0,0.0,0.0,0.0,0.0,0.0,0.0,0.0,0.0,0.0,-2.8377,-2.7032,-2.4555,-2.1978,-1.9596,-1.729,-1.4978,-1.4048,-1.4346,-1.4618,-1.4794,-1.4889,-1.5092,-1.5181,-1.5181,-1.5181,-1.5181,-1.5181,-1.5181,-1.5181,-1.5181,-1.5181,-1.5181,-1.5181,0.0,0.0,0.0,0.0,0.0,0.0,0.0,0.0,0.0,0.0,-4.1344,-4.0455,0.0,0.0,0.0,0.0,0.0,0.0,0.0,-3.1623,-3.1637,-3.1664,-3.141,-3.1236,-3.1183,-3.1476,-3.1623,-3.1623,-3.2799,-3.3066,-3.2576,-3.2812,-3.2959,-3.2946,-3.3213,-3.3026,-3.2505,-3.2549,-3.1957,-3.1223,-3.1223,-3.1383,-3.1623,-3.1597,0.0,0.0,0.0,0.0,0.0,0.0,0.0,0.0,-3.1664,-3.165,-3.1517,-3.0955,-3.0768,-3.0635,-3.0074,-2.994,-3.01,-3.0688,-3.0929,0.0,-3.1784,-3.3574,-3.5257,-3.5765,0.0,-3.4175,-3.471,0.0,0.0,0.0,0.0,0.0,0.0,0.0,0.0,0.0,0.0,0.0,0.0,0.0,0.0,0.0,0.0,0.0,0.0,0.0,0.0,-2.8564,-2.7835,-2.6325,-2.4172,-2.1357,-1.9004,0.0,-1.4681,-1.377,-1.4048,-1.4509,-1.4733,-1.4774,-1.5031,-1.5153,-1.516,-1.516,-1.5167,-1.5181,-1.5181,-1.5181,-1.5181,-1.5181,-1.5181,-1.5181,0.0,0.0,0.0,0.0,0.0,0.0,0.0,0.0,0.0,0.0,0.0,0.0,0.0,0.0,0.0,0.0,0.0,0.0,0.0,-3.1316,-3.1423,-3.1664,-3.161,-3.1356,-3.0902,-3.1169,-3.1316,-3.1316,-3.2492,-3.2652,-3.1877,-3.2625,-3.2853,-3.2639,-3.2706,-3.2532,-3.2171,-3.1704,-3.1396,-3.1223,-3.1223,-3.1263,-3.1289,-3.1062,-3.1129,0.0,0.0,0.0,0.0,0.0,0.0,0.0,-3.1664,-3.1517,-3.1249,-3.0902,-3.0635,-3.0368,-3.002,-3.0087,0.0,0.0,-3.1998,-3.3013,-3.3614,-3.4148,-3.4482,-3.4376,-3.4656,0.0,0.0,0.0,0.0,0.0,0.0,0.0,0.0,0.0,0.0,0.0,0.0,0.0,0.0,0.0,0.0,0.0,0.0,0.0,0.0,0.0,0.0,-2.8243,-2.6264,-2.403,-2.1652,-1.9032,-1.6626,0.0,-1.3832,-1.3661,-1.3743,-1.4306,-1.4692,-1.4916,-1.4862,-1.4903,-1.5018,-1.5018,-1.5079,-1.5181,-1.5181,-1.5181,-1.5181,-1.5181,-1.5181,-1.5181,0.0,0.0,0.0,0.0,0.0,0.0,0.0,0.0,0.0,0.0,0.0,0.0,0.0,0.0,0.0,0.0,0.0,0.0,0.0,0.0,-3.1289,-3.145,-3.133,-3.1036,-3.0595,-3.0595,-3.0675,-3.0808,-3.157,-3.1837,-3.1677,-3.2131,-3.2345,-3.2345,-3.2625,-3.2358,-3.1677,-3.165,-3.1316,-3.0808,-3.0808,-3.0889,-3.0996,-3.0849,-3.0969,-3.1209,-3.1049,0.0,0.0,0.0,0.0,0.0,0.0,0.0,-3.1169,-3.0875,-3.0581,-3.0301,-2.9993,0.0,0.0,-3.1423,0.0,-3.3641,-3.3668,-3.4015,-3.4189,-3.3748,0.0,0.0,0.0,0.0,0.0,0.0,0.0,0.0,0.0,0.0,0.0,0.0,0.0,0.0,0.0,0.0,0.0,0.0,0.0,0.0,0.0,-2.8404,-2.8163,-2.8221,-2.5545,-2.2947,-2.0578,-1.8037,-1.5565,-1.3295,-1.337,-1.3559,-1.3851,-1.4238,-1.4577,-1.4855,-1.4774,-1.4828,-1.497,-1.497,-1.5052,-1.5181,-1.5181,-1.5181,-1.5181,-1.5181,-1.5181,-1.5181,0.0,0.0,0.0,0.0,0.0,0.0,0.0,0.0,0.0,0.0,0.0,0.0,0.0,0.0,0.0,0.0,0.0,0.0,0.0,0.0,0.0,-3.1223,-3.0996,-3.0715,-3.0368,-3.0167,-3.0167,-3.0354,-3.0702,-3.1116,-3.1597,-3.1704,-3.1877,-3.2118,-3.2559,-3.2211,-3.133,-3.1664,-3.1236,-3.0354,-3.0354,-3.0528,-3.0795,-3.0795,-3.0969,-3.1223,-3.1223,-3.1423,-3.1664,-3.1664,0.0,0.0,0.0,0.0,-3.1169,-3.0875,-3.0581,-3.0301,-2.9993,0.0,-3.0742,-3.1704,-3.2812,0.0,-3.2946,-3.344,0.0,0.0,0.0,0.0,0.0,0.0,0.0,0.0,0.0,0.0,0.0,0.0,0.0,0.0,0.0,0.0,0.0,0.0,0.0,0.0,0.0,0.0,-2.8791,-2.811,-2.7622,-2.7459,-2.4586,-2.19,-1.9769,-1.7089,-1.49,-1.3139,-1.3186,-1.3498,-1.4041,-1.419,-1.4421,-1.4699,-1.4672,-1.4767,-1.493,-1.493,-1.5031,-1.5181,-1.5181,-1.5181,-1.5181,-1.5181,-1.5181,-1.5181,0.0,0.0,0.0,0.0,0.0,0.0,0.0,0.0,0.0,0.0,-3.1685,-3.0312,0.0,0.0,0.0,0.0,0.0,0.0,0.0,0.0,0.0,-3.1236,-3.1196,-3.0915,-3.0368,-3.0568,-3.0568,-3.0354,-3.0902,-3.1209,-3.1289,-3.181,-3.2064,-3.2091,-3.1917,-3.1757,-3.157,-3.0889,-3.0501,-3.0354,-3.0354,-3.0528,-3.0795,-3.0795,-3.0969,-3.1223,-3.1223,-3.1423,-3.1664,-3.1664,-3.1664,0.0,0.0,0.0,0.0,-3.0875,-3.0581,-3.0301,0.0,0.0,-3.1142,0.0,0.0,0.0,0.0,0.0,0.0,0.0,0.0,0.0,0.0,0.0,0.0,0.0,0.0,0.0,0.0,0.0,0.0,0.0,0.0,0.0,0.0,0.0,0.0,0.0,0.0,0.0,-2.7896,-2.7762,-2.6747,-2.4602,-2.1992,-1.9541,-1.7355,-1.4738,-1.3304,-1.299,-1.3247,-1.3546,-1.3878,-1.4034,-1.4265,-1.4536,-1.4414,-1.4516,-1.4767,-1.4767,-1.493,-1.5181,-1.5181,-1.5181,-1.5181,-1.5181,-1.5181,-1.5181,0.0,0.0,0.0,0.0,0.0,0.0,0.0,0.0,0.0,0.0,0.0,-3.01,0.0,0.0,0.0,0.0,0.0,0.0,0.0,0.0,0.0,-3.0996,-3.0822,-3.0702,-3.0608,-3.0568,-3.0648,-3.0849,-3.1102,-3.1223,-3.1236,-3.1664,-3.177,-3.1597,-3.1142,-3.0929,-3.0915,-3.0528,-3.0261,-3.0127,-3.0287,-3.0234,-3.0127,-3.0782,-3.0915,-3.0808,-3.1303,-3.1557,-3.1664,-3.1664,-3.1664,-3.1664,-3.1664,0.0,0.0,0.0,-3.0474,0.0,-3.0354,0.0,0.0,0.0,0.0,0.0,0.0,0.0,0.0,0.0,0.0,0.0,0.0,0.0,0.0,0.0,0.0,0.0,0.0,0.0,0.0,0.0,0.0,0.0,0.0,0.0,0.0,0.0,0.0,-2.7843,-2.7709,-2.7388,-2.6143,-2.3868,-2.1243,-1.883,-1.6666,-1.4091,-1.2834,-1.2834,-1.322,-1.3512,-1.3736,-1.4055,-1.4272,-1.4387,-1.4326,-1.4468,-1.474,-1.474,-1.4916,-1.5181,-1.5181,-1.5181,-1.5181,-1.5181,-1.5181,-1.5181,0.0,0.0,0.0,0.0,0.0,0.0,0.0,0.0,0.0,0.0,0.0,0.0,0.0,0.0,0.0,0.0,0.0,0.0,0.0,0.0,0.0,0.0,-3.0474,-3.0461,-3.0675,-3.0474,-3.0608,-3.1116,-3.1196,-3.1263,-3.1343,-3.149,-3.1557,-3.153,-3.0955,-3.0688,-3.0688,-3.0528,-3.0421,-3.0341,-3.0114,-2.9847,-2.9673,-3.0394,-3.0448,-3.0261,-3.1129,-3.145,-3.1463,-3.1623,-3.1664,-3.1664,-3.1664,0.0,0.0,0.0,0.0,0.0,0.0,0.0,0.0,0.0,0.0,0.0,0.0,0.0,0.0,0.0,0.0,0.0,0.0,0.0,0.0,0.0,0.0,0.0,0.0,0.0,0.0,0.0,0.0,0.0,0.0,0.0,0.0,0.0,0.0,-2.7629,-2.7482,-2.7054,-2.5516,-2.2682,-2.0644,-1.8242,-1.5457,-1.3526,-1.2657,-1.2732,-1.3186,-1.3485,-1.3648,-1.4095,-1.4299,-1.4299,-1.4299,-1.4448,-1.4679,-1.4679,-1.4835,-1.5072,-1.5113,-1.5126,-1.5133,-1.5167,-1.5181,-1.5181,0.0,0.0,0.0,0.0,0.0,0.0,0.0,0.0,0.0,0.0,0.0,0.0,-2.9913,-2.9913,-3.0034,-3.0314,-3.0595,0.0,0.0,0.0,0.0,0.0,0.0,0.0,-3.0381,-3.0368,-3.0515,-3.0808,-3.1089,-3.137,-3.1637,-3.137,-3.169,-3.2549,-3.1864,-3.1597,-3.157,-3.1009,-3.1076,-3.1436,-2.978,-2.9419,-2.9833,-2.9339,-2.9312,-2.9646,-3.0528,-3.0835,-3.0929,-3.149,-3.1664,-3.1664,-3.1664,-3.1263,-3.0795,0.0,0.0,0.0,0.0,0.0,0.0,0.0,0.0,0.0,0.0,0.0,0.0,0.0,0.0,0.0,0.0,0.0,0.0,0.0,0.0,0.0,0.0,0.0,0.0,0.0,0.0,0.0,0.0,0.0,0.0,0.0,0.0,-2.7455,-2.6894,-2.6841,-2.4684,-2.0013,-1.9686,-1.7336,-1.2768,-1.2463,-1.2454,-1.2732,-1.3186,-1.3485,-1.3648,-1.4095,-1.4299,-1.4299,-1.4299,-1.4387,-1.4523,-1.4523,-1.4618,-1.4774,-1.4923,-1.4984,-1.4997,-1.5133,-1.5181,-1.5181,0.0,0.0,0.0,0.0,0.0,0.0,0.0,0.0,0.0,0.0,0.0,0.0,0.0,-2.9806,-2.9887,-2.9806,-3.0234,0.0,0.0,0.0,0.0,0.0,0.0,0.0,-3.0635,-3.0448,-3.0595,-3.1076,-3.0982,-3.0902,-3.0835,-3.0915,-3.1022,-3.1222,-3.0929,-3.1036,-3.133,-3.0555,-3.0461,-3.0755,-2.9927,-2.9499,-2.9366,-2.9539,-2.9432,-2.9312,-3.0194,-3.0755,-3.1102,-3.1316,-3.1517,-3.1637,-3.145,-3.1116,-3.0688,-3.0114,0.0,0.0,0.0,0.0,0.0,0.0,0.0,0.0,0.0,0.0,0.0,0.0,0.0,0.0,0.0,0.0,0.0,0.0,0.0,0.0,0.0,0.0,0.0,0.0,0.0,0.0,0.0,0.0,0.0,0.0,0.0,0.0,-2.6827,-2.6466,-2.4232,-1.9812,-1.93,-1.6846,-1.2299,-1.2169,-1.2291,-1.2589,-1.2949,-1.3302,-1.3641,-1.3994,-1.4156,-1.4156,-1.4156,-1.4292,-1.4509,-1.4509,-1.4604,-1.4753,-1.4909,-1.497,-1.4991,-1.5126,-1.5181,-1.5181,0.0,0.0,0.0,0.0,0.0,0.0,0.0,0.0,-2.9887,-2.978,0.0,0.0,0.0,0.0,-2.9726,-2.9633,-2.998,-3.0207,-3.0207,-3.0114,0.0,0.0,0.0,0.0,-3.0782,-3.0515,-3.0595,-3.1076,-3.0795,-3.0595,-3.0515,-3.0702,-3.0795,-3.0782,-3.0381,-3.0648,-3.1316,-3.0541,-3.0434,-3.0728,-2.9833,-2.9366,-2.9219,-2.9513,-2.9379,-2.9152,-3.0047,-3.0608,-3.0929,-3.0929,-3.1062,-3.1196,-3.0996,-3.0728,-3.0368,-2.9686,-2.9619,0.0,-2.9766,0.0,0.0,0.0,0.0,0.0,0.0,0.0,0.0,0.0,0.0,0.0,0.0,0.0,0.0,0.0,0.0,0.0,0.0,0.0,0.0,0.0,0.0,0.0,0.0,0.0,0.0,0.0,0.0,0.0,-2.6547,-2.6159,-2.4221,-2.05,-1.7825,-1.5317,-1.3089,-1.2377,-1.2155,-1.2508,-1.2861,-1.3241,-1.3641,-1.3939,-1.4075,-1.4068,-1.4014,-1.4109,-1.4285,-1.4285,-1.438,-1.4529,-1.4685,-1.4808,-1.4909,-1.5059,-1.514,-1.5181,0.0,0.0,0.0,0.0,0.0,0.0,0.0,0.0,-2.9806,-2.9513,0.0,0.0,0.0,0.0,0.0,-2.9887,-2.9913,-2.9913,-2.9913,-2.9659,0.0,0.0,0.0,0.0,-3.0782,-3.0515,-3.0501,-3.0795,-3.0488,-3.0488,-3.0768,-3.0768,-3.1076,-3.157,-3.0421,-3.0541,-3.157,-3.0982,-3.1076,-3.145,-2.9432,-2.8978,-2.9446,-2.9152,-2.9032,-2.9138,-3.0007,-3.0327,-3.0341,-3.0341,-3.0354,-3.0368,-3.0368,-3.0154,-2.9847,-2.9553,-2.9472,-2.9486,0.0,0.0,0.0,0.0,0.0,0.0,0.0,0.0,0.0,0.0,0.0,0.0,0.0,0.0,0.0,0.0,0.0,0.0,0.0,0.0,0.0,0.0,0.0,0.0,0.0,0.0,0.0,0.0,0.0,-2.6547,-2.6063,-2.5932,-2.4559,-2.1664,-1.5285,-1.2839,-1.4891,-1.2839,-1.2054,-1.2508,-1.2942,-1.3322,-1.3641,-1.3926,-1.4061,-1.4048,-1.3899,-1.3831,-1.3824,-1.3838,-1.3933,-1.4089,-1.4238,-1.4482,-1.476,-1.4916,-1.5059,-1.5181,0.0,0.0,0.0,0.0,0.0,0.0,-2.9593,-2.9606,-2.9499,0.0,0.0,0.0,-2.8764,-2.8991,-2.9366,-2.9873,-2.9913,-2.9913,-2.9913,-2.9847,-2.9833,-2.9913,-3.0207,-3.0501,-3.0782,-3.0515,-3.0501,-3.0795,-3.0287,-3.0087,-3.0154,-3.0154,-3.0247,-3.0381,-3.006,-2.998,-3.006,-2.9686,-2.986,-3.0327,-2.9553,-2.9339,-2.9446,-2.9152,-2.8911,-2.8791,-2.9245,-2.9673,-3.0034,-3.0034,-3.0327,-3.0635,-3.0421,-3.0007,-2.9539,-2.9245,-2.9312,-2.9432,-2.9219,0.0,0.0,0.0,0.0,0.0,0.0,0.0,0.0,0.0,0.0,0.0,0.0,0.0,0.0,0.0,0.0,0.0,0.0,0.0,0.0,0.0,0.0,0.0,0.0,0.0,0.0,0.0,-2.6239,-2.5905,-2.5959,-2.4011,-2.2162,-2.0851,-1.6302,-1.4099,-1.4513,-1.2619,-1.1952,-1.2501,-1.263,-1.3017,-1.3634,-1.3715,-1.3749,-1.3749,-1.3709,-1.3559,-1.3383,-1.3709,-1.3933,-1.4089,-1.4238,-1.4482,-1.476,-1.4916,-1.5059,-1.5167,0.0,0.0,0.0,0.0,0.0,0.0,-2.9459,-2.9379,-2.9192,0.0,0.0,0.0,-2.8604,-2.9192,-2.9673,-2.99,-2.9913,-2.9913,-2.9913,-2.9913,-2.9967,-3.01,-3.0501,-3.0795,-3.0969,-3.0688,-3.0621,-3.0795,-3.0207,-2.9913,-2.9913,-2.9793,-2.974,-2.9726,-2.9486,-2.9272,-2.9112,-2.8938,-2.9272,-2.9887,-2.9606,-2.9633,-2.982,-2.9513,-2.9379,-2.9339,-2.9392,-2.97,-3.006,-2.982,-2.9967,-3.0154,-2.9606,-2.9459,-2.9406,-2.8978,-2.9152,-2.9419,-2.9125,-2.9472,-2.9887,0.0,0.0,0.0,0.0,-2.8711,0.0,0.0,0.0,0.0,0.0,0.0,0.0,0.0,0.0,0.0,0.0,0.0,0.0,0.0,0.0,0.0,0.0,0.0,0.0,-2.664,-2.6052,-2.5611,-2.5411,-2.267,-2.0908,-2.0521,-1.6635,-1.4542,-1.4432,-1.2538,-1.1918,-1.2501,-1.2569,-1.2963,-1.3627,-1.3627,-1.3593,-1.3532,-1.3464,-1.3302,-1.3112,-1.3431,-1.3688,-1.3899,-1.4048,-1.4367,-1.4753,-1.4841,-1.497,-1.5079,0.0,0.0,0.0,0.0,0.0,0.0,-2.9392,-2.9179,-2.8885,0.0,-2.835,-2.8337,-2.8711,-2.9686,-3.0234,-3.0034,-3.002,-3.002,-3.002,-3.002,-3.0127,-3.0394,-3.0929,-3.1223,-3.1223,-3.0942,-3.0795,-3.0795,-3.0207,-2.9913,-2.9913,-2.9659,-2.9513,-2.9459,-2.8938,-2.8684,-2.8657,-2.8724,-2.9205,-2.99,-2.9633,-2.986,-3.0327,0.0,-3.006,-3.0234,-2.9967,-3.0034,-3.0181,-2.9659,-2.9446,-2.9259,-2.8609,-2.8751,-2.9205,-2.8818,-2.9032,-2.9339,-2.9138,-2.9499,-2.986,-2.9593,0.0,0.0,-2.8136,-2.807,-2.8163,0.0,0.0,0.0,0.0,0.0,0.0,0.0,0.0,0.0,0.0,0.0,0.0,0.0,0.0,0.0,0.0,-2.7201,-2.6961,-2.6466,-2.6079,-2.5464,-2.4543,-2.2131,-2.0709,-2.0462,-1.6712,-1.4645,-1.4432,-1.2553,-1.1925,-1.2481,-1.263,-1.3003,-1.3553,-1.3553,-1.3485,-1.3342,-1.3207,-1.3078,-1.2976,-1.3132,-1.337,-1.3641,-1.3783,-1.4197,-1.4713,-1.4713,-1.4814,-1.4943,0.0,0.0,0.0,0.0,0.0,0.0,-2.9112,-2.8885,-2.8577,-2.827,-2.8404,-2.8804,-2.9579,-2.986,-3.0167,-3.0581,-3.0621,-3.0621,-3.0621,-3.0621,-3.0648,-3.0702,-3.1036,-3.1223,-3.1223,-3.0942,-3.0795,-3.0795,-3.0207,-2.9913,-2.9913,-2.986,-2.9713,-2.9486,-2.9366,-2.9179,-2.8991,-2.9459,0.0,-2.9913,-2.986,-3.0047,-3.0327,-3.0034,-2.9806,-2.9646,-2.9593,-2.9606,-2.9633,-2.9526,-2.9165,-2.8831,0.0,0.0,0.0,-2.9058,-2.9058,-2.8871,-2.9285,-2.9646,-2.99,0.0,0.0,0.0,-2.9138,-2.8991,-2.8845,0.0,0.0,0.0,0.0,0.0,0.0,0.0,0.0,0.0,0.0,0.0,0.0,0.0,0.0,0.0,0.0,-2.6841,-2.6613,-2.6734,-2.5812,-2.4756,-2.3647,-2.3056,-2.1995,-2.0203,-1.79,-1.591,-1.4432,-1.2655,-1.1972,-1.2332,-1.2474,-1.2739,-1.3091,-1.3091,-1.3078,-1.3044,-1.3017,-1.299,-1.2983,-1.3247,-1.3464,-1.3641,-1.3783,-1.4136,-1.4557,-1.4557,-1.4652,-1.4767,0.0,0.0,0.0,0.0,0.0,0.0,0.0,-2.8564,-2.8377,-2.8377,-2.8898,-2.9366,-2.9673,-3.0221,-3.0688,-3.0982,-3.1009,-3.1009,-3.1009,-3.1009,-3.1009,-3.1009,-3.1289,-3.145,-3.145,-3.1156,-3.0942,-3.0795,-3.0354,-3.006,-2.9913,-2.9766,-2.9539,-2.9259,-2.9259,-2.9098,-2.8871,-2.9606,-3.0007,-3.014,-3.014,0.0,-3.0314,-2.9873,-2.97,-2.9686,-2.9539,-2.9579,-2.9606,-2.9018,-2.8911,0.0,-2.8337,-2.8043,-2.8043,0.0,-2.8711,-2.8738,0.0,0.0,0.0,-2.974,0.0,0.0,0.0,-2.9045,0.0,0.0,0.0,0.0,0.0,0.0,0.0,0.0,0.0,0.0,0.0,0.0,0.0,0.0,0.0,0.0,0.0,-2.6613,-2.648,-2.6186,-2.509,-2.4168,-2.3581,-2.326,-2.1748,-1.8729,-1.7739,-1.5849,-1.3024,-1.2184,-1.1986,-1.2291,-1.2433,-1.2664,-1.2963,-1.2963,-1.2922,-1.2847,-1.2847,-1.2847,-1.2861,-1.3091,-1.3356,-1.3648,-1.3871,-1.4183,-1.4509,-1.4509,-1.4563,-1.4618,-2.9486,-2.9245,0.0,0.0,0.0,0.0,0.0,0.0,-2.827,-2.8644,-2.9312,-2.97,-2.9579,-3.0354,-3.1009,-3.1289,-3.0996,-3.0969,-3.137,-3.1183,-3.1062,-3.1062,-3.1503,-3.1677,-3.1503,-3.137,-3.1169,-3.0875,-3.0528,-3.0234,-2.9993,-2.97,-2.9432,-2.9205,-2.9152,-2.9058,-2.8991,-2.97,0.0,-3.0287,0.0,-3.0448,-3.0381,-2.9793,-2.9713,-2.9887,-2.9646,-2.9713,-2.9753,-2.8671,-2.8764,-2.9058,-2.7615,-2.7495,0.0,0.0,0.0,0.0,0.0,0.0,0.0,0.0,0.0,-2.9593,0.0,0.0,0.0,0.0,0.0,0.0,0.0,0.0,0.0,0.0,0.0,0.0,0.0,0.0,0.0,0.0,0.0,0.0,0.0,-2.6386,-2.6319,-2.5491,-2.4502,-2.3861,-2.3688,-2.3166,-2.117,-1.7318,-1.7178,-1.5425,-1.1619,-1.1789,-1.1999,-1.225,-1.242,-1.263,-1.2874,-1.2874,-1.2807,-1.2684,-1.2684,-1.2718,-1.2786,-1.2942,-1.3247,-1.3654,-1.3892,-1.4163,-1.4428,-1.4428,-1.4428,-1.4428,-2.9486,-2.9245,-2.8965,0.0,0.0,0.0,0.0,0.0,-2.835,-2.8911,-2.9072,-2.9325,-2.982,-2.9753,-3.0207,-3.1503,-3.0194,-3.006,-3.1877,-3.1036,-3.0461,-3.0461,-3.1476,-3.169,-3.0915,-3.137,-3.1476,-3.1169,-3.0621,-3.0341,-3.0301,-3.0007,-2.9847,-2.9806,-2.9553,-2.97,-3.0167,0.0,-3.0181,0.0,-3.0528,-3.0742,0.0,-3.0087,-2.9887,-2.9913,-2.9887,-2.9887,-2.982,0.0,-2.8831,-2.8671,0.0,-2.7749,-2.7228,-2.8551,0.0,0.0,0.0,0.0,0.0,0.0,-2.9312,0.0,0.0,0.0,0.0,0.0,0.0,0.0,0.0,0.0,0.0,0.0,0.0,0.0,0.0,0.0,0.0,0.0,0.0,0.0,0.0,0.0,-2.5798,-2.517,-2.4756,-2.4195,-2.342,-2.3046,-2.117,-1.7318,-1.7178,-1.5425,-1.1619,-1.1898,-1.2054,-1.2169,-1.2372,-1.2522,-1.2556,-1.2556,-1.2542,-1.2528,-1.2528,-1.2684,-1.2949,-1.3091,-1.3336,-1.3634,-1.3668,-1.3858,-1.4122,-1.4122,-1.4122,-1.4143,-2.9419,-2.8965,-2.8484,0.0,0.0,0.0,0.0,0.0,-2.8751,-2.9005,-2.9192,-2.9593,-3.0341,-3.0167,-3.0381,-3.133,-3.0581,-3.0421,-3.1289,-3.0889,-3.0768,-3.1102,-3.1744,-3.1931,-3.1557,-3.1797,-3.169,-3.1223,-3.0982,-3.0688,-3.0354,-3.0234,-2.9993,-2.9673,-2.9713,0.0,-2.9633,0.0,-3.0194,0.0,0.0,0.0,0.0,-3.0007,-2.9913,-2.9913,-2.9913,-2.9913,-2.982,0.0,-2.9072,0.0,0.0,0.0,0.0,0.0,0.0,0.0,0.0,0.0,0.0,0.0,0.0,0.0,-2.9646,0.0,-2.9766,0.0,0.0,0.0,0.0,0.0,0.0,0.0,0.0,0.0,0.0,0.0,0.0,0.0,0.0,0.0,0.0,0.0,0.0,0.0,0.0,-2.204,-2.1687,-2.2454,-2.117,-1.7318,-1.7178,-1.5425,-1.1619,-1.1911,-1.2135,-1.2067,-1.2359,-1.2501,-1.2501,-1.2501,-1.2501,-1.2501,-1.2501,-1.2623,-1.2834,-1.2888,-1.3146,-1.3492,-1.3397,-1.36,-1.3939,-1.3939,-1.3994,-1.4082,-2.9032,-2.839,-2.7829,-2.7989,0.0,0.0,0.0,0.0,-2.8738,-2.8898,-2.9112,-2.9553,-3.0341,-3.0314,-3.0541,-3.1276,-3.0862,-3.0648,-3.0902,-3.0768,-3.0715,-3.0822,-3.165,-3.1917,-3.1517,-3.1891,-3.181,-3.1223,-3.1223,-3.0969,-3.0474,-3.0394,-3.014,-2.9726,-2.978,-2.9606,-2.9312,0.0,-2.9993,-2.9793,-2.9793,-2.9753,-2.9673,-2.9673,-2.9726,-2.978,-2.97,-2.9726,-2.9713,-2.9112,-2.9058,0.0,-2.8123,0.0,0.0,0.0,0.0,0.0,-2.9339,0.0,0.0,0.0,0.0,0.0,0.0,0.0,0.0,0.0,0.0,0.0,0.0,0.0,0.0,0.0,0.0,0.0,0.0,0.0,0.0,0.0,0.0,0.0,0.0,0.0,0.0,0.0,-2.0523,-1.991,-1.9742,-2.1249,-2.0397,-1.6545,-1.6896,-1.5381,-1.1674,-1.1932,-1.2081,-1.2128,-1.2379,-1.2501,-1.2501,-1.2501,-1.2501,-1.2501,-1.2501,-1.2589,-1.2732,-1.2732,-1.2969,-1.3329,-1.3214,-1.3397,-1.3722,-1.377,-1.3851,-1.396,-2.8261,-2.7468,-2.7041,-2.7615,0.0,0.0,0.0,0.0,0.0,-2.8551,-2.8631,-2.8858,-2.9459,-2.9766,-3.0394,-3.1557,-3.0608,-3.0301,-3.1156,-3.0688,-2.9873,-2.8751,-3.0889,-3.1436,-3.002,-3.1383,-3.181,-3.1223,-3.1223,-3.1076,-3.0768,-3.0488,-3.0354,-3.0314,-2.9753,-2.9646,-2.9873,-2.9619,-2.9499,-2.9499,-2.9499,-2.9325,-2.9072,0.0,-2.9245,-2.9459,-2.9179,0.0,0.0,-2.8818,-2.8631,0.0,0.0,0.0,0.0,0.0,0.0,0.0,0.0,0.0,0.0,-2.9339,0.0,0.0,0.0,0.0,-2.9499,0.0,0.0,0.0,0.0,0.0,0.0,0.0,0.0,0.0,0.0,0.0,0.0,0.0,0.0,0.0,0.0,0.0,0.0,-1.9338,-1.8881,-1.8418,-1.7837,-1.9352,-1.8438,-1.4645,-1.6263,-1.5444,-1.1823,-1.1979,-1.2135,-1.2284,-1.2433,-1.2501,-1.2501,-1.2501,-1.2501,-1.2501,-1.2501,-1.2589,-1.2732,-1.2732,-1.2908,-1.318,-1.3173,-1.3275,-1.3431,-1.358,-1.3641,-1.3682,-2.7268,-2.656,-2.6199,-2.6987,-2.6947,0.0,0.0,-2.8203,0.0,0.0,-2.9806,0.0,0.0,-3.1597,-3.1891,0.0,0.0,-3.1623,-3.153,-3.1156,0.0,-3.0354,-3.1102,-3.1289,-3.0795,-3.1276,-3.133,-3.0942,-3.0942,-3.0889,-3.0782,-3.0501,-3.0461,-3.0621,0.0,-2.9713,0.0,0.0,0.0,0.0,0.0,-2.8845,-2.8778,0.0,0.0,-2.9179,-2.9072,-2.9098,0.0,-2.8965,-2.8764,-2.8591,-2.8484,-2.8377,-2.8323,-2.8417,-2.8511,0.0,0.0,0.0,-2.8938,-2.9138,0.0,0.0,0.0,0.0,0.0,0.0,0.0,0.0,0.0,0.0,0.0,0.0,0.0,0.0,0.0,0.0,0.0,0.0,0.0,0.0,0.0,0.0,0.0,-2.0979,-1.9283,-1.798,0.0,-1.9212,-1.8369,-1.4503,-1.5,-1.4239,-1.183,-1.1986,-1.2142,-1.2291,-1.2433,-1.2501,-1.2501,-1.2501,-1.2501,-1.2501,-1.2501,-1.2528,-1.2576,-1.2576,-1.2698,-1.2881,-1.2881,-1.303,-1.3268,-1.3424,-1.3539,-1.3675,-2.6841,-2.6373,-2.6159,-2.672,-2.6827,0.0,0.0,0.0,0.0,0.0,-3.0515,0.0,-3.2278,0.0,-3.2933,0.0,-3.316,-3.2706,-3.1583,-3.1717,0.0,-3.0635,-3.1102,-3.1142,-3.0621,-3.0915,-3.0822,-3.0327,0.0,-3.0795,0.0,0.0,0.0,-3.0768,0.0,-2.9646,-2.9179,0.0,-2.8978,0.0,0.0,-2.8537,0.0,0.0,-2.8858,-2.9005,0.0,-2.8724,-2.8711,-2.8604,-2.8444,-2.8283,-2.8283,-2.8364,-2.8444,-2.8444,-2.8497,-2.8591,-2.8684,-2.8724,0.0,-2.8858,-2.9112,0.0,-2.9459,0.0,0.0,0.0,0.0,0.0,0.0,0.0,0.0,0.0,0.0,0.0,0.0,0.0,0.0,0.0,0.0,0.0,0.0,0.0,-1.6112,-1.9727,-1.8263,-1.7103,0.0,0.0,-1.7681,-1.4503,-1.507,-1.4597,-1.2838,-1.2349,-1.2142,-1.2291,-1.2433,-1.2501,-1.2501,-1.2501,-1.2501,-1.2501,-1.2501,-1.2501,-1.2501,-1.2501,-1.2589,-1.2732,-1.2732,-1.2908,-1.3186,-1.3281,-1.3485,-1.3729,-2.6827,-2.6814,-2.6854,-2.6881,-2.6894,0.0,0.0,0.0,-2.9325,0.0,-3.0782,-3.1583,-3.2171,-3.3,-3.3507,-3.3494,-3.4015,-3.3494,-3.1503,-3.2398,0.0,0.0,-3.0915,-3.0982,-2.9553,0.0,-3.0354,-2.9499,0.0,0.0,0.0,0.0,0.0,0.0,-3.0167,0.0,-2.8631,-2.8898,-2.8671,-2.8234,-2.8457,-2.8404,-2.8221,-2.8207,-2.847,-2.8898,-2.8323,-2.8194,-2.814,-2.7789,-2.7682,-2.7682,-2.7709,-2.7909,-2.8207,-2.8221,-2.7936,-2.7762,-2.8127,-2.8194,-2.8177,-2.8385,0.0,0.0,0.0,0.0,-2.5271,0.0,0.0,0.0,0.0,0.0,0.0,0.0,0.0,0.0,0.0,0.0,0.0,0.0,0.0,0.0,0.0,-1.6927,-1.6651,-1.599,-1.5957,-1.5616,0.0,0.0,-1.6401,-1.4307,-1.5999,-1.6183,-1.4617,-1.2956,-1.2155,-1.2311,-1.244,-1.2501,-1.2501,-1.2501,-1.2501,-1.2501,-1.2501,-1.2501,-1.2501,-1.2501,-1.2589,-1.2718,-1.2725,-1.2908,-1.3173,-1.318,-1.3464,-1.3838,-2.6199,-2.6707,-2.7295,-2.7722,-2.7802,-2.7963,0.0,0.0,0.0,0.0,-3.2238,-3.3427,-3.4015,-3.4282,-3.4509,-3.4723,-3.4683,0.0,0.0,0.0,0.0,-3.149,-3.137,-3.0955,-3.0154,-3.0354,-3.0247,-2.9806,0.0,0.0,-3.0461,0.0,0.0,0.0,0.0,0.0,-2.8604,-2.8684,-2.8364,-2.7843,-2.8136,-2.8301,0.0,0.0,-2.7909,-2.8016,-2.7869,-2.7669,-2.7509,-2.7655,-2.7549,-2.7455,-2.7883,-2.7923,-2.7856,-2.8167,-2.7936,-2.7722,-2.7789,-2.7655,-2.7165,-2.5545,-2.5494,-2.5419,0.0,0.0,0.0,0.0,0.0,0.0,0.0,0.0,0.0,0.0,0.0,0.0,0.0,0.0,0.0,0.0,0.0,0.0,0.0,-1.5447,-1.5451,-1.8103,-1.6344,-1.5117,0.0,0.0,0.0,-1.2561,-1.2924,-1.3118,-1.3079,-1.2491,-1.2359,-1.2617,-1.2535,-1.2501,-1.2501,-1.2501,-1.2501,-1.2501,-1.2501,-1.2501,-1.2501,-1.2501,-1.2522,-1.2569,-1.2684,-1.2908,-1.3186,-1.3302,-1.3553,-1.3838,-2.5812,-2.6466,-2.7295,-2.81,0.0,0.0,-2.9312,-2.986,0.0,-3.1142,-3.2438,0.0,-3.3761,-3.4376,-3.483,-3.499,-3.4977,0.0,-3.3961,0.0,0.0,-3.1971,-3.1717,-3.1156,-3.0181,-2.9913,0.0,-2.9539,0.0,0.0,-3.0354,0.0,0.0,0.0,0.0,-2.9112,0.0,-2.8123,-2.8043,-2.8083,-2.7989,0.0,0.0,-2.7615,-2.7348,-2.7108,-2.6987,-2.6987,-2.7081,-2.7108,-2.7188,-2.7321,-2.7738,-2.7736,-2.7736,-2.7896,-2.7642,-2.7281,-2.7161,-2.6431,-2.5376,-2.3925,-2.3367,-2.2824,-2.1622,-2.0783,-2.0295,0.0,0.0,0.0,0.0,0.0,0.0,0.0,0.0,0.0,0.0,0.0,0.0,0.0,0.0,0.0,0.0,-1.5143,-1.5545,-1.7446,-1.6218,0.0,0.0,0.0,0.0,-1.313,-1.3057,-1.3229,-1.3574,-1.2747,-1.2372,-1.2535,-1.2515,-1.2501,-1.2501,-1.2501,-1.2501,-1.2501,-1.2501,-1.2501,-1.2501,-1.2501,-1.2501,-1.2522,-1.2745,-1.2969,-1.32,-1.3417,-1.3648,-1.3851,0.0,0.0,0.0,0.0,0.0,0.0,0.0,-3.0114,0.0,-3.1209,0.0,-3.2772,-3.2772,-3.3895,-3.467,-3.4696,0.0,-3.4589,-3.3547,-3.3935,-3.348,-3.1851,-3.1957,-3.141,-3.006,-2.9379,-2.9058,0.0,0.0,0.0,0.0,0.0,0.0,0.0,0.0,0.0,0.0,-2.7482,-2.7696,0.0,-2.7843,-2.7642,-2.7602,-2.7281,-2.6814,-2.6293,-2.5959,-2.6213,-2.668,-2.6466,-2.676,-2.7215,-2.7255,-2.7264,-2.7214,-2.7214,-2.6574,-2.5863,-2.5698,-2.44,-2.3017,-2.2384,-2.1365,-2.0462,-2.0392,-1.8909,-1.7648,-1.7804,-1.6122,-1.4645,0.0,0.0,0.0,0.0,0.0,0.0,0.0,0.0,0.0,0.0,0.0,0.0,0.0,0.0,0.0,0.0,0.0,0.0,0.0,0.0,0.0,-1.4689,-1.4488,0.0,-1.5497,0.0,-1.2519,-1.286,-1.2622,-1.2501,-1.2501,-1.2501,-1.2501,-1.2501,-1.2501,-1.2501,-1.2501,-1.2501,-1.2522,-1.2589,-1.2874,-1.3078,-1.3241,-1.3546,-1.3736,-1.3865,0.0,0.0,0.0,0.0,0.0,-2.9766,-3.0595,-3.145,-3.1998,-3.1957,-3.3146,-3.4002,-3.4002,-3.4028,-3.4135,-3.4376,-3.4229,0.0,0.0,0.0,0.0,-3.2425,-3.1971,-3.1396,-3.0648,-2.9593,-2.9165,0.0,0.0,0.0,0.0,0.0,0.0,0.0,0.0,0.0,-2.7415,-2.7308,0.0,-2.7148,-2.7281,-2.7348,-2.7281,-2.6747,-2.6333,-2.5959,-2.5424,-2.5611,-2.6132,-2.6319,-2.6613,-2.6947,-2.7188,-2.6121,-2.4649,-2.4649,-2.3093,-2.1463,-2.142,-2.0976,-2.011,-1.82,-1.7785,-1.7358,-1.5522,-1.5089,-1.5137,-1.5165,-1.4723,-1.4407,-1.4496,0.0,0.0,0.0,0.0,0.0,0.0,0.0,0.0,0.0,0.0,0.0,0.0,0.0,0.0,0.0,0.0,0.0,0.0,0.0,0.0,0.0,-1.3476,0.0,0.0,0.0,-1.3712,-1.5784,-1.3596,-1.2501,-1.2501,-1.2501,-1.2501,-1.2501,-1.2501,-1.2501,-1.2501,-1.2501,-1.2651,-1.2895,-1.3071,-1.3227,-1.3397,-1.3695,-1.3817,-1.3865,0.0,0.0,0.0,0.0,0.0,0.0,0.0,-3.1757,0.0,-3.1917,-3.2505,-3.2946,-3.2946,-3.336,-3.3641,-3.3627,-3.3627,-3.3574,-3.3427,-3.3267,-3.2853,-3.2118,-3.1824,-3.133,-3.0581,-2.9112,-2.8724,-2.9486,0.0,0.0,0.0,0.0,0.0,0.0,0.0,-2.7976,0.0,0.0,0.0,-2.7268,-2.7094,-2.6947,-2.676,-2.6333,-2.5892,-2.5464,-2.5184,-2.5358,-2.5745,-2.5892,-2.6426,-2.6879,-2.5715,-2.4714,-2.3774,-2.2348,-2.105,-2.0018,-1.9785,-1.8998,-1.7955,-1.6811,-1.5941,-1.5135,-1.4198,-1.419,-1.4401,-1.4401,-1.4285,-1.4156,-1.4068,-1.3878,0.0,0.0,0.0,0.0,0.0,0.0,0.0,0.0,0.0,0.0,0.0,0.0,0.0,0.0,0.0,0.0,0.0,0.0,0.0,0.0,0.0,0.0,0.0,0.0,0.0,-1.4589,-1.426,-1.3491,-1.2501,-1.2501,-1.2501,-1.2501,-1.2501,-1.2501,-1.2508,-1.2589,-1.28,-1.3078,-1.3146,-1.3268,-1.3437,-1.3729,-1.3838,-1.3871,0.0,-2.6426,0.0,0.0,-2.9432,0.0,-3.1022,-3.1637,-3.1971,-3.1864,-3.1851,-3.1877,-3.1944,-3.2706,-3.3133,-3.2906,-3.3093,-3.3106,-3.2812,-3.2732,-3.2358,-3.161,-3.1463,-3.1062,-3.0381,-2.8604,-2.819,0.0,0.0,0.0,0.0,0.0,0.0,0.0,0.0,0.0,0.0,0.0,-2.6841,-2.7375,-2.6921,-2.66,-2.6346,-2.5999,-2.5531,-2.5077,-2.5077,-2.5264,-2.5518,-2.5518,-2.6213,-2.6703,-2.4247,-2.3342,-2.2673,-2.0079,-1.8923,-1.846,-1.8041,-1.6993,-1.5925,-1.5809,-1.4806,-1.3871,-1.3994,-1.4143,-1.4245,-1.4211,-1.4082,-1.3885,-1.3587,-1.3627,0.0,0.0,0.0,0.0,0.0,0.0,0.0,0.0,0.0,0.0,0.0,0.0,0.0,0.0,0.0,0.0,0.0,0.0,0.0,0.0,0.0,-1.3197,-1.4346,0.0,-1.4664,0.0,-1.4446,-1.4022,-1.2501,-1.2501,-1.2501,-1.2501,-1.2501,-1.2522,-1.2562,-1.2745,-1.2963,-1.3173,-1.3207,-1.3295,-1.3437,-1.3729,-1.3838,-1.3885,0.0,0.0,0.0,0.0,0.0,0.0,-3.0822,-3.133,-3.1891,-3.2495,-3.2562,-3.2559,-3.2826,-3.2719,-3.2612,-3.2683,-3.271,-3.2505,-3.2211,-3.1944,-3.1637,-3.1276,-3.0768,-3.0448,-3.0354,-2.8604,-2.7883,0.0,0.0,0.0,0.0,0.0,0.0,0.0,0.0,0.0,0.0,-2.66,-2.668,-2.6507,-2.6453,-2.6413,-2.6333,-2.5772,-2.5358,-2.5077,-2.5077,-2.5264,-2.5518,-2.5518,-2.5945,-2.6056,-2.384,-2.182,-1.9876,-1.7556,-1.5514,-1.3969,-1.3934,-1.3783,-1.3763,-1.3818,-1.3807,-1.3759,-1.3858,-1.398,-1.4055,-1.3912,-1.377,-1.358,-1.3268,-1.3227,-1.3227,0.0,0.0,0.0,0.0,0.0,0.0,0.0,0.0,0.0,0.0,0.0,0.0,0.0,0.0,0.0,0.0,0.0,0.0,-1.502,0.0,-1.489,-1.8886,-1.5146,-1.4273,-1.6237,-1.386,-1.2656,-1.2501,-1.2501,-1.2501,-1.2501,-1.2501,-1.2583,-1.2732,-1.3017,-1.3146,-1.3186,-1.3322,-1.339,-1.3437,-1.3729,-1.3838,-1.3885,0.0,0.0,0.0,0.0,0.0,0.0,0.0,-3.1289,-3.1757,-3.1984,-3.2171,-3.2318,-3.2438,-3.2345,-3.2211,-3.2038,-3.2024,-3.1971,-3.1851,-3.157,-3.1276,-3.0982,-3.0581,-3.0274,-3.01,-2.8698,-2.8114,0.0,0.0,0.0,0.0,0.0,0.0,0.0,0.0,-2.6881,-2.672,-2.6426,-2.644,-2.6613,-2.6266,-2.6026,-2.5825,-2.5411,-2.5064,-2.4863,-2.5211,-2.5304,-2.5152,-2.4225,-2.4199,-2.4129,-2.158,-1.9524,-1.7593,-1.5197,-1.3984,-1.3383,-1.3288,-1.3397,-1.3573,-1.3722,-1.3797,-1.3865,-1.396,-1.3953,-1.3912,-1.3851,-1.3729,-1.3539,-1.3227,-1.3322,-1.339,0.0,0.0,0.0,0.0,0.0,0.0,0.0,0.0,0.0,0.0,0.0,0.0,0.0,0.0,0.0,0.0,0.0,0.0,-1.3863,0.0,-1.3902,-1.5731,-1.5066,-1.4569,-1.4241,-1.4322,-1.3645,-1.2501,-1.2501,-1.2501,-1.2508,-1.2596,-1.2725,-1.2888,-1.3085,-1.3227,-1.3315,-1.3376,-1.3403,-1.3437,-1.3729,-1.3838,-1.3885,-2.7148,0.0,-2.8542,0.0,-3.01,-3.0555,-3.0755,-3.1223,-3.1543,-3.1543,-3.1797,-3.2011,-3.2091,-3.2024,-3.1851,-3.157,-3.1623,-3.1597,-3.1423,-3.1209,-3.0969,-3.0675,-3.0381,0.0,-2.9927,-2.8845,-2.819,-2.8016,-2.7428,0.0,0.0,0.0,0.0,0.0,-2.636,-2.6466,-2.6841,-2.6306,-2.6319,-2.6653,-2.6159,-2.5785,-2.5478,-2.5197,-2.4957,-2.4823,-2.5237,-2.5371,-2.508,-2.3332,-2.2574,-2.1838,-1.9194,-1.7645,-1.6301,-1.3863,-1.3234,-1.3376,-1.3268,-1.3431,-1.3654,-1.3756,-1.381,-1.3858,-1.3926,-1.3858,-1.3763,-1.3722,-1.3634,-1.3485,-1.322,-1.339,-1.3464,-1.3159,0.0,0.0,0.0,0.0,0.0,0.0,-1.3057,-1.2861,-1.3024,0.0,0.0,0.0,0.0,0.0,0.0,0.0,0.0,0.0,0.0,0.0,0.0,-1.4268,-1.4125,-1.2725,-1.4029,-1.3868,-1.2501,-1.2501,-1.2501,-1.2515,-1.2712,-1.2861,-1.2976,-1.3159,-1.3302,-1.3403,-1.3403,-1.3403,-1.3437,-1.3729,-1.3838,-1.3892,-2.6987,-2.7819,-2.8596,-2.97,-3.0394,-3.0795,-3.0795,-3.1036,-3.1236,-3.1236,-3.149,-3.1784,-3.2064,-3.1851,-3.1557,-3.1249,-3.1503,-3.1423,-3.0835,-3.0795,-3.0675,0.0,0.0,-2.9913,-2.9913,-2.9045,-2.831,-2.7709,0.0,0.0,-2.5117,0.0,-2.6119,-2.6413,-2.668,-2.6493,-2.6063,-2.6266,-2.6386,-2.6373,-2.6079,-2.5785,-2.5478,-2.5197,-2.5077,-2.5077,-2.5077,-2.5451,-2.5581,-2.3169,-2.1212,-1.9334,-1.7101,-1.6385,-1.6023,-1.4002,-1.3397,-1.3403,-1.3397,-1.3512,-1.3627,-1.3634,-1.3736,-1.3804,-1.3668,-1.3634,-1.3587,-1.3437,-1.3403,-1.3356,-1.32,-1.3302,-1.3308,-1.301,0.0,0.0,0.0,0.0,0.0,0.0,-1.2963,-1.2901,-1.2752,0.0,0.0,0.0,0.0,0.0,0.0,0.0,0.0,-1.2732,-1.2881,0.0,-1.2963,-1.2807,-1.2732,-1.2725,-1.2576,-1.2501,-1.2501,-1.2501,-1.2501,-1.2522,-1.2827,-1.3043,-1.2983,-1.3275,-1.3397,-1.3403,-1.3403,-1.3403,-1.3437,-1.3729,-1.3838,-1.3905,-2.835,-2.8791,-2.9245,-2.982,-3.0234,-3.0434,-3.0221,-3.0608,-3.0929,-3.0929,-3.1009,-3.1183,-3.1476,-3.1597,-3.1557,0.0,-3.1316,-3.1209,0.0,-3.0608,-3.0461,-3.0368,-3.0074,-2.9913,-2.9913,-2.9245,-2.8604,-2.8003,0.0,0.0,0.0,-2.5665,-2.5705,-2.5798,-2.5892,-2.6159,-2.6547,-2.6426,-2.6507,-2.664,-2.6146,-2.5905,-2.5785,-2.5491,-2.5251,-2.5104,-2.5304,-2.4431,-2.2798,-2.0857,-1.8887,-1.6836,-1.4819,-1.4216,-1.4068,-1.3472,-1.3315,-1.3403,-1.3403,-1.3512,-1.3627,-1.3627,-1.3661,-1.3682,-1.3641,-1.3546,-1.3458,-1.341,-1.3403,-1.339,-1.3336,-1.3281,-1.3214,-1.3119,-1.3064,0.0,0.0,0.0,0.0,0.0,-1.2467,-1.2406,0.0,-1.2617,0.0,0.0,0.0,0.0,0.0,0.0,0.0,0.0,-1.2779,0.0,-1.3043,-1.2705,-1.2623,-1.2725,-1.2576,-1.2501,-1.2501,-1.2501,-1.2556,-1.2671,-1.2874,-1.3017,-1.3119,-1.3315,-1.3403,-1.3403,-1.3403,-1.3464,-1.358,-1.377,-1.3905,-1.4048,-2.8965,-2.9285,-2.9579,-2.986,-3.0074,-3.0127,-2.994,-3.0327,-3.0635,-3.0635,-3.0822,-3.0982,-3.1049,-3.133,0.0,-3.0942,-3.0996,-3.0889,-3.0488,-3.0394,-3.0314,-3.0194,-3.002,-2.9913,-2.9913,0.0,0.0,-2.8323,-2.7575,-2.672,-2.5785,-2.5598,-2.5571,-2.5678,-2.5678,-2.6052,-2.6653,-2.6466,-2.6493,-2.6613,-2.6146,-2.6037,-2.5919,-2.5504,-2.5237,-2.5028,-2.4353,-2.3197,-2.1551,-1.8976,-1.7225,-1.5825,-1.3782,-1.3173,-1.3186,-1.3241,-1.3322,-1.3403,-1.3403,-1.3512,-1.3614,-1.3559,-1.3587,-1.3614,-1.3559,-1.3471,-1.3383,-1.3329,-1.3315,-1.3302,-1.3247,-1.3159,-1.3071,-1.3017,-1.2881,-1.2718,-1.2508,0.0,0.0,0.0,0.0,0.0,0.0,-1.2637,-1.2623,0.0,0.0,0.0,0.0,0.0,0.0,-1.2644,-1.2759,0.0,-1.2874,-1.2684,-1.2637,-1.2725,-1.2576,-1.2501,-1.2501,-1.2562,-1.2637,-1.2745,-1.2949,-1.3091,-1.3186,-1.3336,-1.3403,-1.3403,-1.3403,-1.3492,-1.3648,-1.379,-1.3973,-1.4197,-2.8925,-2.9299,0.0,0.0,-2.9913,0.0,-2.9913,-3.0154,-3.0341,-3.0354,-3.0808,-3.1036,-3.0795,-3.0982,-3.0915,-3.0381,0.0,0.0,0.0,-3.0181,-3.0207,-2.9927,-2.9913,-2.99,-2.9887,-2.9325,-2.8871,-2.8511,-2.7081,-2.6106,-2.5545,-2.5518,-2.5678,-2.6037,-2.6037,-2.6119,-2.6386,-2.6373,-2.6373,-2.636,-2.6052,-2.601,-2.5865,-2.5291,-2.5064,-2.4737,-2.2585,-2.1912,-2.1468,-1.7492,-1.6215,-1.5837,-1.381,-1.3166,-1.32,-1.3329,-1.3383,-1.3397,-1.339,-1.3498,-1.358,-1.3437,-1.3505,-1.3573,-1.3431,-1.339,-1.3342,-1.32,-1.3166,-1.3119,-1.2983,-1.2949,-1.2895,-1.2752,-1.2589,-1.2393,-1.2115,0.0,0.0,0.0,0.0,0.0,0.0,-1.2874,-1.284,0.0,0.0,0.0,0.0,0.0,-1.2678,-1.2522,-1.2807,-1.2895,-1.2759,-1.2752,-1.2739,-1.2725,-1.2576,-1.2508,-1.2522,-1.2664,-1.2739,-1.2773,-1.3051,-1.318,-1.32,-1.3342,-1.3403,-1.3403,-1.3403,-1.3498,-1.3661,-1.3804,-1.4048,-1.4353,0.0,0.0,-2.9833,-2.99,-2.9913,-2.9913,-2.9913,-2.998,-3.01,-3.0327,-3.0287,-3.0287,-3.0448,-3.0327,-3.0167,-3.0034,-3.0287,-3.0301,-2.994,-2.998,-2.9993,-2.9913,-2.9913,-2.9806,-2.9593,-2.9232,-2.8564,-2.7589,-2.6787,-2.6199,-2.5852,-2.5625,-2.5678,-2.6037,-2.6037,-2.6119,-2.6373,-2.6146,-2.6186,-2.6346,-2.5825,-2.5611,-2.5585,-2.5224,-2.4943,-2.4433,-2.2382,-2.0823,-1.9396,-1.6924,-1.515,-1.3959,-1.324,-1.3085,-1.3159,-1.3085,-1.3227,-1.3376,-1.3261,-1.3336,-1.3444,-1.341,-1.3431,-1.3444,-1.341,-1.3308,-1.3214,-1.318,-1.3085,-1.3003,-1.305,-1.2868,-1.2773,-1.2732,-1.2508,-1.2318,-1.2244,-1.2135,0.0,0.0,-1.2515,-1.2651,-1.2881,-1.2942,-1.2881,0.0,0.0,0.0,0.0,-1.282,-1.2834,-1.2678,-1.2861,-1.2996,-1.3064,-1.2963,-1.2847,-1.2725,-1.2576,-1.2562,-1.2678,-1.2712,-1.2854,-1.3071,-1.3146,-1.3241,-1.3349,-1.3383,-1.3403,-1.3403,-1.3403,-1.3559,-1.381,-1.396,-1.4204,-1.4502,-2.9045,-2.9513,-2.9913,-2.9913,-2.9913,-2.9913,-2.9913,-2.9913,-2.998,-3.014,-3.002,-2.998,-3.014,-3.0007,-2.9913,-2.9913,-3.006,-3.0087,-2.9927,-2.9913,-2.9913,-2.9913,-2.9913,-2.978,-2.9486,-2.9192,-2.8457,-2.7268,-2.6814,-2.6373,-2.6037,-2.5932,-2.5932,-2.6037,-2.6092,-2.5675,-2.4907,-2.4708,-2.4528,-2.4516,-2.4073,-2.4378,-2.5077,-2.4796,-2.4044,-2.2893,-2.0966,-1.909,-1.7302,-1.5417,-1.4003,-1.3078,-1.299,-1.2915,-1.2854,-1.2773,-1.301,-1.3295,-1.3281,-1.3336,-1.3403,-1.3403,-1.3403,-1.3403,-1.3403,-1.3281,-1.3152,-1.3091,-1.2956,-1.2834,-1.2766,-1.2684,-1.2623,-1.2623,-1.2433,-1.2291,-1.2291,-1.2216,0.0,-1.2386,-1.2589,-1.2745,-1.2847,-1.2976,-1.2996,-1.2847,-1.2773,0.0,-1.2834,-1.2915,-1.2922,-1.284,-1.3051,-1.3132,-1.3078,-1.2929,-1.2779,-1.2623,-1.261,-1.2651,-1.2732,-1.2868,-1.3024,-1.3173,-1.3247,-1.3322,-1.3403,-1.3403,-1.3403,-1.3403,-1.3403,-1.3539,-1.3763,-1.3912,-1.4197,-1.4543,-2.9045,-2.9513,-2.9913,-2.9913,-2.9913,-2.9913,-2.9913,-2.9913,-2.9913,-2.9913,-2.9873,-2.9873,-2.9913,-2.9873,-2.9873,-2.9913,-2.9913,-2.9913,-2.9913,-2.9913,-2.9913,-2.9913,-2.9913,-2.9766,-2.9419,-2.8991,-2.827,-2.7268,-2.6584,-2.6016,-2.5544,-2.5464,-2.5451,-2.5557,-2.5793,-2.484,-2.3117,-2.2902,-2.2666,-2.2323,-2.1754,-2.253,-2.4088,-2.3473,-2.2301,-2.0601,-1.8754,-1.7153,-1.56,-1.3917,-1.3098,-1.2786,-1.2895,-1.2732,-1.2501,-1.2501,-1.2807,-1.3166,-1.3302,-1.3349,-1.337,-1.3397,-1.3383,-1.3363,-1.3363,-1.3247,-1.3098,-1.2956,-1.28,-1.2657,-1.2528,-1.2501,-1.2501,-1.2501,-1.2379,-1.2298,-1.2318,0.0,-1.2305,-1.2352,-1.2712,-1.2915,-1.2807,-1.3044,-1.3146,-1.3003,-1.2874,-1.2854,-1.2983,-1.299,-1.3003,-1.3024,-1.3247,-1.3234,-1.2963,-1.2834,-1.2698,-1.2569,-1.2705,-1.2779,-1.2807,-1.3085,-1.3207,-1.3214,-1.337,-1.3424,-1.3403,-1.3403,-1.3403,-1.3403,-1.3424,-1.3526,-1.3682,-1.3871,-1.4197,-1.457,-2.9045,-2.9513,-2.9913,-2.9913,-2.9913,-2.9913,-2.9913,-2.9913,-2.9913,-2.9913,-2.97,-2.9646,-2.9887,-2.97,-2.9646,-2.99,-2.9913,-2.9913,-2.9913,-2.9913,-2.9913,-2.9913,-2.9913,-2.9659,-2.9125,-2.8083,-2.7455,-2.7268,-2.4914,-2.3644,-2.3492,-2.1753,-2.1823,-2.3572,-2.3608,-2.338,-2.3105,-2.2702,-2.2607,-2.24,-2.0091,-2.0217,-2.1714,-1.9741,-1.8801,-1.8204,-1.6442,-1.5888,-1.5655,-1.387,-1.3085,-1.2908,-1.28,-1.2644,-1.2501,-1.2501,-1.2732,-1.3003,-1.3024,-1.3119,-1.3241,-1.337,-1.3302,-1.3207,-1.3207,-1.3098,-1.2949,-1.28,-1.2644,-1.2528,-1.2508,-1.2501,-1.2501,-1.2501,-1.2379,-1.2332,-1.2454,0.0,-1.2386,-1.263,-1.284,-1.2996,-1.3091,-1.3261,-1.3302,-1.3152,-1.3119,-1.3112,-1.3139,-1.3139,-1.32,-1.3329,-1.3254,-1.3125,-1.2963,-1.2935,-1.2915,-1.2888,-1.2915,-1.299,-1.3112,-1.3281,-1.3363,-1.3376,-1.3526,-1.3519,-1.3403,-1.3403,-1.3403,-1.341,-1.3546,-1.3682,-1.3858,-1.4258,-1.4536,-1.4746,-2.9045,-2.9513,-2.9913,-2.9913,-2.9913,-2.9913,-2.9913,-2.9913,-2.9913,-2.9913,-2.9659,-2.9593,-2.9887,-2.9659,-2.9606,-2.9887,-2.9913,-2.9913,-2.9913,-2.9913,-2.9913,-2.9913,-2.9766,-2.9406,-2.8818,-2.7789,-2.6764,-2.5495,-2.3884,-2.2499,-2.1362,-2.0393,-2.0393,-2.1351,-2.1301,-2.0607,-1.9454,-1.9161,-1.8892,-1.86,-1.7152,-1.7704,-1.9292,-1.8217,-1.7295,-1.6509,-1.5701,-1.5058,-1.4475,-1.3499,-1.2969,-1.2718,-1.2725,-1.2515,-1.2311,-1.2556,-1.284,-1.3091,-1.3173,-1.3186,-1.3193,-1.3261,-1.3227,-1.3152,-1.3078,-1.301,-1.2915,-1.2759,-1.261,-1.2501,-1.2501,-1.2501,-1.2501,-1.2501,-1.2447,0.0,0.0,-1.2447,-1.2454,-1.2589,-1.2745,-1.2895,-1.3044,-1.3193,-1.3281,-1.3295,-1.322,-1.3207,-1.3295,-1.322,-1.3241,-1.3397,-1.318,-1.303,-1.2963,-1.2874,-1.2834,-1.284,-1.2996,-1.3152,-1.3302,-1.3451,-1.3526,-1.3526,-1.36,-1.3546,-1.341,-1.3492,-1.3526,-1.3539,-1.3688,-1.3831,-1.4,-1.4292,-1.4543,-1.4774,-2.9125,-2.9553,-2.9913,-2.9913,-2.9913,-2.9913,-2.9913,-2.9913,-2.9913,-2.9913,-2.9659,-2.9593,-2.9887,-2.9659,-2.9606,-2.9887,-2.9913,-2.9913,-2.9913,-2.9913,-2.9913,-2.9913,-2.9566,-2.9165,-2.8724,-2.7249,-2.5672,-2.3986,-2.247,-2.0758,-1.9095,-1.8654,-1.8654,-1.9167,-1.9504,-1.8455,-1.644,-1.6599,-1.6198,-1.536,-1.47,-1.5497,-1.7096,-1.6599,-1.5737,-1.4836,-1.4923,-1.4208,-1.3329,-1.3214,-1.2895,-1.2576,-1.2691,-1.2447,-1.2196,-1.261,-1.2942,-1.32,-1.3315,-1.3241,-1.3125,-1.3125,-1.3098,-1.3044,-1.2935,-1.2908,-1.2861,-1.2712,-1.2583,-1.2501,-1.2501,-1.2501,-1.2501,-1.2501,0.0,0.0,0.0,-1.2501,-1.2501,-1.2501,-1.2637,-1.2793,-1.2949,-1.3091,-1.3234,-1.339,-1.3295,-1.3275,-1.3397,-1.3288,-1.3281,-1.3397,-1.3146,-1.2996,-1.2963,-1.2874,-1.2834,-1.2834,-1.3139,-1.3342,-1.3458,-1.3648,-1.3695,-1.3634,-1.3661,-1.3593,-1.3464,-1.358,-1.3648,-1.3695,-1.3878,-1.4021,-1.415,-1.4373,-1.4597,-1.4814,-2.9392,-2.97,-2.9913,-2.9913,-2.9913,-2.9913,-2.9913,-2.9913,-2.9913,-2.9913,-2.9659,-2.9593,-2.9887,-2.9659,-2.9606,-2.9887,-2.9913,-2.9913,-2.9913,-2.9913,-2.9913,-2.9913,-2.9379,-2.9045,-2.9005,-2.589,-2.4164,-2.3986,-1.9576,-1.7147,-1.6811,-1.4946,-1.5097,-1.6884,-1.8692,-1.8366,-1.6521,-1.8076,-1.7585,-1.5568,-1.3618,-1.3883,-1.5269,-1.3704,-1.2908,-1.2782,-1.3079,-1.3212,-1.3186,-1.3173,-1.2969,-1.2718,-1.2725,-1.2522,-1.2332,-1.2637,-1.2942,-1.3173,-1.3186,-1.3085,-1.2976,-1.2976,-1.2868,-1.2759,-1.2752,-1.2745,-1.2705,-1.2549,-1.2508,-1.2501,-1.2501,-1.2501,-1.2501,-1.2501,0.0,0.0,-1.2501,-1.2501,-1.2501,-1.2501,-1.2637,-1.2793,-1.2949,-1.3091,-1.3234,-1.339,-1.339,-1.339,-1.3403,-1.339,-1.339,-1.3403,-1.3241,-1.3091,-1.2963,-1.3078,-1.3139,-1.3146,-1.3451,-1.36,-1.362,-1.3912,-1.3892,-1.3634,-1.377,-1.3743,-1.3614,-1.3627,-1.3709,-1.3858,-1.415,-1.4272,-1.4333,-1.4767,-1.4936,-1.4977,-2.9419,-2.9713,-2.9913,-2.9913,-2.9913,-2.9913,-2.9913,-2.9913,-2.9847,-2.9673,-2.9713,-2.9726,-2.9659,-2.9713,-2.9793,-2.99,-2.9913,-2.9913,-2.9913,-2.9913,-2.9833,-2.9659,-2.9259,-2.8243,-2.6636,-2.495,-2.2721,-1.981,-1.7856,-1.6103,-1.4623,-1.3867,-1.46,-1.6557,-1.5894,-1.5835,-1.6199,-1.5589,-1.4767,-1.3818,-1.304,-1.3183,-1.3796,-1.3144,-1.2895,-1.2942,-1.3159,-1.3207,-1.3159,-1.3071,-1.284,-1.2603,-1.2698,-1.2589,-1.2501,-1.2888,-1.3152,-1.3295,-1.32,-1.3071,-1.2963,-1.2963,-1.284,-1.2705,-1.261,-1.2664,-1.2684,-1.2535,-1.2501,-1.2501,-1.2501,-1.2501,-1.2501,-1.2501,0.0,-1.2501,-1.2501,-1.2501,-1.2501,-1.2501,-1.2637,-1.2793,-1.2949,-1.3091,-1.3234,-1.339,-1.3403,-1.3403,-1.3403,-1.3403,-1.3403,-1.3403,-1.3342,-1.3241,-1.3091,-1.3146,-1.322,-1.3315,-1.362,-1.381,-1.3912,-1.4116,-1.4048,-1.377,-1.3919,-1.3851,-1.3641,-1.3824,-1.3933,-1.4014,-1.4312,-1.4489,-1.4604,-1.4869,-1.5025,-1.5113,-2.9566,-2.978,-2.9913,-2.9913,-2.9913,-2.9913,-2.9913,-2.9913,-2.9847,-2.9646,-2.9793,-2.9847,-2.9646,-2.9793,-2.9913,-2.9913,-2.9913,-2.9913,-2.9913,-2.9913,-2.978,-2.9499,-2.8478,-2.7022,-2.5165,-2.3109,-2.0462,-1.729,-1.6365,-1.5059,-1.3471,-1.3519,-1.4278,-1.5664,-1.4631,-1.463,-1.5233,-1.4338,-1.3525,-1.2807,-1.2847,-1.2908,-1.2969,-1.3064,-1.3132,-1.3193,-1.3349,-1.3302,-1.3152,-1.309,-1.2786,-1.2589,-1.2698,-1.2718,-1.2773,-1.3085,-1.3281,-1.3376,-1.3275,-1.3105,-1.2949,-1.2901,-1.2773,-1.263,-1.2528,-1.2583,-1.263,-1.2522,-1.2501,-1.2501,-1.2501,-1.2501,-1.2501,-1.2501,-1.2501,-1.2501,-1.2501,-1.2501,-1.2522,-1.2569,-1.2664,-1.2807,-1.301,-1.3119,-1.3234,-1.339,-1.3444,-1.3471,-1.3471,-1.3424,-1.3424,-1.3471,-1.3424,-1.3397,-1.3383,-1.3336,-1.339,-1.3546,-1.3844,-1.4061,-1.4217,-1.4367,-1.4299,-1.4055,-1.4116,-1.4027,-1.3858,-1.4061,-1.417,-1.4238,-1.4536,-1.4719,-1.4828,-1.4984,-1.5099,-1.5181,-2.986,-2.9913,-2.9913,-2.9913,-2.9913,-2.9913,-2.9913,-2.9913,-2.9913,-2.9913,-2.9913,-2.9913,-2.9913,-2.9913,-2.9913,-2.9913,-2.9913,-2.9913,-2.9913,-2.9913,-2.978,-2.9499,-2.6945,-2.5424,-2.5078,-1.997,-1.7298,-1.7298,-1.4788,-1.3634,-1.3634,-1.3777,-1.3838,-1.391,-1.5589,-1.5275,-1.3542,-1.5225,-1.4844,-1.2976,-1.3119,-1.3091,-1.2996,-1.3295,-1.3308,-1.3193,-1.3349,-1.3302,-1.3152,-1.301,-1.2861,-1.2732,-1.2732,-1.2935,-1.3173,-1.3173,-1.3281,-1.3397,-1.3397,-1.3186,-1.2922,-1.2766,-1.2617,-1.2501,-1.2501,-1.2501,-1.2501,-1.2501,-1.2501,-1.2501,-1.2501,-1.2501,-1.2501,-1.2501,-1.2501,-1.2501,-1.2501,-1.2501,-1.2562,-1.2712,-1.2732,-1.2847,-1.3146,-1.3173,-1.3241,-1.339,-1.3546,-1.3627,-1.3627,-1.3485,-1.3471,-1.3627,-1.3485,-1.3546,-1.3838,-1.3702,-1.3702,-1.3844,-1.4156,-1.4373,-1.4516,-1.4672,-1.4658,-1.4502,-1.4367,-1.4299,-1.4299,-1.4306,-1.4387,-1.4543,-1.4848,-1.497,-1.4991,-1.5126,-1.5181,-1.5181,-2.986,-2.9913,-2.9913,-2.9913,-2.9913,-2.9913,-2.9913,-2.9913,-2.9847,-2.9633,-2.9793,-2.9847,-2.9633,-2.9793,-2.9913,-2.9913,-2.9913,-2.9913,-2.9913,-2.9913,-2.8962,-2.6949,-2.6049,-2.4791,-2.3026,-1.9328,-1.6644,-1.5024,-1.4187,-1.3777,-1.3777,-1.3824,-1.46,-1.6026,-1.4974,-1.4893,-1.5589,-1.4594,-1.3771,-1.3132,-1.339,-1.3403,-1.3302,-1.36,-1.3553,-1.3342,-1.3383,-1.3241,-1.3003,-1.2847,-1.2766,-1.2766,-1.2976,-1.3173,-1.3336,-1.3336,-1.3288,-1.3241,-1.3241,-1.3024,-1.2813,-1.2874,-1.2698,-1.2501,-1.2501,-1.2501,-1.2501,-1.2501,-1.2501,-1.2501,-1.2501,-1.2501,-1.2501,-1.2501,-1.2501,-1.2501,-1.2501,-1.2596,-1.2678,-1.2725,-1.2915,-1.3078,-1.3166,-1.3268,-1.3397,-1.3553,-1.36,-1.358,-1.3471,-1.3424,-1.3471,-1.3627,-1.3587,-1.3648,-1.3838,-1.3702,-1.381,-1.4163,-1.4353,-1.4529,-1.4672,-1.4719,-1.4658,-1.4509,-1.4468,-1.4448,-1.4455,-1.4563,-1.4631,-1.4692,-1.4896,-1.497,-1.4991,-1.5126,-1.5181,-1.5181,-2.9887,-2.9913,-2.9913,-2.9913,-2.9913,-2.9913,-2.9913,-2.9913,-2.986,-2.9673,-2.9806,-2.9847,-2.9673,-2.9806,-2.9913,-2.9913,-2.9913,-2.9913,-2.9913,-2.8989,-2.7718,-2.6006,-2.394,-2.2026,-2.0514,-1.7651,-1.5444,-1.4075,-1.3919,-1.3871,-1.3933,-1.3933,-1.465,-1.5894,-1.4394,-1.4323,-1.5378,-1.4026,-1.3349,-1.3288,-1.3532,-1.3539,-1.3431,-1.3729,-1.3654,-1.3403,-1.3403,-1.3214,-1.2935,-1.2779,-1.2773,-1.2861,-1.3098,-1.3275,-1.3403,-1.3403,-1.3295,-1.3173,-1.3173,-1.2956,-1.2752,-1.2847,-1.2684,-1.2501,-1.2501,-1.2501,-1.2522,-1.2576,-1.2542,-1.2522,-1.2583,-1.2542,-1.2501,-1.2501,-1.2501,-1.2501,-1.2501,-1.263,-1.2752,-1.2813,-1.303,-1.32,-1.3254,-1.3349,-1.3485,-1.3695,-1.377,-1.3763,-1.3668,-1.3607,-1.3648,-1.3797,-1.3743,-1.381,-1.4021,-1.3878,-1.4,-1.4387,-1.4529,-1.4713,-1.4916,-1.4916,-1.4862,-1.4774,-1.4719,-1.4692,-1.4699,-1.4794,-1.4828,-1.4848,-1.4997,-1.5052,-1.5065,-1.5153,-1.5181,-1.5181,-2.9913,-2.9913,-2.9913,-2.9913,-2.9913,-2.9913,-2.9913,-2.9913,-2.9913,-2.9913,-2.9913,-2.9913,-2.9913,-2.9913,-2.9913,-2.9913,-2.9734,-2.9644,-2.9913,-2.7328,-2.5866,-2.5866,-2.1038,-1.8147,-1.772,-1.5359,-1.4082,-1.4095,-1.3939,-1.3939,-1.4095,-1.4095,-1.4163,-1.4285,-1.398,-1.3838,-1.3824,-1.3526,-1.3403,-1.3417,-1.358,-1.3546,-1.3431,-1.3729,-1.3648,-1.3376,-1.3363,-1.318,-1.2922,-1.2793,-1.2854,-1.3003,-1.3146,-1.3288,-1.3403,-1.3403,-1.3281,-1.3152,-1.3152,-1.2935,-1.2712,-1.2712,-1.2603,-1.2508,-1.2522,-1.2515,-1.2549,-1.2698,-1.261,-1.2542,-1.2684,-1.261,-1.2522,-1.2522,-1.2535,-1.2542,-1.2542,-1.2671,-1.282,-1.2963,-1.3105,-1.3254,-1.3403,-1.3458,-1.3593,-1.3865,-1.4014,-1.4089,-1.4075,-1.3926,-1.3912,-1.4068,-1.3933,-1.4007,-1.4319,-1.4183,-1.4251,-1.4536,-1.4672,-1.4896,-1.5181,-1.5167,-1.5167,-1.5174,-1.5018,-1.4957,-1.497,-1.4957,-1.4957,-1.4984,-1.5113,-1.5174,-1.5181,-1.5181,-1.5181,-1.5181,-2.9913,-2.9913,-2.9913,-2.9913,-2.9913,-2.9913,-2.9913,-2.9913,-2.9913,-2.9913,-2.9913,-2.9913,-2.9913,-2.9913,-2.9913,-2.9913,-2.8166,-2.7792,-2.9734,-2.5775,-2.3289,-2.3289,-2.0143,-1.7493,-1.5495,-1.4543,-1.4129,-1.4251,-1.4095,-1.4102,-1.4251,-1.4251,-1.4272,-1.4285,-1.398,-1.3838,-1.3824,-1.3526,-1.3403,-1.3424,-1.3688,-1.3634,-1.3431,-1.3729,-1.3587,-1.3207,-1.3098,-1.2935,-1.2793,-1.2881,-1.3003,-1.3152,-1.3302,-1.3376,-1.3403,-1.3403,-1.3214,-1.301,-1.301,-1.2786,-1.2549,-1.2549,-1.2528,-1.2535,-1.2651,-1.2589,-1.2549,-1.2698,-1.261,-1.2515,-1.2549,-1.2623,-1.2678,-1.2678,-1.2779,-1.2861,-1.2861,-1.2983,-1.3091,-1.3125,-1.3261,-1.341,-1.3566,-1.3899,-1.4129,-1.4197,-1.4231,-1.4197,-1.4082,-1.3926,-1.3912,-1.4068,-1.4041,-1.4163,-1.4462,-1.4434,-1.4509,-1.4692,-1.4726,-1.4896,-1.5181,-1.5065,-1.5079,-1.5167,-1.4903,-1.4862,-1.4964,-1.4841,-1.4862,-1.4977,-1.5004,-1.5086,-1.5181,-1.5181,-1.5181,-1.5181,-2.9913,-2.9913,-2.9913,-2.9913,-2.9913,-2.9913,-2.9913,-2.9913,-2.9913,-2.9913,-2.9913,-2.9913,-2.9913,-2.9913,-2.9913,-2.9913,-2.7612,-2.6785,-2.8076,-2.3564,-2.0806,-2.0806,-1.8159,-1.5992,-1.474,-1.4373,-1.4217,-1.4299,-1.4217,-1.4224,-1.4299,-1.4299,-1.4299,-1.4292,-1.4055,-1.3953,-1.3933,-1.3634,-1.3512,-1.3526,-1.3675,-1.36,-1.3417,-1.3573,-1.3437,-1.3146,-1.2929,-1.28,-1.2752,-1.2908,-1.3057,-1.32,-1.3356,-1.3403,-1.3403,-1.3403,-1.3193,-1.2963,-1.2963,-1.2739,-1.2501,-1.2501,-1.2556,-1.261,-1.2617,-1.2617,-1.263,-1.2712,-1.2664,-1.263,-1.2705,-1.2725,-1.2752,-1.2827,-1.2908,-1.2963,-1.2963,-1.3085,-1.3173,-1.3173,-1.3431,-1.3702,-1.3926,-1.4224,-1.4401,-1.4401,-1.4468,-1.4441,-1.4292,-1.4143,-1.4095,-1.4177,-1.4183,-1.4251,-1.4407,-1.4475,-1.459,-1.474,-1.4814,-1.4964,-1.5181,-1.5106,-1.5113,-1.5167,-1.495,-1.4896,-1.4964,-1.4882,-1.4896,-1.497,-1.497,-1.5059,-1.5174,-1.5106,-1.5126,-1.5181,-2.9913,-2.9913,-2.9913,-2.9913,-2.9913,-2.9913,-2.9913,-2.9913,-2.9913,-2.9913,-2.9913,-2.9913,-2.9913,-2.9913,-2.9734,-2.9272,-2.6966,-2.5582,-2.5582,-2.0981,-1.8398,-1.8829,-1.6177,-1.4753,-1.4699,-1.4462,-1.4326,-1.4299,-1.4299,-1.4299,-1.4299,-1.4299,-1.4299,-1.4292,-1.4143,-1.4075,-1.4055,-1.3756,-1.3627,-1.3627,-1.3627,-1.3539,-1.3403,-1.3403,-1.3288,-1.3098,-1.2827,-1.2745,-1.2793,-1.2949,-1.3091,-1.3234,-1.3363,-1.3403,-1.3403,-1.3403,-1.3193,-1.2963,-1.2963,-1.2739,-1.2508,-1.2535,-1.2637,-1.2705,-1.2603,-1.2678,-1.2779,-1.28,-1.2786,-1.2807,-1.2935,-1.2874,-1.2847,-1.2976,-1.3017,-1.3057,-1.3105,-1.3193,-1.3281,-1.3356,-1.3695,-1.4041,-1.4346,-1.4482,-1.4563,-1.459,-1.4685,-1.4685,-1.4557,-1.4414,-1.434,-1.434,-1.434,-1.434,-1.434,-1.4475,-1.4624,-1.478,-1.4936,-1.5065,-1.5181,-1.5181,-1.5181,-1.5174,-1.5031,-1.4957,-1.493,-1.4903,-1.4909,-1.493,-1.493,-1.5031,-1.5167,-1.5052,-1.5079,-1.5181,-2.9913,-2.9913,-2.9913,-2.9913,-2.9913,-2.9913,-2.9913,-2.9913,-2.9913,-2.9913,-2.9913,-2.9913,-2.9913,-2.9913,-2.9079,-2.6876,-2.4489,-2.3014,-2.3014,-1.8414,-1.6599,-1.8551,-1.6328,-1.4814,-1.455,-1.4502,-1.4421,-1.4299,-1.4299,-1.4299,-1.4299,-1.4299,-1.4299,-1.4292,-1.4143,-1.4075,-1.4055,-1.3756,-1.3627,-1.3627,-1.3627,-1.3539,-1.3403,-1.3403,-1.3227,-1.2969,-1.2793,-1.2813,-1.2949,-1.3091,-1.3247,-1.337,-1.3397,-1.3403,-1.3403,-1.3403,-1.3193,-1.2963,-1.2963,-1.2739,-1.2535,-1.2664,-1.2712,-1.2759,-1.2874,-1.2915,-1.2963,-1.3085,-1.3017,-1.2935,-1.2956,-1.3044,-1.3119,-1.3139,-1.3254,-1.3431,-1.3688,-1.3634,-1.3715,-1.4102,-1.4204,-1.4353,-1.4652,-1.4699,-1.4767,-1.4896,-1.4801,-1.4733,-1.4713,-1.4563,-1.4482,-1.4482,-1.4482,-1.4482,-1.4482,-1.4631,-1.4787,-1.4943,-1.5086,-1.516,-1.5181,-1.5181,-1.5181,-1.5174,-1.5031,-1.4896,-1.476,-1.4631,-1.4652,-1.4774,-1.4774,-1.4943,-1.5181,-1.516,-1.5167,-1.5181,-2.9913,-2.9913,-2.9913,-2.9913,-2.9913,-2.9913,-2.9913,-2.9913,-2.9913,-2.9913,-2.9913,-2.9913,-2.9913,-2.8629,-2.6876,-2.4398,-2.1912,-2.0529,-2.0529,-1.7219,-1.5615,-1.6647,-1.5654,-1.4909,-1.4774,-1.4685,-1.4611,-1.4543,-1.438,-1.4299,-1.4299,-1.4299,-1.4299,-1.4292,-1.4143,-1.4122,-1.4177,-1.3878,-1.3749,-1.3743,-1.3661,-1.3539,-1.3383,-1.322,-1.3024,-1.2813,-1.2657,-1.2759,-1.2983,-1.3125,-1.3275,-1.3403,-1.3403,-1.3403,-1.3403,-1.3403,-1.3247,-1.3064,-1.2983,-1.2861,-1.2752,-1.2732,-1.2854,-1.2996,-1.3064,-1.3146,-1.318,-1.3078,-1.3064,-1.3078,-1.3078,-1.3132,-1.32,-1.3288,-1.3431,-1.36,-1.381,-1.3858,-1.4014,-1.4373,-1.4421,-1.4536,-1.4841,-1.4869,-1.4896,-1.4964,-1.4909,-1.4828,-1.4746,-1.4679,-1.4638,-1.4638,-1.4557,-1.4509,-1.4509,-1.4665,-1.4774,-1.4841,-1.5072,-1.5181,-1.5181,-1.5181,-1.5181,-1.5174,-1.5031,-1.4882,-1.4733,-1.4665,-1.4679,-1.474,-1.474,-1.4875,-1.5065,-1.5065,-1.5113,-1.5181]}]]